[[{"header":{"parameterUnit":"m.s-1","parameterCategory":1,"la1":30.6,"la2":28.766,"lo1":-90.7593,"lo2":-88.6598,"dy":0.0162,"dx":0.0183,"nx":116,"ny":114,"refTime":"2024-05-25T06:00:00:Z","depth":0,"parameterNumber":2,"parameterNumberName":"U-component_of_WINDS"},"data":[0.0,0.0,0.0,0.0,0.0,0.0,0.0,0.0,0.0,0.0,0.0,0.0,0.0,0.0,0.0,0.0,0.0,0.0,0.0,0.0,0.0,0.0,0.0,0.0,0.0,0.0,0.0,0.0,0.0,0.0,0.0,0.0,0.0,0.0,0.0,0.0,0.0,0.0,0.0,0.0,0.0,0.0,0.0,0.0,0.0,0.0,0.0,0.0,0.0,0.0,0.0,0.0,0.0,0.0,0.0,0.0,0.0,0.0,0.0,0.0,0.0,0.0,0.0,0.0,0.0,0.0,0.0,0.0,0.0,0.0,0.0,0.0,0.0,0.0,0.0,0.0,0.0,0.0,0.0,0.0,0.0,0.0,0.0,0.0,0.0,0.0,0.0,0.0,0.0,0.0,0.0,0.0,0.0,0.0,0.0,0.0,0.0,0.0,0.0,0.0,0.0,0.0,0.0,0.0,0.0,0.0,0.0,0.0,0.0,0.0,0.0,0.0,0.0,0.0,0.0,0.0,0.0,0.0,0.0,0.0,0.0,0.0,0.0,0.0,0.0,0.0,0.0,0.0,0.0,0.0,0.0,0.0,0.0,0.0,0.0,0.0,0.0,0.0,0.0,0.0,0.0,0.0,0.0,0.0,0.0,0.0,0.0,0.0,0.0,0.0,0.0,0.0,0.0,0.0,0.0,0.0,0.0,0.0,0.0,0.0,0.0,0.0,0.0,0.0,0.0,0.0,0.0,0.0,0.0,0.0,0.0,0.0,0.0,0.0,0.0,0.0,0.0,0.0,0.0,0.0,0.0,0.0,0.0,0.0,0.0,0.0,0.0,0.0,0.0,0.0,0.0,0.0,0.0,0.0,0.0,0.0,0.0,0.0,0.0,0.0,0.0,0.0,0.0,0.0,0.0,0.0,0.0,0.0,0.0,0.0,0.0,0.0,0.0,0.0,0.0,0.0,0.0,0.0,0.0,0.0,0.0,0.0,0.0,0.0,0.0,0.0,0.0,0.0,0.0,0.0,0.0,0.0,0.0,0.0,0.0,0.0,0.0,0.0,0.0,0.0,0.0,0.0,0.0,0.0,0.0,0.0,0.0,0.0,0.0,0.0,0.0,0.0,0.0,0.0,0.0,0.0,0.0,0.0,0.0,0.0,0.0,0.0,0.0,0.0,0.0,0.0,0.0,0.0,0.0,0.0,0.0,0.0,0.0,0.0,0.0,0.0,0.0,0.0,0.0,0.0,0.0,0.0,0.0,0.0,0.0,0.0,0.0,0.0,0.0,0.0,0.0,0.0,0.0,0.0,0.0,0.0,0.0,0.0,0.0,0.0,0.0,0.0,0.0,0.0,0.0,0.0,0.0,0.0,0.0,0.0,0.0,0.0,0.0,0.0,0.0,0.0,0.0,0.0,0.0,0.0,0.0,0.0,0.0,0.0,0.0,0.0,0.0,0.0,0.0,0.0,0.0,0.0,0.0,0.0,0.0,0.0,0.0,0.0,0.0,0.0,0.0,0.0,0.0,0.0,0.0,0.0,0.0,0.0,0.0,0.0,0.0,0.0,0.0,0.0,0.0,0.0,0.0,0.0,0.0,0.0,0.0,0.0,0.0,0.0,0.0,0.0,0.0,0.0,0.0,0.0,0.0,0.0,0.0,0.0,0.0,0.0,0.0,0.0,0.0,0.0,0.0,0.0,0.0,0.0,0.0,0.0,0.0,0.0,0.0,0.0,0.0,0.0,0.0,0.0,0.0,0.0,0.0,0.0,0.0,0.0,0.0,0.0,0.0,0.0,0.0,0.0,0.0,0.0,0.0,0.0,0.0,0.0,0.0,0.0,0.0,0.0,0.0,0.0,0.0,0.0,0.0,0.0,0.0,0.0,0.0,0.0,0.0,0.0,0.0,0.0,0.0,0.0,0.0,0.0,0.0,0.0,0.0,0.0,0.0,0.0,0.0,0.0,0.0,0.0,0.0,0.0,0.0,0.0,0.0,0.0,0.0,0.0,0.0,0.0,0.0,0.0,0.0,0.0,0.0,0.0,0.0,0.0,0.0,0.0,0.0,0.0,0.0,0.0,0.0,0.0,0.0,0.0,0.0,0.0,0.0,0.0,0.0,0.0,0.0,0.0,0.0,0.0,0.0,0.0,0.0,0.0,0.0,0.0,0.0,0.0,0.0,0.0,0.0,0.0,0.0,0.0,0.0,0.0,0.0,0.0,0.0,0.0,0.0,0.0,0.0,0.0,0.0,0.0,0.0,0.0,0.0,0.0,0.0,0.0,0.0,0.0,0.0,0.0,0.0,0.0,0.0,0.0,0.0,0.0,0.0,0.0,0.0,0.0,0.0,0.0,0.0,0.0,0.0,0.0,0.0,0.0,0.0,0.0,0.0,0.0,0.0,0.0,0.0,0.0,0.0,0.0,0.0,0.0,0.0,0.0,0.0,0.0,0.0,0.0,0.0,0.0,0.0,0.0,0.0,0.0,0.0,0.0,0.0,0.0,0.0,0.0,0.0,0.0,0.0,0.0,0.0,0.0,0.0,0.0,0.0,0.0,0.0,0.0,0.0,0.0,0.0,0.0,0.0,0.0,0.0,0.0,0.0,0.0,0.0,0.0,0.0,0.0,0.0,0.0,0.0,0.0,0.0,0.0,0.0,0.0,0.0,0.0,0.0,0.0,0.0,0.0,0.0,0.0,0.0,0.0,0.0,0.0,0.0,0.0,0.0,0.0,0.0,0.0,0.0,0.0,0.0,0.0,0.0,0.0,0.0,0.0,0.0,0.0,0.0,0.0,0.0,0.0,0.0,0.0,0.0,0.0,0.0,0.0,0.0,0.0,0.0,0.0,0.0,0.0,0.0,0.0,0.0,0.0,0.0,0.0,0.0,0.0,0.0,0.0,0.0,0.0,0.0,0.0,0.0,0.0,0.0,0.0,0.0,0.0,0.0,0.0,0.0,0.0,0.0,0.0,0.0,0.0,0.0,0.0,0.0,0.0,0.0,0.0,0.0,0.0,0.0,0.0,0.0,0.0,0.0,0.0,0.0,0.0,0.0,0.0,0.0,0.0,0.0,0.0,0.0,0.0,0.0,0.0,0.0,0.0,0.0,0.0,0.0,0.0,0.0,0.0,0.0,0.0,0.0,0.0,0.0,0.0,0.0,0.0,0.0,0.0,0.0,0.0,0.0,0.0,0.0,0.0,0.0,0.0,0.0,0.0,0.0,0.0,0.0,0.0,0.0,0.0,0.0,0.0,0.0,0.0,0.0,0.0,0.0,0.0,0.0,0.0,0.0,0.0,0.0,0.0,0.0,0.0,0.0,0.0,0.0,0.0,0.0,0.0,0.0,0.0,0.0,0.0,0.0,0.0,0.0,0.0,0.0,0.0,0.0,0.0,0.0,0.0,0.0,0.0,0.0,0.0,0.0,0.0,0.0,0.0,0.0,0.0,0.0,0.0,0.0,0.0,0.0,0.0,0.0,0.0,0.0,0.0,0.0,0.0,0.0,0.0,0.0,0.0,0.0,0.0,0.0,0.0,0.0,0.0,0.0,0.0,0.0,0.0,0.0,0.0,0.0,0.0,0.0,0.0,0.0,0.0,0.0,0.0,0.0,0.0,0.0,0.0,0.0,0.0,0.0,0.0,0.0,0.0,0.0,0.0,0.0,0.0,0.0,0.0,0.0,0.0,0.0,0.0,0.0,0.0,0.0,0.0,0.0,0.0,0.0,0.0,0.0,0.0,0.0,0.0,0.0,0.0,0.0,0.0,0.0,0.0,0.0,0.0,0.0,0.0,0.0,0.0,0.0,0.0,0.0,0.0,0.0,0.0,0.0,0.0,0.0,0.0,0.0,0.0,0.0,0.0,0.0,0.0,0.0,0.0,0.0,0.0,0.0,0.0,0.0,0.0,0.0,0.0,0.0,0.0,0.0,0.0,0.0,0.0,0.0,0.0,0.0,0.0,0.0,0.0,0.0,0.0,0.0,0.0,0.0,0.0,0.0,0.0,0.0,0.0,0.0,0.0,0.0,0.0,0.0,0.0,0.0,0.0,0.0,0.0,0.0,0.0,0.0,0.0,0.0,0.0,0.0,0.0,0.0,0.0,0.0,0.0,0.0,0.0,0.0,0.0,0.0,0.0,0.0,0.0,0.0,0.0,0.0,0.0,0.0,0.0,0.0,0.0,0.0,0.0,0.0,0.0,0.0,0.0,0.0,0.0,0.0,0.0,0.0,0.0,0.0,0.0,0.0,0.0,0.0,0.0,0.0,0.0,0.0,0.0,0.0,0.0,0.0,0.0,0.0,0.0,0.0,0.0,0.0,0.0,0.0,0.0,0.0,0.0,0.0,0.0,0.0,0.0,0.0,0.0,0.0,0.0,0.0,0.0,0.0,0.0,0.0,0.0,0.0,0.0,0.0,0.0,0.0,0.0,0.0,0.0,0.0,0.0,0.0,0.0,0.0,0.0,0.0,0.0,0.0,0.0,0.0,0.0,0.0,0.0,0.0,0.0,0.0,0.0,0.0,0.0,0.0,0.0,0.0,0.0,0.0,0.0,0.0,0.0,0.0,0.0,0.0,0.0,0.0,0.0,0.0,0.0,0.0,0.0,0.0,0.0,0.0,0.0,0.0,0.0,0.0,0.0,0.0,0.0,0.0,0.0,0.0,0.0,0.0,0.0,0.0,0.0,0.0,0.0,0.0,0.0,0.0,0.0,0.0,0.0,0.0,0.0,0.0,0.0,0.0,0.0,0.0,0.0,0.0,0.0,0.0,0.0,0.0,0.0,0.0,0.0,0.0,0.0,0.0,0.0,0.0,0.0,0.0,0.0,0.0,0.0,0.0,0.0,0.0,0.0,0.0,0.0,0.0,0.0,0.0,0.0,0.0,0.0,0.0,0.0,0.0,0.0,0.0,0.0,0.0,0.0,0.0,0.0,0.0,0.0,0.0,0.0,0.0,0.0,0.0,0.0,0.0,0.0,0.0,0.0,0.0,0.0,0.0,0.0,0.0,0.0,0.0,0.0,0.0,0.0,0.0,0.0,0.0,0.0,0.0,0.0,0.0,0.0,0.0,0.0,0.0,0.0,0.0,0.0,0.0,0.0,0.0,0.0,0.0,0.0,0.0,0.0,0.0,0.0,0.0,0.0,0.0,0.0,0.0,0.0,0.0,0.0,0.0,0.0,0.0,0.0,0.0,0.0,0.0,0.0,0.0,0.0,0.0,0.0,0.0,0.0,0.0,0.0,0.0,0.0,0.0,0.0,0.0,0.0,0.0,0.0,0.0,0.0,0.0,0.0,0.0,0.0,0.0,0.0,0.0,0.0,0.0,0.0,0.0,0.0,0.0,0.0,0.0,0.0,0.0,0.0,0.0,0.0,0.0,0.0,0.0,0.0,0.0,0.0,0.0,0.0,0.0,0.0,0.0,0.0,0.0,0.0,0.0,0.0,0.0,0.0,0.0,0.0,0.0,0.0,0.0,0.0,0.0,0.0,0.0,0.0,0.0,0.0,0.0,0.0,0.0,0.0,0.0,0.0,0.0,0.0,0.0,0.0,0.0,0.0,0.0,0.0,0.0,0.0,0.0,0.0,0.0,0.0,0.0,0.0,0.0,0.0,0.0,0.0,0.0,0.0,0.0,0.0,0.0,0.0,0.0,0.0,0.0,0.0,0.0,0.0,0.0,0.0,0.0,0.0,0.0,0.0,0.0,0.0,0.0,0.0,0.0,0.0,0.0,0.0,0.0,0.0,0.0,0.0,0.0,0.0,0.0,0.0,0.0,0.0,0.0,0.0,0.0,0.0,0.0,0.0,0.0,0.0,0.0,0.0,0.0,0.0,0.0,0.0,0.0,0.0,0.0,0.0,0.0,0.0,0.0,0.0,0.0,0.0,0.0,0.0,0.0,0.0,0.0,0.0,0.0,0.0,0.0,0.0,0.0,0.0,0.0,0.0,0.0,0.0,0.0,0.0,0.0,0.0,0.0,0.0,0.0,0.0,0.0,0.0,0.0,0.0,0.0,0.0,0.0,0.0,0.0,0.0,0.0,0.0,0.0,0.0,0.0,0.0,0.0,0.0,0.0,0.0,0.0,0.0,0.0,0.0,0.0,0.0,-2.6804,0.0,0.0,0.0,0.0,0.0,0.0,0.0,0.0,0.0,0.0,0.0,0.0,0.0,0.0,0.0,0.0,0.0,0.0,0.0,0.0,0.0,0.0,0.0,0.0,-0.977,-1.0136,-1.0497,-1.0876,-1.1103,-1.1103,0.0,0.0,0.0,0.0,0.0,-1.0531,-1.0893,-1.1289,-1.1637,-1.2787,-1.3895,-1.4926,-1.4504,-1.3752,-1.2712,0.0,0.0,0.0,0.0,0.0,0.0,0.0,0.0,0.0,0.0,0.0,0.0,0.0,0.0,0.0,0.0,0.0,0.0,0.0,0.0,0.0,0.0,0.0,0.0,0.0,0.0,0.0,0.0,0.0,0.0,0.0,0.0,0.0,0.0,0.0,0.0,0.0,0.0,0.0,0.0,0.0,0.0,0.0,0.0,0.0,0.0,0.0,0.0,0.0,0.0,0.0,0.0,0.0,0.0,0.0,0.0,0.0,0.0,0.0,0.0,0.0,0.0,0.0,0.0,0.0,0.0,0.0,0.0,0.0,0.0,0.0,-2.8525,0.0,0.0,0.0,0.0,0.0,0.0,0.0,0.0,0.0,0.0,0.0,0.0,0.0,0.0,0.0,0.0,0.0,0.0,0.0,0.0,0.0,-0.9377,-1.0109,-1.043,-1.0886,-1.1637,-1.1806,-1.1823,-1.1705,-1.1688,0.0,0.0,0.0,-1.1441,-1.1316,-1.1553,-1.2322,-1.3591,-1.4842,-1.6532,-1.8577,-1.8713,-1.78,-1.5998,-1.473,0.0,0.0,0.0,0.0,0.0,0.0,0.0,0.0,0.0,0.0,0.0,0.0,0.0,0.0,0.0,0.0,0.0,0.0,0.0,0.0,0.0,0.0,0.0,0.0,0.0,0.0,0.0,0.0,0.0,0.0,0.0,0.0,0.0,0.0,0.0,0.0,0.0,0.0,0.0,0.0,0.0,0.0,0.0,0.0,0.0,0.0,0.0,0.0,0.0,0.0,0.0,0.0,0.0,0.0,0.0,0.0,0.0,0.0,0.0,0.0,0.0,0.0,0.0,0.0,-3.5267,-3.5816,-3.5737,-3.6058,-3.6466,-3.4582,-3.2906,-3.1352,0.0,0.0,0.0,0.0,0.0,0.0,0.0,0.0,0.0,0.0,0.0,0.0,0.0,0.0,0.0,0.0,0.0,0.0,0.0,0.0,-1.0142,-1.0876,-1.2152,-1.3252,-1.3996,-1.4648,-1.4733,-1.4098,-1.4047,0.0,0.0,-1.3108,-1.2795,-1.2162,-1.3405,-1.4149,-1.4351,-1.7653,-2.0116,-2.1721,-2.2361,-2.2513,-2.2073,-1.8723,-1.6653,-1.57,0.0,0.0,0.0,0.0,0.0,0.0,0.0,0.0,0.0,0.0,0.0,0.0,0.0,0.0,0.0,0.0,0.0,0.0,0.0,0.0,0.0,0.0,0.0,0.0,0.0,0.0,0.0,0.0,0.0,0.0,0.0,0.0,0.0,0.0,0.0,0.0,0.0,0.0,0.0,0.0,0.0,-2.297,-2.3814,0.0,0.0,0.0,0.0,0.0,0.0,0.0,0.0,0.0,0.0,0.0,0.0,0.0,0.0,-3.4856,-3.6941,-3.8328,-3.9097,-4.046,-4.1087,-4.1004,-4.1001,-4.0956,-4.0832,-3.998,0.0,-3.2191,-3.1427,0.0,0.0,0.0,0.0,0.0,0.0,0.0,0.0,0.0,0.0,0.0,0.0,0.0,0.0,0.0,0.0,0.0,0.0,0.0,0.0,0.0,-1.3971,-1.5105,-1.6245,-1.665,-1.6525,-1.5781,-1.5358,-1.48,-1.4056,-1.3625,-1.3439,-1.3523,-1.458,-1.6153,-1.8268,-2.1126,-2.3088,-2.4156,-2.4492,-2.4864,-2.5169,-2.3545,-2.1325,-1.8797,-1.8286,0.0,0.0,0.0,0.0,0.0,0.0,0.0,0.0,0.0,0.0,0.0,0.0,0.0,0.0,0.0,0.0,0.0,0.0,0.0,0.0,0.0,0.0,0.0,0.0,0.0,0.0,0.0,0.0,0.0,0.0,0.0,0.0,0.0,0.0,0.0,0.0,0.0,0.0,0.0,-2.1986,-2.4288,-2.5033,-2.5558,-2.571,0.0,0.0,0.0,0.0,0.0,0.0,0.0,0.0,0.0,-3.4764,-3.6738,-3.8034,-3.8555,-4.0386,-4.1191,-4.0998,-4.2087,-4.251,-4.246,-4.2428,-4.2363,-4.2203,-4.1422,-3.9516,-3.6756,-3.5064,-3.2787,-3.0283,0.0,0.0,0.0,0.0,0.0,-2.9624,0.0,0.0,0.0,0.0,0.0,0.0,0.0,0.0,0.0,0.0,0.0,0.0,-1.4817,-1.5731,-1.6762,-1.8239,-1.8358,-1.8048,-1.7314,-1.6559,-1.5832,-1.5105,-1.4369,-1.4319,-1.5054,-1.6356,-1.8685,-2.2037,-2.4068,-2.5439,-2.6167,-2.637,-2.6759,-2.73,-2.73,-2.529,-2.1871,-2.1164,-1.9551,-1.7321,0.0,0.0,0.0,0.0,0.0,0.0,0.0,0.0,0.0,0.0,0.0,0.0,0.0,0.0,0.0,0.0,0.0,0.0,0.0,0.0,0.0,0.0,0.0,0.0,0.0,0.0,0.0,0.0,0.0,0.0,0.0,0.0,0.0,0.0,0.0,0.0,0.0,-2.4135,-2.5929,-2.6674,-2.8213,-2.8855,0.0,0.0,0.0,0.0,0.0,0.0,-3.4206,-3.5307,-3.6551,-3.8086,-4.0391,-4.1538,-4.1404,-4.2686,-4.2991,-4.2297,-4.2839,-4.3073,-4.3042,-4.298,-4.2906,-4.2818,-4.201,-4.1354,-4.0755,-3.8491,-3.6067,-3.3678,-3.32,-3.2243,-3.124,-3.2377,-3.2766,-3.308,0.0,0.0,0.0,0.0,0.0,0.0,0.0,0.0,0.0,0.0,0.0,-1.4124,-1.636,-1.7253,-1.829,-1.9765,-1.9883,-1.9575,0.0,-1.8099,-1.7371,-1.6621,-1.5876,-1.5842,-1.657,-1.943,-2.2037,-2.4321,-2.5862,-2.6962,-2.7705,-2.8467,-2.8857,-2.8874,-2.8874,-2.7431,-2.4896,-2.374,-2.2197,-2.0335,-1.7652,0.0,0.0,0.0,0.0,0.0,0.0,0.0,0.0,0.0,0.0,0.0,0.0,0.0,0.0,0.0,0.0,0.0,0.0,0.0,0.0,0.0,0.0,0.0,0.0,0.0,0.0,0.0,0.0,0.0,0.0,0.0,0.0,0.0,0.0,0.0,0.0,0.0,0.0,-2.9786,-3.1779,0.0,0.0,0.0,0.0,-3.41,-3.4912,-3.6614,-3.9538,-3.9601,-4.02,-4.1703,-4.238,-4.2715,-4.2714,-4.3531,-4.3914,-4.388,-4.3912,-4.3848,-4.3629,-4.3639,-4.3502,-4.3234,-4.262,-4.2336,-4.2186,-4.08,-3.8996,-3.7165,-3.712,-3.6327,-3.5295,-3.5983,-3.6237,-3.6342,0.0,0.0,0.0,0.0,0.0,-0.8897,-0.8897,-0.9523,-1.0261,-1.0994,-1.3269,-1.5487,-1.7219,-1.8944,-2.0382,-2.1383,-2.1485,-2.1164,-2.0429,-1.9198,-1.8386,-1.8127,-1.6942,-1.7331,-1.9549,-2.2037,-2.4186,-2.5929,-2.7436,-2.8552,-2.9277,-2.9567,-2.9956,-3.0431,-3.0431,-2.9664,-2.8273,-2.6843,-2.504,-2.3009,-2.1076,-1.9105,0.0,0.0,0.0,0.0,0.0,0.0,0.0,0.0,0.0,0.0,0.0,0.0,0.0,0.0,0.0,0.0,0.0,0.0,0.0,0.0,0.0,0.0,0.0,0.0,0.0,0.0,0.0,0.0,0.0,0.0,0.0,0.0,0.0,0.0,0.0,0.0,0.0,-3.3436,-3.5194,0.0,-3.5571,-3.618,-3.6804,-3.7227,-3.8344,-3.9713,-4.1366,-4.1615,-4.2261,-4.3448,-4.4378,-4.457,-4.3945,-4.5159,-4.5437,-4.4833,-4.4833,-4.4776,-4.4734,-4.4734,-4.467,-4.4586,-4.4347,-4.4003,-4.3584,-4.312,-4.1504,-3.9334,-3.9334,-3.8796,-3.8048,-3.8287,-3.8646,-3.9035,0.0,0.0,0.0,0.0,-0.8897,-0.8897,-0.8897,-0.9732,-1.0818,-1.2077,-1.4411,-1.6739,-1.8724,-2.0293,-2.1512,-2.2229,-2.2296,-2.2076,-2.16,-2.0378,-1.9684,-1.9684,-1.899,-1.9752,-2.2257,-2.4237,-2.6099,-2.7841,-2.8856,-2.9736,-3.048,-3.048,-3.0734,-3.119,-3.119,-3.092,-3.0412,-2.9375,-2.7669,-2.5462,-2.3752,-2.213,-2.0533,0.0,0.0,0.0,0.0,0.0,0.0,0.0,0.0,0.0,0.0,0.0,0.0,0.0,0.0,0.0,0.0,0.0,0.0,0.0,0.0,0.0,0.0,0.0,0.0,0.0,0.0,0.0,0.0,0.0,0.0,0.0,0.0,0.0,0.0,0.0,-3.4375,-3.5842,-3.8007,-3.9292,-3.9039,-3.9918,-4.0658,-4.11,-4.1704,-4.2413,-4.3227,-4.3342,-4.3704,-4.4377,-4.5297,-4.5454,-4.4847,-4.5773,-4.5925,-4.5289,-4.5289,-4.5289,-4.5289,-4.5289,-4.5289,-4.5289,-4.5289,-4.505,-4.4646,-4.4646,-4.3494,-4.1683,-4.1235,-4.0666,-4.0083,-4.0083,-4.0352,-4.0726,0.0,0.0,0.0,-0.8897,-0.8897,-0.8897,-0.8897,-1.0155,-1.1908,-1.4165,-1.5791,-1.7856,-2.0835,-2.1207,-2.1529,-2.2229,-2.2296,-2.2296,-2.2296,-2.1613,-2.1207,-2.1224,-2.1955,-2.3054,-2.4541,-2.6014,-2.7858,-3.0108,-3.0125,-3.0514,-3.1224,-3.1224,-3.1241,-3.1258,-3.1258,-3.1258,-3.1258,-3.1258,-2.9986,-2.7779,-2.5529,-2.4616,-2.4238,0.0,0.0,0.0,0.0,0.0,0.0,0.0,0.0,0.0,0.0,0.0,0.0,0.0,0.0,0.0,0.0,0.0,0.0,0.0,0.0,0.0,0.0,0.0,0.0,0.0,0.0,0.0,0.0,0.0,0.0,0.0,0.0,0.0,-3.141,-3.4539,-3.6874,-3.6998,-4.013,-4.203,-4.1354,-4.2578,-4.4018,-4.5503,-4.4799,-4.4616,-4.5337,-4.4907,-4.4646,-4.4646,-4.5087,-4.5334,-4.5334,-4.5349,-4.5349,-4.5349,-4.5349,-4.5349,-4.5349,-4.5349,-4.5349,-4.5349,-4.5349,-4.5349,-4.5334,-4.5334,-4.4945,-4.4212,-4.2965,-4.2066,-4.1482,-4.1482,-4.1482,-4.1482,0.0,0.0,-0.8897,-0.8897,-0.8897,-0.8897,-0.8897,-1.0155,-1.1729,-1.3472,-1.5917,-1.8217,-2.0116,-2.1329,-2.209,-2.2279,-2.2296,-2.2296,-2.2296,-2.1613,-2.1444,-2.1972,-2.3207,-2.4592,-2.6065,-2.7588,-2.8924,-3.0108,-3.0632,-3.1258,-3.2005,-3.2005,-3.2273,-3.2797,-3.2797,-3.2797,-3.2797,-3.2797,-3.2431,-3.1628,-2.8872,-2.7097,-2.5881,0.0,0.0,0.0,0.0,0.0,0.0,0.0,0.0,0.0,0.0,0.0,0.0,0.0,0.0,0.0,0.0,0.0,0.0,0.0,0.0,0.0,0.0,0.0,0.0,0.0,0.0,0.0,0.0,0.0,0.0,0.0,0.0,-3.6062,-3.6062,-3.6851,-3.8485,-4.1244,-4.1844,-4.2374,-4.3337,-4.3673,-4.3751,-4.352,-4.4161,-4.4665,-4.4957,-4.5064,-4.5403,-4.6106,-4.6081,-4.6037,-4.6037,-4.6516,-4.6756,-4.6756,-4.6756,-4.6756,-4.6756,-4.6756,-4.6756,-4.6756,-4.6756,-4.6471,-4.6037,-4.6037,-4.5633,-4.4945,-4.4107,-4.3374,-4.2791,-4.2791,-4.2791,-4.2731,0.0,-0.8897,-0.8897,-0.8897,-0.8897,-0.8993,-0.9309,-1.0358,-1.1983,-1.4463,-1.6542,-1.8611,-2.0741,-2.1755,-2.2296,-2.2296,-2.2296,-2.2296,-2.2296,-2.2192,-2.246,-2.319,-2.4643,-2.6132,-2.7639,-2.8839,-2.9973,-3.1021,-3.1444,-3.2056,-3.2767,-3.2767,-3.2983,-3.3406,-3.3406,-3.3406,-3.3406,-3.3406,-3.3406,-3.322,-3.121,-2.9856,-2.8824,-2.6691,-2.5828,-2.5557,-2.4051,-2.3103,-2.251,-2.204,0.0,0.0,0.0,0.0,0.0,0.0,0.0,0.0,0.0,0.0,0.0,0.0,0.0,0.0,0.0,0.0,0.0,0.0,0.0,0.0,0.0,0.0,0.0,0.0,-3.6248,-3.8802,-4.0037,-4.0139,-4.0894,-4.3041,-4.3061,-4.3379,-4.4513,-4.4777,-4.4789,-4.4609,-4.5541,-4.5966,-4.5633,-4.6079,-4.6392,-4.6514,-4.6647,-4.6741,-4.6741,-4.7115,-4.7309,-4.7309,-4.7309,-4.7309,-4.7309,-4.7309,-4.7309,0.0,-4.7309,-4.7085,-4.6741,-4.6741,-4.6337,0.0,0.0,0.0,0.0,0.0,-4.329,-4.3245,0.0,-0.8897,-0.8897,-0.8897,-0.8897,-0.9145,-0.9889,-1.0639,-1.2423,-1.6106,-1.7287,-1.8915,-2.1857,-2.2245,-2.2296,-2.2296,-2.2296,-2.233,0.0,-2.3105,-2.3898,-2.4711,-2.6166,-2.7639,-2.9094,-2.9922,-3.0987,-3.2293,-3.2378,-3.2797,-3.3525,-3.3525,-3.3575,-3.366,-3.366,-3.366,-3.366,-3.366,-3.366,-3.3592,-3.2831,-3.2446,-3.1989,-2.9125,-2.8501,-2.8942,-2.7486,-2.6116,-2.4998,-2.4998,0.0,0.0,0.0,0.0,0.0,0.0,0.0,0.0,0.0,0.0,0.0,0.0,0.0,0.0,0.0,0.0,0.0,0.0,0.0,0.0,0.0,0.0,0.0,0.0,-3.8364,-4.0323,-4.3139,-4.3523,-4.3468,-4.341,-4.3802,-4.435,-4.5037,-4.5571,-4.6231,-4.7012,-4.7686,-4.77,-4.6865,0.0,0.0,0.0,0.0,-4.7309,-4.7309,-4.7309,-4.7309,-4.7309,-4.7309,-4.7309,-4.7309,-4.7309,-4.7309,-4.7309,-4.7309,-4.7309,-4.7309,-4.7309,-4.6965,-4.6352,-4.5589,-4.4945,-4.4347,-4.3648,-4.3409,0.0,0.0,-0.8897,-0.8897,-0.8897,-0.8897,-0.9145,-0.9889,-1.0639,-1.2229,-1.5402,-1.6982,-1.8724,-2.1156,-2.1938,-2.2296,-2.2296,-2.2296,-2.255,0.0,0.0,-2.488,-2.6217,-2.774,-2.8976,-2.9871,-3.119,-3.2005,-3.2293,-3.2899,-3.3558,-3.4286,-3.4286,-3.4607,-3.516,-3.516,-3.516,-3.516,-3.516,-3.516,-3.5109,-3.437,-3.3359,-3.2107,-3.0328,-2.9734,-2.977,-2.8891,-2.8367,-2.813,-2.813,-2.7503,-2.6488,-2.4984,-2.4103,0.0,0.0,0.0,0.0,0.0,0.0,0.0,0.0,0.0,0.0,0.0,0.0,0.0,0.0,0.0,0.0,0.0,0.0,0.0,-3.8244,-4.0284,-4.2237,-4.4097,-4.4273,-4.4437,-4.5127,-4.3763,-4.337,-4.496,-4.4836,-4.5061,-4.6077,-4.6505,-4.6951,-4.7577,-4.7467,0.0,-4.7115,-4.7234,-4.7309,-4.7309,-4.7309,-4.7309,-4.7309,0.0,0.0,-4.7309,-4.7309,-4.7309,-4.7309,-4.7309,-4.7309,-4.7309,-4.7309,-4.7234,-4.6995,-4.5768,-4.5214,-4.5035,-4.4362,-4.4122,-4.4047,-0.8913,-0.8897,-0.8897,-0.8897,-0.9213,-0.9692,-1.0436,-1.1214,-1.277,-1.5757,-1.679,-1.8099,-2.0348,-2.0927,-2.1147,-2.1147,-2.1515,0.0,0.0,-2.4441,-2.571,-2.7199,-2.8738,-2.9888,-3.0632,-3.1735,-3.2479,-3.2848,-3.3592,-3.4336,-3.5064,-3.5064,-3.5245,-3.56,-3.56,-3.56,-3.56,-3.56,-3.56,-3.5532,-3.4793,-3.4049,-3.3241,-3.1749,-3.119,-3.1089,-3.0381,-2.9854,-2.955,-2.955,-2.9042,-2.8197,-2.7046,-2.6454,-2.5642,0.0,0.0,0.0,0.0,0.0,0.0,0.0,0.0,0.0,0.0,0.0,0.0,0.0,0.0,-3.2442,0.0,0.0,-3.8477,-4.0301,-4.1761,-4.2917,-4.3687,-4.3929,-4.4377,-4.5289,-4.4408,-4.3985,-4.4629,-4.4783,-4.5176,-4.6047,-4.7006,-4.757,-4.757,-4.789,-4.7834,-4.7309,-4.7309,-4.7309,-4.7309,-4.7309,-4.7309,-4.7309,-4.7309,-4.7309,-4.7309,-4.7309,-4.7309,-4.7309,-4.7309,-4.7309,-4.7309,-4.7309,-4.7309,-4.7234,-4.6561,-4.6097,-4.5723,-4.505,-4.4811,-4.4706,-0.8957,-0.8919,-0.8897,-0.8897,-0.9506,-1.0244,-1.0994,-1.1773,-1.3269,-1.5927,-1.6519,-1.7433,-1.936,-1.9833,-2.0052,0.0,0.0,0.0,0.0,-2.4983,-2.6471,-2.7959,-2.9516,-3.0666,-3.1393,-3.2141,-3.2865,-3.3609,-3.4353,-3.503,-3.56,-3.56,-3.56,-3.56,-3.56,-3.56,-3.56,-3.56,-3.56,-3.5549,-3.4962,-3.4709,-3.4539,-3.3089,-3.2429,-3.2209,-3.1464,-3.0734,-3.0125,-3.0277,-2.982,-2.9093,-2.8449,-2.8246,-2.7722,-2.505,-2.456,0.0,0.0,0.0,0.0,0.0,0.0,0.0,0.0,-3.0398,-3.0702,-3.2936,-3.4083,-3.5436,-3.7889,-3.9157,-4.0456,-4.2356,-4.2903,-4.3287,-4.3864,-4.3949,-4.4369,-4.5445,-4.5078,-4.472,-4.4594,-4.5023,-4.5657,-4.6527,-4.7801,-4.8252,-4.7609,-4.8183,-4.8141,-4.7352,-4.7309,-4.7309,-4.7309,-4.7309,-4.7309,-4.7309,-4.7309,-4.7309,-4.7309,-4.7309,-4.7309,-4.7309,-4.7309,-4.7309,-4.7309,-4.7309,-4.7309,-4.7309,-4.7309,-4.698,-4.6426,-4.5738,-4.5484,-4.5409,0.0,-0.8984,-0.8897,-0.8897,-0.9506,-1.0244,-1.0994,-1.1773,-1.2889,-1.4537,-1.5893,-1.7044,-1.7952,-1.9208,-2.0285,-2.1004,-2.114,0.0,-2.4237,-2.576,-2.7249,-2.8807,-3.0277,-3.141,-3.2158,-3.2899,-3.3643,-3.437,-3.5131,-3.5515,-3.56,-3.56,-3.56,-3.56,-3.56,-3.56,-3.56,-3.56,-3.56,-3.5583,-3.5498,-3.5481,-3.5312,-3.3846,-3.2865,-3.2209,-3.1464,-3.0734,-3.0209,-3.0852,-3.0581,-2.9973,-2.9869,-2.9835,-2.9497,-2.7807,-2.6911,-2.6539,-2.6945,-2.7706,-2.8739,-3.0192,-3.0209,-3.1069,0.0,0.0,-3.4523,-3.6806,-3.8379,-3.9445,-3.9775,-4.1516,-4.3223,-4.4181,-4.3598,-4.4026,-4.6957,-4.5996,-4.5615,-4.7143,-4.507,-4.4055,-4.5403,-4.5385,-4.5943,-4.749,-4.7539,-4.7792,-4.8594,-4.7876,-4.7424,-4.7294,-4.7309,-4.7309,-4.7309,-4.7309,-4.7309,-4.7309,-4.7309,-4.7309,-4.7309,-4.7309,-4.7309,-4.7309,-4.7309,-4.7309,-4.7309,-4.7309,-4.7309,-4.7309,-4.7309,-4.7249,-4.7115,-4.6456,-4.6217,-4.6112,0.0,-0.9344,-0.954,-0.954,-1.0149,-1.091,-1.1671,-1.2457,-1.332,-1.4368,-1.5037,-1.5697,-1.6441,-1.7456,-1.8724,-2.0352,-2.05,-2.1634,-2.4321,-2.5879,-2.7402,-2.8925,-3.0415,-3.1326,-3.1667,-3.2797,-3.3558,-3.3863,-3.5025,-3.56,-3.56,-3.56,-3.56,-3.56,-3.56,-3.56,-3.56,-3.56,-3.56,-3.56,-3.56,-3.5329,-3.4861,-3.3812,-3.2679,-3.1546,-3.0818,-3.0362,0.0,-2.9956,-2.9721,-2.9448,-2.9448,-2.9144,-2.8551,-2.7469,-2.7571,-2.84,-2.9989,-3.097,-3.1799,-3.2848,-3.3558,-3.4675,-3.7313,-3.7161,-3.6992,-3.8802,-4.0003,-4.0865,-4.1305,-4.2506,-4.3625,0.0,-4.3975,-4.4013,-4.5346,-4.4378,-4.3815,-4.4481,-4.351,-4.3717,-4.6067,-4.5693,-4.5917,-4.7418,-4.7372,-4.7495,-4.7904,-4.7538,-4.7309,-4.7309,-4.7309,-4.7309,-4.7309,-4.7309,-4.7309,-4.7309,-4.7309,-4.7309,-4.7309,-4.7309,-4.7309,-4.7309,-4.7309,-4.7309,-4.7309,-4.7309,-4.7309,-4.7309,-4.7309,-4.7309,-4.7279,-4.6995,-4.689,-4.68,0.0,-0.9749,-1.0155,-1.0603,-1.1128,-1.1669,-1.222,-1.2931,-1.3591,-1.4124,-1.4368,-1.4858,-1.5808,-1.657,-1.7726,-1.9541,-1.9883,-2.1113,-2.3729,-2.5456,-2.708,-2.8602,-3.0091,-3.1089,-3.1478,-3.2544,-3.3305,-3.3711,-3.4754,-3.5397,-3.56,-3.56,-3.56,-3.56,-3.56,-3.56,-3.56,-3.56,-3.56,-3.5583,-3.538,-3.4979,-3.437,-3.3237,-3.2002,-3.0801,-3.0057,-2.9516,-2.9093,-2.8553,-2.8231,-2.8113,-2.8299,-2.8112,-2.7773,-2.7672,-2.8856,-3.0463,-3.1667,-3.2983,-3.4201,-3.4945,-3.6288,-3.7608,-3.8345,-3.8514,-3.8802,-3.9893,-4.0679,-4.1373,-4.1897,-4.2777,-4.3597,-4.4252,-4.4156,-4.419,-4.4784,-4.3867,-4.331,-4.3762,-4.3416,-4.4029,-4.6198,-4.5738,-4.5783,-4.695,-4.7204,-4.7309,-4.7309,-4.7309,-4.7309,-4.7309,-4.7309,-4.7309,-4.7309,-4.7309,-4.7309,-4.7309,-4.7309,-4.7309,-4.7309,-4.7309,-4.7309,-4.7309,-4.7309,-4.7309,-4.7309,-4.7309,-4.7309,-4.7309,-4.7309,-4.7309,-4.7309,-4.7309,-4.7309,-4.7234,0.0,0.0,-1.0505,-1.2144,-1.2432,-1.2419,-1.2311,-1.2931,-1.3413,-1.343,-1.4056,-1.5044,-1.6512,-1.732,-1.8082,-1.8872,-1.9592,-2.066,-2.2262,-2.4409,-2.6285,-2.7773,-2.9311,-3.0801,-3.2242,-3.231,-3.3038,-3.4455,-3.4506,-3.4895,-3.56,-3.56,-3.56,-3.56,-3.56,-3.56,-3.56,-3.56,-3.56,-3.5532,-3.481,-3.4506,-3.4252,-3.2087,-3.0784,-3.004,-2.9314,-2.8079,-2.6793,-2.6793,-2.6285,-2.5845,-2.6539,-2.7249,-2.8094,-2.9548,-3.1562,-3.2983,-3.1596,-3.3339,-3.5718,-3.6541,-3.7821,-3.9123,-3.9876,-4.0028,-4.0045,-4.0096,-4.0679,-4.1221,-4.1238,-4.2439,-4.3597,-4.4207,-4.414,-4.481,-4.7143,-4.6063,-4.5612,-4.7258,-4.6013,-4.5215,0.0,-4.548,-4.5589,-4.6264,-4.695,-4.7309,-4.7309,-4.7309,-4.7309,-4.7309,-4.7309,-4.7309,-4.7309,-4.7309,-4.7309,-4.7309,-4.7309,-4.7309,-4.7309,-4.7309,-4.7309,-4.7309,-4.7309,-4.7309,-4.7309,-4.7309,-4.7309,-4.7309,-4.7309,-4.7309,-4.7309,-4.7309,-4.7309,-4.7309,0.0,0.0,0.0,-1.2576,-1.2994,-1.3258,-1.3342,-1.3505,-1.3544,-1.3413,-1.4039,0.0,0.0,0.0,0.0,0.0,-1.9575,-2.0643,-2.2195,-2.4358,-2.6048,-2.7029,-2.8552,-2.982,-3.0818,-3.1309,-3.2056,-3.3038,-3.3525,-3.3897,-3.4129,-3.4129,-3.4129,-3.4129,-3.4129,-3.4129,-3.4129,-3.4129,-3.4421,-3.481,-3.4066,-3.3778,-3.3643,-3.2412,-3.0531,-2.8483,0.0,-2.6826,-2.5896,-2.5405,-2.5083,-2.4914,-2.5168,-2.5422,-2.6099,-2.8619,-3.0581,-3.2256,-3.3728,-3.5583,-3.7313,-3.8058,-3.9012,-3.9791,-4.0045,-4.0096,-4.0096,-4.0096,-4.0679,-4.1204,-4.1204,-4.1982,-4.3181,-4.4934,-4.4042,-4.3968,-4.633,-4.505,-4.3951,-4.4115,-4.4002,0.0,0.0,0.0,0.0,-4.6204,-4.6488,-4.6845,-4.7279,-4.7309,-4.7309,-4.7309,-4.7309,-4.7309,-4.7309,-4.7309,-4.7309,-4.7309,-4.7309,-4.7309,-4.7309,-4.7309,-4.7309,-4.7309,-4.7309,-4.7309,-4.7309,-4.7309,-4.7309,-4.7309,-4.7309,-4.7309,-4.7309,-4.7309,-4.7309,-4.7309,0.0,0.0,0.0,0.0,0.0,0.0,0.0,0.0,0.0,0.0,0.0,0.0,0.0,0.0,0.0,0.0,0.0,-2.0149,-2.14,-2.3327,-2.4864,-2.5879,-2.7131,-2.8129,-2.8873,-2.9347,-3.0093,-3.1125,-3.1616,-3.2104,-3.2611,-3.2611,-3.2747,-3.3,-3.3,-3.3152,-3.3389,-3.3119,-3.3271,-3.3613,-3.2341,-3.1833,-3.1681,-3.0395,-2.8535,0.0,-2.5778,-2.505,-2.4357,-2.3866,-2.3898,-2.4152,-2.4406,-2.5591,-2.7334,-2.9534,-3.1413,-3.3322,-3.5752,-3.7161,-3.821,-3.9478,-3.996,-4.018,-4.0434,-4.0299,-4.0028,-3.9774,-4.007,-4.0409,-4.0409,-4.0759,-4.1883,-4.4353,-4.3701,-4.3856,-4.6673,-4.528,-4.4082,-4.445,-4.4082,-4.3669,0.0,0.0,0.0,-4.5888,-4.6411,-4.686,-4.7279,-4.7309,-4.7309,-4.7309,-4.7309,-4.7309,-4.7309,-4.7309,-4.7309,-4.7309,-4.7309,-4.7309,-4.7309,-4.7309,-4.7309,-4.7309,-4.7309,-4.7309,-4.7309,-4.7309,-4.7309,-4.7309,-4.7309,-4.7309,-4.7309,-4.7309,-4.7309,-4.7309,0.0,0.0,0.0,0.0,0.0,0.0,0.0,0.0,0.0,0.0,0.0,0.0,0.0,0.0,0.0,0.0,0.0,0.0,-1.99,-2.1417,0.0,-2.4321,-2.5118,-2.5896,-2.6623,-2.664,-2.7385,-2.8874,-2.8874,-2.9602,-3.097,-3.097,-3.1345,-3.2005,-3.2005,-3.2412,-3.3017,-3.2327,-3.2039,-3.1887,-2.9738,-2.8908,-2.8705,-2.6488,-2.5169,-2.4406,-2.3712,-2.2987,-2.2347,-2.2398,-2.2987,-2.3831,-2.4558,-2.7757,-3.1413,-3.2192,-3.3964,-3.5988,-3.755,-3.8024,-3.8582,-4.0679,-4.0663,-4.0333,-4.0984,-4.0561,-3.9842,-3.9089,-3.8903,-3.887,0.0,0.0,-3.9789,-4.2591,-4.304,-4.4338,-4.8115,-4.6629,-4.592,0.0,0.0,0.0,0.0,0.0,0.0,-4.5349,0.0,-4.7264,-4.7309,-4.7309,-4.7309,-4.7309,-4.7309,-4.7309,-4.7309,-4.7309,-4.7309,-4.7309,-4.7309,-4.7309,-4.7309,-4.7309,-4.7309,-4.7309,-4.7309,-4.7309,-4.7309,-4.7309,-4.7309,-4.7309,-4.7309,-4.7309,-4.7309,-4.7309,-4.7309,-4.7309,0.0,0.0,0.0,0.0,0.0,0.0,0.0,0.0,0.0,0.0,0.0,0.0,0.0,0.0,0.0,0.0,0.0,0.0,-1.9164,0.0,0.0,0.0,-2.4101,-2.5134,-2.5862,-2.5879,-2.6336,-2.73,-2.73,-2.7469,-2.7841,-2.7841,-2.7943,-2.8147,-2.8147,-2.823,-2.8399,-2.8197,-2.8433,-2.8838,-2.7723,-2.7621,-2.7976,-2.6843,-2.5625,-2.4474,-2.4288,-2.3763,-2.319,-2.3763,-2.5557,-2.7706,-2.8433,-3.0209,-3.2276,-3.3563,-3.5131,-3.6806,-3.8311,-3.9529,-4.0493,-4.1068,-4.1068,-4.0815,-4.0468,-3.9825,-3.9056,-3.8328,-3.7736,-3.7161,-3.6586,0.0,0.0,-4.191,-4.2291,0.0,-4.7059,-4.684,0.0,-4.6091,-4.593,-4.5718,-4.5361,-4.5753,0.0,0.0,-4.6381,-4.6785,-4.7279,-4.7309,-4.7309,-4.7309,-4.7309,-4.7309,-4.7309,-4.7309,-4.7309,-4.7309,-4.7309,-4.7309,-4.7309,-4.7309,-4.7309,-4.7309,-4.7309,-4.7309,-4.7309,-4.7309,-4.7309,-4.7309,-4.7309,-4.7309,-4.7309,-4.7309,-4.7309,-4.7309,0.0,0.0,0.0,0.0,0.0,0.0,0.0,0.0,0.0,0.0,0.0,0.0,0.0,0.0,0.0,0.0,0.0,0.0,0.0,0.0,0.0,-2.1803,-2.2919,-2.3731,-2.4139,-2.4475,-2.4847,-2.5253,0.0,0.0,-2.5743,-2.5743,-2.5912,-2.6218,-2.6218,-2.6387,-2.6674,-2.6353,0.0,0.0,0.0,-2.5507,-2.5778,-2.505,-2.4255,-2.3528,-2.3528,-2.4306,-2.5507,0.0,0.0,-3.0211,-3.1596,-3.3051,-3.451,-3.5639,0.0,-3.8505,-3.9648,-4.0815,-4.1677,-4.1677,-4.1441,-4.0916,-3.9876,-3.9039,-3.8024,-3.6282,-3.5842,-3.5458,-3.4353,-3.5219,-3.7124,0.0,0.0,0.0,-4.6817,-4.7083,-4.6905,0.0,-4.6527,0.0,-4.6187,-4.6531,-4.6756,0.0,-4.6756,-4.692,-4.7279,-4.7309,-4.7309,-4.7309,-4.7309,-4.7309,-4.7309,-4.7309,-4.7309,-4.7309,-4.7309,-4.7309,-4.7309,-4.7309,-4.7309,-4.7309,0.0,-4.7309,-4.7309,-4.7309,-4.7309,-4.7309,-4.7309,-4.7309,-4.7309,-4.7309,-4.7309,-4.7309,0.0,0.0,0.0,0.0,0.0,0.0,0.0,0.0,0.0,0.0,-1.6803,0.0,0.0,0.0,0.0,0.0,0.0,0.0,0.0,0.0,0.0,-2.1156,-2.1904,-2.2296,-2.2296,-2.2936,-2.3241,-2.3241,0.0,0.0,0.0,0.0,0.0,0.0,0.0,0.0,0.0,0.0,0.0,0.0,-2.3765,-2.3241,-2.3173,0.0,0.0,0.0,-2.2516,-2.4646,-2.7672,-2.9719,-3.1072,-3.229,-3.432,-3.5994,-3.7371,-3.8007,-3.9157,-4.0417,-4.1153,-4.188,-4.2422,-4.232,-4.1813,-4.0916,-3.9225,-3.821,-3.6772,-3.3863,-3.3609,-3.3525,-3.2242,-3.3748,-3.5927,-3.8272,0.0,-4.4005,-4.6615,-4.7089,-4.7494,-4.8347,-4.7273,-4.6681,-4.7249,-4.7309,-4.7309,-4.7309,-4.7309,-4.7309,-4.7309,-4.7309,-4.7309,-4.7309,-4.7309,-4.7309,-4.7309,-4.7309,-4.7309,-4.7309,-4.7309,-4.7309,-4.7309,-4.7309,-4.7309,-4.7309,0.0,0.0,-4.7309,-4.7309,-4.7309,-4.7309,-4.7309,-4.7309,-4.7309,-4.7309,-4.7309,-4.7309,0.0,0.0,0.0,0.0,0.0,0.0,0.0,0.0,0.0,0.0,-1.787,-1.77,0.0,0.0,0.0,0.0,0.0,0.0,0.0,0.0,0.0,0.0,-2.1904,-2.2296,-2.2296,-2.2431,-2.2496,0.0,0.0,0.0,0.0,0.0,0.0,0.0,0.0,0.0,0.0,0.0,0.0,0.0,0.0,-2.2496,-2.2482,0.0,0.0,0.0,-2.3678,-2.4525,-2.5777,-3.0381,-3.3664,-3.6,-3.6992,-3.8328,-3.9554,-3.969,-4.0324,-4.117,-4.1897,-4.2658,-4.3064,-4.2439,-4.2202,-4.139,-3.8717,-3.7026,0.0,-3.2987,-3.1613,-3.0784,-3.0531,-3.1783,-3.3966,-3.7337,-3.9963,-4.2451,-4.4893,-4.6281,-4.6972,0.0,-4.6989,-4.7174,-4.7294,-4.7309,0.0,0.0,0.0,0.0,-4.7309,-4.7309,-4.7309,-4.7309,-4.7309,-4.7309,-4.7309,-4.7309,-4.7309,-4.7309,-4.7309,-4.7309,-4.7309,-4.7309,-4.7309,-4.7309,0.0,0.0,-4.7309,-4.7309,-4.7309,-4.7309,-4.7309,-4.7309,-4.7309,-4.7309,-4.7309,-4.7309,0.0,0.0,0.0,0.0,0.0,0.0,0.0,-1.8287,-1.957,-2.0367,-1.9912,-1.9404,-1.9039,-1.8896,-1.8556,0.0,0.0,0.0,0.0,0.0,0.0,0.0,0.0,-2.2296,-2.2296,0.0,0.0,0.0,0.0,0.0,0.0,0.0,0.0,0.0,0.0,0.0,0.0,0.0,0.0,0.0,0.0,0.0,0.0,0.0,0.0,0.0,0.0,-2.4677,-2.6099,-2.8975,-3.2222,-3.5436,-3.7736,-3.9208,-4.0096,-4.0096,-4.0882,-4.1847,-4.2202,-4.3132,-4.3741,-4.2574,-4.1999,-4.0849,-3.7483,0.0,0.0,-3.1125,-3.0025,-2.9279,-2.8484,-3.0513,0.0,-3.4043,-3.7245,-4.0237,-4.2226,-4.4142,-4.5592,-4.6236,-4.6905,-4.7309,-4.7309,-4.7309,0.0,0.0,0.0,0.0,-4.7309,-4.7309,-4.7309,-4.7309,-4.7309,-4.7309,-4.7309,-4.7309,-4.7309,-4.7309,-4.7309,-4.7309,-4.7309,-4.7309,-4.7309,-4.7309,0.0,0.0,-4.7309,-4.7309,-4.7309,-4.7309,-4.7309,-4.7309,-4.7309,-4.7309,-4.7309,-4.7309,0.0,0.0,0.0,0.0,0.0,0.0,0.0,-1.9087,-2.0362,-2.1867,-2.2018,-2.1516,-2.0227,-1.9688,-1.9074,0.0,0.0,0.0,0.0,0.0,0.0,0.0,0.0,0.0,0.0,0.0,0.0,0.0,0.0,0.0,0.0,0.0,0.0,0.0,0.0,0.0,0.0,0.0,0.0,0.0,0.0,0.0,0.0,0.0,0.0,0.0,0.0,0.0,-2.5964,-2.7334,-2.9751,-3.2831,-3.6417,-3.8497,-3.9639,-3.9639,-4.0908,-4.2286,-4.2286,-4.3447,-4.4242,-4.2675,-4.1745,-4.0189,-3.6265,-3.4235,-3.2324,-2.9347,-2.862,-2.8197,-2.7131,-2.9501,-3.1537,0.0,-3.4935,-3.8274,-3.9773,-4.2303,-4.4485,0.0,-4.6726,0.0,-4.7309,-4.7309,0.0,0.0,0.0,0.0,-4.7309,-4.7309,-4.7309,-4.7309,-4.7309,-4.7309,-4.7309,-4.7309,-4.7309,-4.7309,-4.7309,-4.7309,-4.7309,-4.7309,-4.7309,-4.7309,0.0,0.0,0.0,-4.7309,-4.7309,-4.7309,-4.7309,-4.7309,-4.7309,-4.7309,-4.7309,-4.7309,0.0,0.0,0.0,0.0,0.0,0.0,0.0,-2.0087,-2.1886,-2.2767,-2.3492,-2.3524,-2.2431,-2.0566,-1.9472,0.0,0.0,0.0,0.0,0.0,0.0,0.0,0.0,0.0,0.0,0.0,0.0,0.0,0.0,0.0,0.0,0.0,0.0,0.0,0.0,0.0,0.0,0.0,0.0,0.0,0.0,0.0,0.0,0.0,0.0,0.0,0.0,0.0,0.0,0.0,0.0,-2.8838,-3.1935,-3.5284,-3.8108,-3.8108,0.0,0.0,-4.2286,-4.3447,-4.4242,-4.2675,-4.1745,-4.0054,-3.5605,0.0,-3.1565,-2.8517,-2.7385,-2.7063,-2.7604,-2.8586,-2.9916,-3.1788,-3.4823,-3.7305,-3.8436,-4.2136,-4.4653,-4.4504,0.0,0.0,-4.7309,0.0,0.0,0.0,0.0,0.0,0.0,-4.7309,-4.7309,-4.7309,-4.7309,-4.7309,-4.7309,-4.7309,-4.7309,-4.7309,-4.7309,-4.7309,-4.7309,-4.7309,-4.7309,-4.7309,0.0,0.0,0.0,-4.7309,-4.7309,-4.7309,-4.7309,-4.7309,-4.7309,-4.7309,-4.7309,-4.7309,0.0,0.0,0.0,0.0,0.0,0.0,-1.8629,-2.0079,-2.1675,-2.3474,-2.3584,-2.3491,-2.3561,-2.2028,-2.08,-2.0256,0.0,0.0,0.0,0.0,0.0,0.0,0.0,0.0,0.0,0.0,0.0,0.0,0.0,0.0,0.0,0.0,0.0,0.0,0.0,0.0,0.0,0.0,0.0,0.0,0.0,0.0,0.0,0.0,0.0,0.0,0.0,0.0,0.0,0.0,0.0,0.0,-2.7368,-3.0176,0.0,0.0,-3.8684,-4.051,-4.1407,-4.2405,-4.2946,-4.1897,-4.0747,-3.892,-3.5318,-3.3038,-3.0903,-2.8331,-2.7198,-2.6793,-2.708,-2.7774,-2.8598,-2.9569,-3.1472,-3.3574,-3.5753,-3.8221,-4.0795,-4.3427,-4.4795,0.0,0.0,0.0,0.0,0.0,0.0,0.0,0.0,-4.7309,-4.7309,-4.7309,-4.7309,-4.7309,-4.7309,-4.7309,-4.7309,-4.7309,-4.7309,-4.7309,-4.7309,-4.7309,-4.7309,-4.7309,0.0,0.0,0.0,-4.7309,-4.7309,-4.7309,-4.7309,-4.7309,-4.7309,-4.7309,-4.7309,-4.7309,0.0,0.0,0.0,0.0,0.0,-1.7348,-1.8739,-2.006,-2.1602,-2.3584,-2.3566,-2.3566,-2.4135,-2.3152,-2.2123,-2.136,-2.1312,0.0,0.0,0.0,0.0,0.0,0.0,0.0,0.0,0.0,-2.2296,-2.2296,-2.2516,0.0,0.0,0.0,0.0,0.0,0.0,0.0,0.0,0.0,0.0,0.0,0.0,0.0,0.0,0.0,0.0,0.0,0.0,0.0,0.0,0.0,0.0,0.0,0.0,-2.6607,-2.9939,-3.4223,-3.6975,-3.9005,-4.0476,-4.1576,-4.2117,-4.139,-4.0087,-3.8142,-3.4912,-3.2628,-3.0497,-2.7994,-2.7063,-2.6691,-2.6691,-2.73,-2.7864,-2.8078,-2.9656,-3.1641,-3.3877,-3.59,-3.8379,0.0,0.0,0.0,0.0,0.0,0.0,0.0,0.0,0.0,0.0,-4.7309,-4.7309,-4.7309,-4.7309,-4.7309,-4.7309,-4.7309,-4.7309,-4.7309,-4.7309,-4.7309,-4.7309,-4.7309,-4.7309,0.0,0.0,0.0,0.0,-4.7309,-4.7309,-4.7309,-4.7309,-4.7309,-4.7309,-4.7309,-4.7309,-4.7309,0.0,0.0,0.0,0.0,0.0,0.0,-1.7979,-2.0197,-2.2088,-2.2896,-2.3694,-2.419,-2.419,-2.3599,-2.3183,-2.3171,-2.2211,0.0,0.0,0.0,0.0,0.0,0.0,0.0,0.0,0.0,-2.2296,-2.2296,-2.3038,-2.3021,-2.2313,0.0,0.0,0.0,0.0,0.0,0.0,0.0,0.0,0.0,0.0,0.0,0.0,0.0,0.0,0.0,0.0,0.0,0.0,0.0,0.0,0.0,0.0,-2.554,-2.7469,-3.1244,-3.4979,-3.822,-3.9707,-4.1187,-4.2117,-4.139,-4.0087,-3.8007,-3.4269,-3.2256,-3.0345,-2.7334,-2.6725,-2.6691,-2.6691,-2.73,-2.7864,-2.8078,-3.0518,-3.2651,-3.3396,-3.6454,0.0,0.0,0.0,0.0,0.0,0.0,0.0,0.0,0.0,0.0,0.0,0.0,-4.7309,-4.7309,-4.7309,-4.7309,-4.7309,-4.7309,-4.7309,-4.7309,-4.7309,-4.7309,-4.7309,-4.7309,0.0,0.0,0.0,0.0,0.0,-4.7309,-4.7309,-4.7309,-4.7309,-4.7309,-4.7309,-4.7309,-4.7309,-4.7309,0.0,0.0,0.0,0.0,0.0,0.0,0.0,-1.8775,-1.9968,-2.1914,-2.1877,-2.1896,-2.2492,-2.2452,-2.2466,-2.2712,-2.2327,0.0,0.0,0.0,0.0,0.0,0.0,0.0,0.0,-2.2296,-2.2547,-2.3054,-2.3291,-2.3528,-2.3814,-2.3528,-2.3274,0.0,0.0,0.0,0.0,0.0,0.0,0.0,0.0,0.0,0.0,0.0,0.0,0.0,0.0,0.0,0.0,0.0,0.0,0.0,0.0,0.0,0.0,-2.769,-3.1142,-3.4269,-3.5267,-3.6231,-3.6789,-3.6045,-3.552,-3.4472,-3.1765,-3.0784,-2.9736,-2.7215,-2.6691,-2.6691,-2.6691,-2.6894,-2.7431,-2.8578,-2.9945,-3.1464,0.0,0.0,0.0,0.0,0.0,0.0,0.0,0.0,0.0,0.0,0.0,0.0,0.0,0.0,-4.7309,-4.7309,-4.7309,-4.7309,-4.7309,-4.7309,-4.7309,-4.7309,-4.7309,-4.7309,-4.7309,-4.7309,0.0,0.0,0.0,0.0,0.0,-4.7309,-4.7309,-4.7309,-4.7309,-4.7309,-4.7309,-4.7309,-4.7309,-4.7309,0.0,0.0,0.0,0.0,0.0,0.0,0.0,-1.8163,-1.9216,-2.107,-2.1125,-2.1198,-2.1739,-2.203,-2.2271,-2.2479,-2.2598,0.0,0.0,0.0,0.0,0.0,0.0,0.0,-2.2296,-2.2296,-2.2651,-2.3393,-2.3951,-2.4323,-2.4491,-2.4609,-2.4188,-2.3376,-2.2919,0.0,0.0,0.0,0.0,0.0,0.0,0.0,0.0,0.0,0.0,0.0,0.0,0.0,0.0,0.0,0.0,0.0,0.0,0.0,0.0,0.0,-2.7486,-3.0226,-3.2391,-3.3525,-3.3964,-3.3508,-3.3186,-3.2476,-3.0548,-2.9888,-2.9127,-2.7097,-2.6573,-2.6487,-2.6674,-2.6774,-2.7197,-2.8211,-2.9379,-3.0741,0.0,0.0,0.0,0.0,0.0,0.0,0.0,0.0,0.0,0.0,0.0,0.0,0.0,0.0,-4.7309,-4.7309,-4.7309,-4.7309,-4.7309,-4.7309,-4.7309,-4.7309,-4.7309,-4.7309,-4.7309,0.0,0.0,0.0,0.0,0.0,0.0,-4.7309,-4.7309,-4.7309,-4.7309,-4.7309,-4.7309,-4.7309,-4.7309,-4.7309,0.0,0.0,0.0,0.0,0.0,0.0,0.0,-1.8133,-1.9418,-2.0217,-2.1088,-2.161,-2.161,-2.2087,-2.2396,-2.2417,0.0,0.0,0.0,0.0,0.0,0.0,0.0,0.0,-2.2296,-2.2296,-2.2699,-2.3477,-2.4898,-2.5304,-2.4762,-2.6149,-2.5625,-2.3545,-2.3494,-2.3038,0.0,0.0,0.0,0.0,0.0,0.0,0.0,0.0,0.0,0.0,0.0,0.0,0.0,0.0,0.0,0.0,0.0,0.0,0.0,0.0,0.0,0.0,0.0,-3.2307,-3.2916,-3.2865,-3.2408,-3.1616,-3.0192,-2.9364,0.0,-2.7013,-2.6349,-2.6241,-2.6826,-2.705,-2.726,-2.7598,-2.9162,-3.0642,0.0,0.0,0.0,0.0,0.0,0.0,0.0,0.0,0.0,0.0,0.0,0.0,0.0,0.0,0.0,-4.7309,-4.7309,-4.7309,-4.7309,-4.7309,-4.7309,-4.7309,-4.7309,-4.7309,-4.7309,0.0,0.0,0.0,0.0,0.0,0.0,-4.7309,-4.7309,-4.7309,-4.7309,-4.7309,-4.7309,-4.7309,-4.7309,-4.7309,0.0,0.0,0.0,0.0,0.0,0.0,0.0,0.0,0.0,0.0,-1.9381,-1.9885,-1.9885,-2.0667,-2.1309,0.0,0.0,0.0,0.0,0.0,0.0,0.0,0.0,0.0,-2.2296,-2.2296,-2.2936,-2.4237,-2.5152,-2.6099,-2.7029,-2.7384,-2.6657,-2.5067,-2.4491,-2.3526,0.0,0.0,0.0,0.0,0.0,0.0,0.0,0.0,0.0,0.0,0.0,-2.2296,0.0,0.0,0.0,0.0,0.0,0.0,0.0,0.0,-2.3646,-2.4272,-2.5895,0.0,-2.8129,-2.7571,-2.8145,-2.8619,0.0,-2.7807,-2.7824,-2.6894,-2.6607,-2.7095,-2.8956,-2.8376,-2.8597,-3.1534,-3.1865,-3.2212,0.0,0.0,0.0,0.0,0.0,0.0,0.0,0.0,0.0,0.0,0.0,0.0,0.0,0.0,0.0,-4.7309,-4.7309,-4.7309,-4.7309,-4.7309,-4.7309,-4.7309,-4.7309,-4.7309,-4.7309,0.0,0.0,0.0,0.0,0.0,0.0,-4.7309,-4.7309,-4.7309,-4.7309,-4.7309,-4.7309,-4.7309,-4.7309,-4.7309,0.0,0.0,0.0,0.0,0.0,0.0,0.0,0.0,0.0,0.0,0.0,-1.9297,-1.9297,-2.0318,0.0,0.0,0.0,0.0,0.0,0.0,0.0,0.0,0.0,-2.2296,-2.2296,-2.2296,-2.3021,-2.4491,-2.5236,-2.6353,-2.7807,-2.7807,-2.7012,-2.5541,-2.412,-2.3054,0.0,0.0,0.0,0.0,0.0,0.0,0.0,0.0,0.0,0.0,-2.2296,-2.2296,0.0,-2.3528,-2.3678,-2.346,0.0,0.0,0.0,0.0,-2.2902,-2.2987,-2.3376,-2.5304,-2.7114,-2.6708,-2.7503,-2.8247,-2.7859,-2.752,-2.7182,-2.6776,-2.6539,-2.6835,-2.8352,-2.8254,-2.8737,-3.1173,-3.1967,0.0,0.0,0.0,0.0,0.0,0.0,0.0,0.0,0.0,0.0,0.0,0.0,0.0,0.0,0.0,0.0,0.0,-4.7309,-4.7309,-4.7309,-4.7309,-4.7309,-4.7309,-4.7309,-4.7309,-4.7309,0.0,0.0,0.0,0.0,0.0,-4.7309,-4.7309,-4.7309,-4.7309,-4.7309,-4.7309,-4.7309,-4.7309,-4.7309,-4.7309,0.0,0.0,0.0,0.0,0.0,0.0,0.0,0.0,0.0,0.0,0.0,0.0,0.0,0.0,0.0,0.0,0.0,0.0,0.0,0.0,0.0,0.0,-2.2296,-2.2347,-2.2465,-2.2347,-2.3021,-2.4491,-2.5456,-2.6573,-2.7824,-2.8263,-2.7503,-2.5693,-2.3579,-2.2513,0.0,0.0,0.0,0.0,0.0,0.0,0.0,0.0,0.0,0.0,0.0,0.0,0.0,-2.3731,-2.3898,-2.3644,-2.4051,0.0,0.0,0.0,0.0,0.0,-2.2702,-2.5339,-2.7874,-2.7401,-2.823,-2.9111,-2.8874,-2.791,-2.7046,-2.7046,-2.6648,-2.6619,-2.7561,-2.8114,0.0,0.0,0.0,0.0,0.0,0.0,0.0,0.0,0.0,0.0,0.0,0.0,0.0,0.0,0.0,0.0,0.0,0.0,0.0,0.0,-4.7309,-4.7309,-4.7309,-4.7309,-4.7309,-4.7309,-4.7309,-4.7309,-4.7309,-4.7309,0.0,0.0,0.0,0.0,-4.7309,-4.7309,-4.7309,-4.7309,-4.7309,-4.7309,-4.7309,-4.7309,-4.7309,-4.7309,0.0,0.0,0.0,0.0,0.0,0.0,0.0,0.0,0.0,0.0,0.0,0.0,0.0,0.0,0.0,0.0,0.0,0.0,0.0,0.0,0.0,-2.2307,-2.2296,-2.2584,-2.3224,-2.2632,-2.3021,-2.4491,-2.6505,-2.7587,-2.7858,-3.0412,-2.9786,-2.6454,-2.488,-2.346,-2.2296,-2.2296,0.0,0.0,0.0,0.0,0.0,0.0,0.0,0.0,0.0,0.0,0.0,-2.2564,-2.3393,-2.4135,-2.3004,0.0,0.0,0.0,0.0,0.0,-2.4578,-2.6911,-2.8197,-2.5642,-2.7486,-2.96,-2.828,-2.8332,-2.8654,-2.8654,-2.8181,-2.8556,-3.1101,-3.0642,-3.0914,0.0,0.0,0.0,0.0,0.0,0.0,0.0,0.0,0.0,0.0,0.0,0.0,0.0,0.0,0.0,0.0,0.0,0.0,0.0,0.0,-4.7309,-4.7309,-4.7309,-4.7309,-4.7309,-4.7309,-4.7309,-4.7309,-4.7309,-4.7309,0.0,0.0,0.0,-4.7309,-4.7309,-4.7309,-4.7309,-4.7309,-4.7309,-4.7309,-4.7309,-4.7309,-4.7309,0.0,0.0,0.0,0.0,0.0,0.0,0.0,0.0,0.0,0.0,0.0,0.0,0.0,0.0,0.0,0.0,0.0,0.0,0.0,0.0,-2.2573,-2.231,-2.2296,-2.2649,-2.3376,-2.346,-2.422,-2.5692,-2.7537,-2.8653,-2.9041,-2.9194,-2.7927,-2.5455,-2.3983,-2.2936,-2.2296,-2.2296,-2.2296,0.0,0.0,0.0,0.0,0.0,0.0,0.0,0.0,0.0,0.0,0.0,-2.3611,-2.4305,-2.3224,0.0,0.0,0.0,0.0,0.0,-2.353,-2.5744,-2.7436,-2.6048,-2.8805,-3.1816,-3.1495,-3.1089,-3.0787,-3.0787,-3.0282,-3.0238,0.0,0.0,-3.2385,-3.5568,0.0,0.0,0.0,0.0,0.0,0.0,0.0,0.0,0.0,0.0,0.0,0.0,0.0,0.0,0.0,0.0,0.0,0.0,0.0,0.0,-4.6217,-4.6591,-4.695,-4.7309,-4.7309,-4.7309,-4.7309,-4.7309,-4.7309,0.0,0.0,-4.7309,-4.7309,-4.7309,-4.7309,-4.7309,-4.7309,-4.7309,-4.7309,-4.7309,-4.7309,-4.7309,0.0,0.0,0.0,0.0,0.0,0.0,0.0,0.0,0.0,0.0,0.0,0.0,0.0,0.0,0.0,0.0,0.0,0.0,0.0,-2.2073,-2.2339,-2.2293,-2.2296,-2.2733,-2.3644,-2.4203,-2.5218,-2.6691,-2.8417,-2.9634,-3.0311,-2.8213,-2.6352,-2.4694,-2.3393,-2.2617,-2.2296,-2.2296,-2.2296,0.0,0.0,0.0,0.0,0.0,0.0,0.0,0.0,0.0,0.0,0.0,0.0,0.0,0.0,0.0,0.0,-2.2682,-2.2296,-2.24,-2.282,-2.4785,-2.6793,-2.723,-2.9998,-3.2916,-3.3998,-3.3098,-3.2165,-3.2723,-3.2144,-3.1604,0.0,-3.2633,0.0,0.0,0.0,0.0,0.0,0.0,0.0,0.0,0.0,0.0,0.0,0.0,0.0,0.0,0.0,0.0,0.0,0.0,0.0,0.0,0.0,0.0,-4.5289,-4.5813,-4.6411,-4.707,-4.7234,-4.7309,-4.7309,-4.7309,-4.7309,-4.7309,-4.7309,-4.7309,-4.7309,-4.7309,-4.7309,-4.7309,-4.7309,-4.7309,-4.7309,-4.7309,-4.7309,-4.7309,0.0,0.0,0.0,0.0,0.0,0.0,0.0,0.0,0.0,0.0,0.0,0.0,0.0,0.0,0.0,0.0,0.0,0.0,0.0,-2.1553,-2.1607,-2.2262,-2.2296,-2.297,-2.4389,-2.4474,-2.5218,-2.6691,-2.8941,-3.0395,-3.1089,-2.9551,-2.7656,-2.549,-2.4694,-2.3579,-2.2296,-2.2296,-2.2296,-2.2296,-2.2296,0.0,0.0,0.0,0.0,0.0,0.0,0.0,0.0,0.0,0.0,0.0,0.0,0.0,-2.3325,-2.2533,-2.2296,-2.2664,-2.4348,-2.5732,-2.7096,-2.8793,-2.9789,-3.0903,-3.3,-3.229,-3.1796,-3.3902,-3.324,-3.2513,0.0,-3.4881,0.0,0.0,0.0,0.0,0.0,0.0,0.0,0.0,0.0,0.0,0.0,0.0,0.0,0.0,0.0,0.0,0.0,0.0,0.0,0.0,0.0,0.0,-4.5289,-4.5349,-4.5723,-4.6396,-4.701,-4.7309,-4.7309,-4.7309,-4.7309,-4.7309,-4.7309,-4.7309,-4.7309,-4.7309,-4.7309,-4.7309,-4.7309,-4.7309,-4.7309,-4.7309,-4.7309,-4.7309,0.0,0.0,0.0,0.0,0.0,0.0,0.0,0.0,0.0,0.0,0.0,0.0,0.0,0.0,0.0,0.0,0.0,0.0,0.0,-2.0973,-2.1326,-2.16,-2.2057,-2.2784,-2.3797,-2.5168,-2.6623,-2.813,-2.9448,-3.0243,-3.0463,-2.8027,-2.6184,-2.4847,-2.3663,-2.3071,-2.2953,-2.2482,-2.2564,-2.2936,-2.2482,0.0,0.0,0.0,0.0,0.0,0.0,0.0,0.0,0.0,-2.2801,-2.3274,-2.2533,-2.2818,-2.3197,-2.216,-2.2061,-2.238,-2.2775,-2.4744,-2.6965,-2.8126,-2.9579,-3.1432,-3.4144,-3.435,-3.4561,-3.6725,-3.57,-3.4335,-3.4121,0.0,0.0,0.0,0.0,0.0,0.0,0.0,0.0,0.0,0.0,0.0,0.0,0.0,0.0,0.0,0.0,0.0,0.0,0.0,0.0,0.0,0.0,0.0,0.0,-4.4481,-4.4825,-4.508,-4.5738,-4.6052,-4.6052,-4.6052,-4.6052,-4.6052,-4.6052,-4.6052,-4.6052,-4.6052,-4.6052,-4.6052,-4.6052,-4.6322,-4.6696,-4.6696,-4.6696,-4.6696,0.0,0.0,0.0,0.0,0.0,0.0,0.0,0.0,0.0,0.0,0.0,0.0,0.0,0.0,0.0,0.0,0.0,0.0,-1.9679,-2.0199,-2.0683,-2.1173,-2.1684,-2.2412,-2.3376,-2.5101,-2.6759,-2.8282,-2.9262,-2.9499,-2.8991,-2.6911,-2.5423,-2.444,-2.319,-2.2936,-2.3342,-2.2615,-2.2584,-2.3004,-2.2499,-2.2296,0.0,0.0,0.0,0.0,0.0,0.0,0.0,0.0,-2.2649,-2.297,-2.2448,-2.2649,-2.2878,-2.2063,-2.2381,-2.2899,-2.246,-2.4479,-2.6912,-2.7759,-2.9569,-3.1946,-3.4925,-3.5268,-3.5684,-3.8277,-3.7245,-3.5736,-3.5228,0.0,0.0,0.0,0.0,0.0,0.0,0.0,0.0,0.0,0.0,0.0,0.0,0.0,0.0,0.0,0.0,0.0,0.0,0.0,0.0,0.0,0.0,0.0,0.0,-4.3738,-4.3962,-4.4003,-4.4466,-4.4885,-4.5289,-4.5289,-4.5289,-4.5289,-4.5289,-4.5289,-4.5289,-4.5289,-4.5289,-4.5289,-4.5289,-4.5589,-4.5992,-4.5992,-4.5992,-4.5992,0.0,0.0,0.0,0.0,0.0,0.0,0.0,0.0,0.0,0.0,0.0,0.0,0.0,0.0,0.0,0.0,0.0,0.0,-1.9644,-1.9183,-1.9582,-2.1123,-2.119,-2.1884,-2.3359,-2.4118,-2.5218,-2.6691,-2.8231,-2.8197,-2.6691,-2.6674,-2.5895,-2.4457,-2.3729,-2.3393,-2.3342,-2.2615,-2.2296,-2.2313,-2.2296,-2.2296,-2.2296,0.0,0.0,0.0,0.0,0.0,0.0,0.0,-2.2296,-2.2296,-2.2296,-2.2296,-2.2313,-2.2296,-2.3342,-2.4381,-2.3983,-2.5263,-2.696,-2.8058,-2.9844,-3.21,-3.4959,-3.4415,-3.4366,-3.8009,-3.7558,-3.6507,-3.6492,-3.7,0.0,0.0,0.0,0.0,0.0,0.0,0.0,0.0,0.0,0.0,0.0,0.0,0.0,0.0,0.0,0.0,0.0,0.0,0.0,0.0,0.0,0.0,0.0,-4.329,-4.329,-4.329,-4.329,-4.4018,-4.5274,-4.5274,-4.5274,-4.5274,-4.5274,-4.5274,-4.5274,-4.5274,-4.5274,-4.5274,-4.5274,-4.5274,-4.5289,-4.5289,-4.5289,-4.5289,0.0,0.0,0.0,0.0,0.0,0.0,0.0,0.0,0.0,0.0,0.0,0.0,0.0,0.0,0.0,0.0,0.0,0.0,-1.8644,-1.8796,-1.9333,-2.0302,-2.0903,-2.1647,-2.2615,-2.3342,-2.4711,-2.6691,-2.7165,-2.6877,-2.5913,-2.5405,-2.4643,-2.3729,-2.3509,-2.3393,-2.3342,-2.2615,-2.2598,-2.3038,-2.2513,-2.2296,-2.2296,0.0,0.0,0.0,0.0,0.0,0.0,0.0,0.0,0.0,-2.2296,-2.2665,-2.2851,-2.1717,-2.2272,-2.3139,-2.2736,-2.481,-2.7454,-2.9161,-3.1955,-3.4683,-3.6075,-3.561,-3.534,-3.6887,-3.7537,-3.7689,-3.7225,0.0,0.0,0.0,0.0,0.0,0.0,0.0,0.0,0.0,0.0,0.0,0.0,0.0,0.0,0.0,0.0,0.0,0.0,0.0,0.0,0.0,0.0,0.0,0.0,0.0,-4.288,-4.329,-4.329,-4.3499,-4.3873,-4.3873,-4.3873,-4.3873,-4.3873,-4.3873,-4.3873,-4.3873,-4.3873,-4.3873,-4.3873,-4.4197,-4.4601,-4.4601,-4.4601,-4.4601,0.0,0.0,0.0,0.0,0.0,0.0,0.0,0.0,0.0,0.0,-1.9297,-1.9297,0.0,0.0,0.0,0.0,0.0,0.0,0.0,-1.8375,-1.8915,-1.9951,-2.0454,-2.1228,-2.2279,-2.3021,-2.39,-2.4949,-2.5541,-2.5439,-2.4729,-2.4864,-2.4541,-2.3864,-2.4137,-2.4103,-2.3797,-2.3054,-2.2835,-2.2919,-2.2482,-2.2296,-2.2296,0.0,0.0,0.0,0.0,0.0,0.0,0.0,0.0,0.0,-2.2296,-2.2483,-2.2592,-2.2091,-2.2733,-2.372,-2.4263,-2.6349,-2.8923,-3.1316,-3.3745,-3.5868,-3.6894,-3.674,0.0,0.0,-3.7285,-3.7883,-3.7479,0.0,0.0,0.0,0.0,0.0,0.0,0.0,0.0,0.0,0.0,0.0,0.0,0.0,0.0,0.0,0.0,0.0,0.0,0.0,0.0,0.0,0.0,0.0,0.0,0.0,0.0,-4.2566,-4.2821,-4.294,-4.2955,-4.317,-4.329,-4.329,-4.329,-4.329,-4.329,-4.329,-4.329,-4.329,-4.329,-4.3544,-4.3888,-4.3888,-4.3888,-4.3888,0.0,0.0,0.0,0.0,0.0,0.0,0.0,0.0,0.0,0.0,-1.9297,-1.9297,0.0,0.0,0.0,0.0,0.0,0.0,0.0,-1.7938,-1.8459,-1.9934,-2.0137,-2.0876,-2.2262,-2.297,-2.297,-2.2296,-2.3712,-2.4017,-2.3325,-2.4814,-2.5101,-2.4423,-2.5169,-2.5084,-2.4355,-2.3613,-2.2919,-2.2296,-2.2296,-2.2296,-2.2296,-2.2296,0.0,0.0,0.0,0.0,0.0,0.0,0.0,0.0,-2.2209,-2.1963,-2.1888,-2.2835,-2.393,-2.5235,-2.7078,-2.878,-3.0737,-3.3756,-3.5094,0.0,-3.7484,-3.7617,-3.7242,-3.6628,0.0,-3.7404,0.0,0.0,0.0,0.0,0.0,0.0,0.0,0.0,0.0,0.0,0.0,0.0,0.0,0.0,0.0,0.0,0.0,0.0,0.0,0.0,0.0,0.0,0.0,0.0,0.0,0.0,0.0,0.0,-4.2021,-4.2306,-4.2336,-4.3015,-4.329,-4.329,-4.329,-4.329,-4.329,-4.329,-4.329,-4.329,-4.329,-4.329,-4.329,-4.329,-4.329,-4.329,0.0,0.0,0.0,0.0,0.0,0.0,0.0,0.0,0.0,0.0,0.0,0.0,0.0,0.0,0.0,0.0,0.0,0.0,0.0,-1.7833,-1.8459,-1.9934,-2.1164,-2.1958,-2.2296,-2.2462,-2.2448,-2.2296,-2.319,-2.3257,-2.2567,-2.4036,-2.4338,-2.3663,-2.4406,-2.4338,-2.3594,-2.2852,-2.2448,-2.2296,-2.2296,-2.2296,-2.2296,-2.2296,-2.2296,0.0,0.0,0.0,0.0,0.0,0.0,0.0,-2.1508,-2.1805,-2.2276,-2.1262,-2.2208,-2.3808,-2.4867,-2.7324,0.0,-3.304,-3.5084,-3.6622,-3.7575,-3.6831,-3.6062,-3.6405,-3.6985,0.0,0.0,0.0,0.0,0.0,0.0,0.0,0.0,0.0,0.0,0.0,0.0,0.0,0.0,0.0,0.0,0.0,0.0,0.0,0.0,0.0,0.0,0.0,0.0,0.0,-4.0606,-4.0606,-4.0876,0.0,-4.1572,-4.1632,-4.1624,-4.2791,-4.329,-4.329,-4.329,-4.329,-4.329,-4.329,-4.329,-4.329,-4.329,-4.329,-4.329,-4.329,-4.329,-4.329,0.0,0.0,0.0,0.0,0.0,0.0,0.0,0.0,0.0,0.0,0.0,0.0,0.0,0.0,0.0,0.0,0.0,0.0,0.0,-1.7861,-1.8459,-1.9934,-2.1143,-2.1769,-2.1769,-2.1769,-2.1769,-2.1769,-2.2155,-2.2327,-2.233,-2.3814,-2.4288,-2.3966,-2.4711,-2.4626,-2.3881,-2.3139,-2.2617,-2.2296,-2.2296,-2.2296,-2.2262,-2.1904,-2.1989,-2.2245,-2.1904,0.0,0.0,0.0,0.0,0.0,0.0,0.0,-2.1794,-2.1305,-2.1726,-2.2812,-2.4808,0.0,0.0,-3.4054,0.0,-3.7263,-3.769,-3.6874,-3.6017,-3.6037,0.0,0.0,0.0,0.0,0.0,0.0,0.0,0.0,0.0,0.0,0.0,0.0,0.0,0.0,0.0,0.0,0.0,0.0,0.0,0.0,0.0,0.0,0.0,0.0,0.0,0.0,-3.9933,-3.9933,-4.0113,-4.0442,-4.0756,-4.107,-4.1414,-4.2417,-4.2865,-4.2895,-4.3155,-4.329,-4.329,-4.329,-4.329,-4.329,-4.329,-4.329,-4.329,-4.329,-4.329,-4.329,0.0,0.0,0.0,0.0,0.0,0.0,0.0,0.0,0.0,0.0,0.0,0.0,0.0,0.0,0.0,0.0,0.0,0.0,0.0,-1.8068,-1.8527,-1.9761,-2.0568,-2.0987,-2.0987,-2.0987,-2.1055,-2.119,-2.1055,-2.1566,-2.2716,-2.3932,-2.4491,-2.4525,-2.5135,-2.5,-2.4254,-2.3391,-2.2665,-2.2107,-2.1958,-2.1907,-2.184,-2.1241,-2.1363,-2.1823,-2.1211,-2.1209,-2.158,-2.1891,0.0,0.0,0.0,0.0,-2.0989,-2.1529,-2.1609,-2.2139,-2.5076,0.0,-3.0132,-3.5324,-3.7123,0.0,-3.7616,-3.7084,-3.6384,0.0,0.0,0.0,0.0,0.0,0.0,0.0,0.0,0.0,0.0,0.0,0.0,0.0,0.0,0.0,0.0,0.0,0.0,0.0,0.0,0.0,0.0,0.0,0.0,0.0,0.0,-3.9388,-3.9388,-3.9388,-3.9388,-3.9388,-3.9963,-4.0516,-4.107,-4.1767,-4.2126,-4.2261,-4.2761,-4.2961,-4.2961,-4.308,-4.3125,-4.3125,-4.3245,-4.329,-4.329,-4.329,-4.329,-4.329,0.0,0.0,0.0,0.0,0.0,0.0,0.0,0.0,0.0,0.0,-1.915,-1.9026,-1.8992,-1.8789,0.0,0.0,0.0,0.0,-1.8198,0.0,0.0,-1.9046,-1.9761,-2.0166,-2.0166,-2.0166,-2.05,-2.119,-2.05,-2.1552,-2.4203,-2.4406,-2.4491,-2.4491,-2.4609,-2.4237,-2.346,-2.2087,-2.1444,-2.1292,-2.0589,-2.0318,-2.0289,-2.02,-2.0221,-2.0289,-2.02,-2.063,-2.1204,-2.086,-2.113,0.0,0.0,0.0,0.0,-2.0089,-2.0707,-2.1828,-2.3323,0.0,-3.1644,0.0,-3.6396,-3.6839,0.0,0.0,0.0,0.0,0.0,0.0,0.0,0.0,0.0,0.0,0.0,0.0,0.0,0.0,0.0,0.0,0.0,0.0,0.0,0.0,0.0,0.0,0.0,0.0,0.0,0.0,-3.9388,-3.9388,-3.9388,0.0,-3.9388,-3.9388,-3.9388,-3.9388,-3.9514,-3.9589,-3.9709,-4.0367,-4.0965,-4.1557,-4.1609,-4.1639,-4.1683,-4.2291,-4.253,-4.259,-4.312,-4.329,-4.329,-4.329,-4.329,-4.329,0.0,0.0,0.0,0.0,0.0,0.0,0.0,0.0,0.0,0.0,0.0,-1.901,-1.901,-1.8761,0.0,0.0,0.0,0.0,-1.7992,-1.8167,0.0,-1.8877,-1.9215,-1.9372,-1.9372,-1.9372,-1.9553,-1.9904,-1.9553,-2.1143,-2.4491,-2.4491,-2.5168,-2.6319,-2.549,-2.4932,-2.4475,-2.2189,-2.119,-2.1123,-2.0318,-2.0775,-2.1721,-2.0031,-2.0433,-2.1671,-1.998,-1.9735,-2.0264,-2.0719,-2.0786,-2.0649,-2.0686,0.0,0.0,0.0,-1.925,-1.9969,-2.2722,-2.626,-2.9979,0.0,-3.4837,-3.5773,-3.655,0.0,0.0,0.0,0.0,0.0,0.0,0.0,0.0,0.0,0.0,0.0,0.0,0.0,0.0,0.0,0.0,0.0,0.0,0.0,0.0,0.0,0.0,0.0,0.0,-3.8287,-3.8287,-3.8287,-3.8287,0.0,-3.8841,-3.8841,-3.9035,-3.9388,-3.9388,-3.9388,-3.9388,-3.9723,-4.0217,-4.0846,-4.122,-4.1422,-4.1399,-4.1737,-4.1856,-4.1916,-4.2536,-4.2791,-4.2836,-4.317,-4.329,-4.329,0.0,0.0,0.0,0.0,0.0,0.0,0.0,0.0,0.0,0.0,0.0,0.0,-1.8905,0.0,0.0,0.0,0.0,0.0,-1.7822,0.0,0.0,0.0,-1.8623,-1.8623,-1.8623,-1.8623,-1.8707,-1.8894,-1.8894,-2.0818,-2.4491,-2.4491,-2.5879,-2.8314,-2.6826,-2.5862,-2.5169,-2.2767,-2.1766,-2.1698,-2.0893,-2.1603,-2.2919,-2.1038,-2.1732,-2.3325,-2.0703,-2.0049,-2.0467,-2.0887,-2.0646,-2.0241,0.0,0.0,0.0,0.0,0.0,0.0,0.0,0.0,-2.7315,-3.0706,-3.2772,-3.4262,0.0,0.0,0.0,0.0,0.0,0.0,0.0,0.0,0.0,0.0,0.0,0.0,0.0,0.0,0.0,0.0,0.0,0.0,0.0,0.0,0.0,0.0,0.0,0.0,-3.7404,-3.7404,-3.7404,-3.7404,-3.7404,-3.7644,-3.8138,-3.8302,-3.8646,-3.9155,-3.9298,-3.9388,-3.9388,-3.9388,-3.9694,-4.0172,-4.0666,-4.0876,-4.0891,-4.107,-4.113,-4.119,-4.1886,-4.2156,-4.2216,-4.2656,-4.294,-4.309,0.0,0.0,0.0,0.0,0.0,0.0,0.0,0.0,0.0,0.0,0.0,0.0,-1.8614,-1.8381,-1.832,-1.8576,-1.8351,0.0,0.0,0.0,0.0,0.0,0.0,0.0,-1.785,-1.785,-1.82,-1.8894,-1.8894,-2.0818,-2.4491,-2.4491,-2.6454,-2.9922,-2.8365,-2.6522,-2.4508,-2.3661,-2.3274,-2.3224,-2.2479,-2.2245,-2.2496,-2.3746,-2.4305,-2.4237,-2.2682,-2.2584,-2.2931,-2.113,-2.0719,-2.0767,-1.9781,-1.9138,-1.8669,0.0,0.0,0.0,0.0,-2.2449,0.0,-2.7612,-3.0154,0.0,0.0,0.0,0.0,0.0,0.0,0.0,0.0,0.0,0.0,0.0,0.0,0.0,0.0,0.0,0.0,0.0,0.0,0.0,0.0,0.0,0.0,0.0,0.0,0.0,-3.7375,-3.7404,-3.7404,-3.7404,-3.7404,-3.7419,-3.7464,-3.8078,-3.8407,-3.8452,-3.911,-3.9388,-3.9388,-3.9388,-3.9403,-3.9433,-3.9514,-3.9514,-3.9574,-4.0187,-4.0442,-4.0516,-4.1175,-4.1467,-4.1482,-4.1474,-4.1916,-4.2455,0.0,0.0,0.0,0.0,0.0,0.0,0.0,0.0,0.0,0.0,0.0,0.0,0.0,-1.8631,-1.843,-1.8351,-1.811,0.0,0.0,0.0,0.0,0.0,0.0,0.0,-1.78,-1.78,-1.7918,-1.82,-1.82,-1.9875,-2.3088,-2.3088,-2.4306,-2.6505,-2.642,-2.6471,-2.642,-2.3323,-2.226,-2.2682,-2.2398,-2.3141,-2.4409,-2.4474,-2.5388,-2.637,-2.4408,-2.3274,-2.2608,-2.2092,-2.1191,-2.0194,-1.9592,-1.8785,-1.7881,-1.6925,-1.7349,-1.8343,0.0,0.0,0.0,-2.475,-2.7154,-2.9369,0.0,0.0,0.0,0.0,0.0,0.0,0.0,0.0,0.0,0.0,0.0,0.0,0.0,0.0,0.0,0.0,0.0,0.0,0.0,0.0,0.0,0.0,0.0,0.0,-3.6178,-3.6193,-3.6193,-3.6193,-3.6193,-3.6387,-3.6806,-3.7449,-3.7764,-3.7764,-3.8018,-3.8347,-3.8751,-3.8751,-3.899,-3.9388,-3.9388,-3.9388,-3.9439,-3.9679,-3.9768,-3.9828,-4.0502,-4.0756,-4.0801,-4.122,-4.1572,-4.1826,0.0,0.0,0.0,0.0,0.0,0.0,0.0,0.0,-1.6642,-1.6682,0.0,0.0,0.0,0.0,-1.8259,-1.8072,-1.7894,-1.78,-1.78,-1.78,0.0,0.0,0.0,0.0,-1.78,-1.78,-1.7693,-1.7439,-1.7929,-1.9198,-2.1164,-2.1701,-2.2852,-2.4491,-2.4239,-2.5084,-2.6539,-2.4069,-2.319,-2.3446,-2.3953,-2.5035,-2.6404,-2.6928,-2.7875,-2.8721,-2.6996,-2.5592,-2.4481,-2.4,-2.2671,-2.1134,-2.0543,-1.9233,-1.7652,-1.623,-1.6728,-1.7853,-1.8426,0.0,0.0,0.0,0.0,0.0,0.0,0.0,0.0,0.0,0.0,0.0,0.0,0.0,0.0,0.0,0.0,0.0,0.0,0.0,0.0,0.0,0.0,0.0,0.0,0.0,0.0,0.0,0.0,0.0,-3.5504,-3.5504,-3.5504,-3.5504,-3.5504,-3.5714,-3.6148,-3.6791,-3.7105,-3.7105,-3.73,-3.7644,-3.8063,-3.8063,-3.8437,-3.9065,-3.9065,-3.92,-3.9388,-3.9388,-3.9388,-3.9433,-3.9903,-4.0068,-4.0127,-4.0561,-4.0861,-4.1115,0.0,0.0,0.0,0.0,0.0,0.0,0.0,0.0,-1.6769,-1.6386,0.0,0.0,0.0,0.0,0.0,-1.7834,-1.7834,-1.7817,-1.78,-1.78,-1.78,0.0,0.0,0.0,-1.78,-1.78,-1.7456,-1.6733,-1.8178,-1.8877,-1.8927,-2.0429,-2.229,-2.4271,-2.2155,-2.2375,-2.4457,-2.5929,-2.6167,-2.5711,-2.7148,-2.7773,-2.8196,-3.1106,-3.1836,-3.1173,-3.0463,-2.9702,0.0,-2.6842,0.0,-2.3737,-2.2523,-2.0428,-1.8062,-1.6368,-1.6801,-1.7912,0.0,0.0,0.0,0.0,0.0,0.0,0.0,0.0,0.0,0.0,0.0,0.0,0.0,0.0,0.0,0.0,0.0,0.0,0.0,0.0,0.0,0.0,0.0,0.0,0.0,0.0,0.0,0.0,0.0,-3.5504,-3.5504,-3.5504,-3.5504,-3.5504,-3.5504,-3.5504,-3.5504,-3.6148,-3.6462,-3.6462,-3.706,-3.736,-3.7375,-3.7375,-3.7749,-3.8362,-3.8362,-3.8751,-3.9394,-3.9373,-3.9388,-3.9388,-3.9388,-3.9388,-3.9388,-3.9388,-3.9828,-4.0367,0.0,0.0,0.0,0.0,0.0,-1.7561,-1.6901,-1.7191,-1.7436,0.0,0.0,0.0,-1.8383,-1.8476,-1.8589,-1.8589,-1.8589,-1.8369,-1.7834,-1.78,-1.78,-1.78,-1.78,-1.78,-1.78,-1.78,-1.7698,-1.7507,-1.7901,-1.8386,-1.891,-1.9345,-2.0145,-2.1231,-2.1224,-2.1224,-2.1316,-2.2293,-2.3833,-2.5592,-2.5456,-2.7046,-2.9548,-3.0395,-3.1579,-3.2763,0.0,-3.1664,-3.0391,0.0,-2.7145,-2.4954,-2.1931,-1.9783,-1.8244,-1.7409,-1.7784,-1.8368,-1.8015,0.0,0.0,0.0,0.0,0.0,0.0,0.0,0.0,0.0,0.0,0.0,0.0,0.0,0.0,0.0,0.0,0.0,0.0,0.0,0.0,0.0,0.0,0.0,0.0,0.0,0.0,0.0,0.0,-3.5504,-3.5504,-3.5504,-3.5504,-3.5504,-3.5504,-3.5504,-3.5504,-3.5684,-3.5774,-3.5774,-3.5953,-3.6282,-3.6746,-3.6746,-3.709,-3.7689,-3.7689,-3.8063,-3.8706,-3.9215,-3.9388,-3.9388,-3.9388,-3.9388,-3.9388,-3.9388,-3.9529,-3.9768,0.0,0.0,0.0,-1.9043,-1.8831,-1.8533,-1.8348,-1.8288,-1.8219,0.0,0.0,0.0,-1.8531,-1.9005,-1.9367,-1.9367,-1.908,-1.8589,-1.785,-1.7507,-1.7337,-1.7337,-1.7337,-1.749,-1.7783,-1.78,-1.7659,-1.7337,-1.7659,-1.7862,-1.7991,-1.8302,-1.8831,-1.9541,-1.9705,-1.9858,-2.0002,-2.0162,-2.1786,-2.4308,-2.5423,-2.7385,-2.9786,-3.1021,-3.229,0.0,0.0,0.0,-3.1996,-3.1318,-2.9393,0.0,-2.2735,-2.1037,-2.0184,-1.8687,-1.8917,-1.9485,-1.8645,-1.884,-1.939,0.0,0.0,0.0,0.0,0.0,0.0,0.0,0.0,0.0,0.0,0.0,0.0,0.0,0.0,0.0,0.0,0.0,0.0,0.0,0.0,0.0,0.0,0.0,0.0,0.0,-3.5504,-3.5504,-3.5504,-3.5504,-3.5504,-3.5504,-3.5504,-3.5504,-3.5504,-3.5504,-3.5504,-3.5504,-3.5504,-3.5699,-3.6073,-3.6073,-3.6432,-3.703,-3.703,-3.7389,-3.8003,-3.8407,-3.8916,-3.9388,-3.9388,-3.9388,-3.9388,-3.9388,-3.9388,-3.9469,0.0,0.0,-1.9455,-2.0346,-1.9913,-1.9638,-2.0308,-1.9784,-1.9219,0.0,-1.8595,-1.8617,-1.9217,-1.9794,-2.012,-2.012,-1.9452,-1.8707,-1.7969,-1.7162,-1.6749,-1.6807,-1.6749,-1.7044,-1.7783,-1.78,-1.749,-1.6824,-1.7405,-1.7388,-1.6824,-1.7405,-1.8031,-1.8635,-1.8065,-1.8476,-1.9608,-1.9198,-2.0247,-2.2482,-2.5931,-2.8095,0.0,0.0,-3.3372,-3.3744,-3.4387,-3.4201,-3.3626,-3.3457,-3.1546,0.0,0.0,0.0,-2.3248,-2.031,-2.0333,-2.1052,-2.0013,-1.9455,-1.954,-2.1186,0.0,0.0,-2.2344,-2.2302,0.0,0.0,0.0,0.0,0.0,0.0,0.0,0.0,0.0,0.0,0.0,0.0,0.0,0.0,0.0,0.0,0.0,0.0,0.0,-3.5385,-3.5459,-3.5504,-3.5504,-3.5504,-3.5504,-3.5504,-3.5504,-3.5504,-3.5504,-3.5504,-3.5504,-3.5504,-3.5504,-3.5504,-3.5504,-3.5504,-3.5833,-3.6372,-3.6372,-3.6731,-3.73,-3.73,-3.8093,-3.9305,-3.9305,-3.9313,-3.9388,-3.9388,-3.9388,-3.9388,0.0,-1.8115,-1.8786,-2.0254,-2.0364,-2.0455,-2.1023,-2.1198,-2.0961,-2.0173,-1.9824,-2.0162,-2.1498,-2.1228,-2.097,-2.097,-2.0247,-1.9473,-1.8724,-1.7433,-1.6959,-1.7557,-1.7027,-1.7044,-1.7783,-1.78,-1.7732,-1.7591,-1.7128,-1.7145,-1.7591,-1.7128,-1.6993,-1.7145,-1.7608,-1.7625,-1.745,-1.9084,-2.0433,-2.158,-2.3494,-2.686,-3.0818,-3.141,-3.3102,-3.5194,-3.5329,-3.5278,-3.4991,-3.3791,-3.2239,-3.0253,0.0,0.0,0.0,-2.3172,-2.2722,-2.2898,-2.2048,-2.1881,-2.1759,0.0,0.0,0.0,-2.0749,-2.1337,0.0,0.0,0.0,0.0,0.0,0.0,0.0,0.0,0.0,0.0,0.0,0.0,0.0,0.0,0.0,0.0,0.0,0.0,-3.4713,-3.4713,-3.519,-3.5504,-3.5504,-3.5504,-3.5504,-3.5504,-3.5504,-3.5504,-3.5504,-3.5504,-3.5504,-3.5504,-3.5504,-3.5504,-3.5504,-3.5504,-3.5579,-3.5699,-3.5699,-3.6073,-3.6671,-3.6671,-3.7419,-3.8601,-3.8601,-3.8931,-3.9388,-3.9388,-3.9388,-3.9388,-1.7942,-1.8427,-1.9216,-2.0868,-2.1143,-2.1504,-2.2591,-2.2294,-2.1793,-2.1305,-2.0872,-2.0889,-2.1667,-2.1752,-2.1752,-2.1752,-2.1042,-2.0111,-1.8961,-1.7862,-1.7253,-1.7253,-1.6891,-1.7044,-1.7783,-1.78,-1.78,-1.78,-1.7061,-1.6891,-1.7236,-1.6874,-1.6891,-1.7253,-1.7631,-1.8003,-1.8403,-1.9147,-2.0128,-2.1427,-2.4017,0.0,-3.0228,-3.1345,-3.3119,-3.5064,-3.5064,-3.5301,-3.5312,-3.3474,-3.2357,0.0,-2.8871,-2.8362,-2.8156,0.0,-2.4975,-2.4668,-2.3162,-2.2482,-2.2134,-2.1784,0.0,0.0,0.0,0.0,0.0,0.0,0.0,0.0,0.0,0.0,0.0,0.0,0.0,0.0,0.0,0.0,0.0,0.0,0.0,0.0,0.0,0.0,-3.3978,-3.3978,-3.4307,-3.4651,-3.4981,-3.4996,-3.5145,-3.5489,-3.5504,-3.5504,-3.5504,-3.5504,-3.5504,-3.5504,-3.5504,-3.5504,-3.5504,-3.5504,-3.5504,-3.5504,-3.5504,-3.5684,-3.5998,-3.5998,-3.6567,-3.7464,-3.7778,-3.8317,-3.8901,-3.8901,-3.9125,-3.9388,-1.7704,-1.8519,-1.9536,-2.106,-2.1592,-2.2272,-2.3664,-2.304,-2.2365,-2.2223,-2.1867,-2.1613,-2.1613,-2.2158,-2.2632,-2.2905,-2.1884,-2.0784,-1.9824,-1.8538,-1.7648,-1.7348,-1.6925,-1.7111,-1.7986,-1.7732,-1.758,-1.758,-1.6705,-1.635,-1.6495,-1.6495,-1.6891,-1.7608,-1.7896,-1.8679,-1.9778,-1.9469,-2.031,-2.2121,0.0,-2.7351,-2.8604,-3.0973,-3.2801,-3.4138,-3.4556,-3.5098,-3.5295,-3.3355,-3.2716,-3.2344,-3.0127,-2.9922,0.0,0.0,0.0,0.0,0.0,0.0,0.0,0.0,0.0,-2.1839,0.0,0.0,0.0,-2.2259,0.0,0.0,0.0,0.0,0.0,0.0,0.0,0.0,0.0,0.0,0.0,0.0,0.0,0.0,0.0,0.0,-3.2766,-3.326,-3.3066,-3.332,-3.4279,-3.4444,-3.4758,-3.5295,-3.5429,-3.5504,-3.5504,-3.5504,-3.5504,-3.5504,-3.5504,-3.5504,-3.5504,-3.5504,-3.5504,-3.5504,-3.5504,-3.5504,-3.5504,-3.5504,-3.5818,-3.6357,-3.6985,-3.7629,-3.8197,-3.8197,-3.8556,-3.9,-1.6872,-1.7686,-1.8519,-1.9426,-2.0803,-2.2008,-2.2598,-2.3159,-2.3301,-2.2708,-2.2918,-2.3139,-2.3139,-2.3224,-2.3799,-2.5102,-2.2764,-2.1681,-2.2801,-1.9688,-1.8358,-1.9575,-1.7754,-1.7348,-1.8741,-1.7484,-1.6824,-1.6824,-1.5426,-1.5078,-1.5714,-1.5714,-1.613,-1.6874,-1.8183,-1.886,-1.9113,-2.0395,-2.2172,0.0,-2.6014,-2.6404,0.0,-2.9245,-3.1258,-3.2818,-3.4776,-3.5515,-3.5447,0.0,-3.4235,-3.3846,0.0,-3.1464,-3.1616,-2.9399,0.0,0.0,0.0,0.0,0.0,0.0,-2.4335,0.0,0.0,0.0,-2.1205,-2.0306,0.0,0.0,0.0,0.0,0.0,0.0,0.0,0.0,0.0,0.0,0.0,0.0,0.0,0.0,0.0,0.0,0.0,-3.2452,-3.1509,-3.1644,-3.3499,-3.4189,-3.4533,-3.4623,-3.519,-3.5504,-3.5504,-3.5504,-3.5504,-3.5504,-3.5504,-3.5504,-3.5504,-3.5504,-3.5504,-3.5504,-3.5504,-3.5504,-3.5504,-3.5504,-3.5549,-3.5684,-3.6327,-3.6971,-3.7524,-3.7524,-3.7569,-3.7644,-1.6652,-1.7557,-1.8207,-1.8537,-1.9968,-2.1292,-2.199,-2.3389,-2.3927,-2.2632,-2.3227,-2.3819,-2.403,-2.4051,-2.4458,-2.5507,-2.4475,-2.3477,0.0,-2.1282,-2.0285,-2.0002,-1.9101,-1.8707,-1.8894,-1.7862,-1.7128,-1.6699,-1.5223,-1.4656,-1.496,-1.5392,-1.6221,-1.7405,-1.8882,-2.0268,-2.1532,0.0,-2.2615,0.0,0.0,0.0,0.0,-2.9262,-3.1396,-3.253,-3.432,-3.4962,-3.4861,0.0,-3.3863,0.0,0.0,0.0,0.0,0.0,0.0,0.0,0.0,0.0,0.0,0.0,0.0,0.0,-2.1553,0.0,-2.0587,0.0,0.0,0.0,0.0,0.0,0.0,0.0,0.0,0.0,0.0,0.0,0.0,0.0,0.0,0.0,0.0,0.0,0.0,0.0,0.0,-2.9669,-3.1644,-3.2392,-3.3125,-3.3888,-3.4562,-3.4906,-3.4906,-3.531,-3.5504,-3.5504,-3.5504,-3.5504,-3.5504,-3.5504,-3.5504,-3.5504,-3.5504,-3.5504,-3.5504,-3.5504,-3.5504,-3.5534,-3.5804,-3.6312,-3.6881,-3.6881,-3.7105,-3.7404,-1.6346,-1.7043,-1.7509,-1.7722,-1.9098,-2.0586,-2.1807,-2.3384,-2.3963,-2.259,-2.3323,-2.4178,-2.474,-2.4919,-2.5524,-2.689,-2.6447,-2.5492,0.0,0.0,-2.2093,-2.0978,-2.0322,-1.9761,-1.9215,-1.8273,-1.7439,-1.6699,-1.5426,-1.4791,-1.4825,-1.5561,-1.6576,-1.7867,-1.9575,-2.135,-2.3105,0.0,-2.375,-2.4678,-2.5439,-2.598,-2.6674,-2.9719,-3.1481,-3.2496,-3.3964,-3.4489,-3.4421,-3.388,-3.3694,0.0,-3.3457,0.0,0.0,0.0,0.0,0.0,-2.9208,0.0,0.0,0.0,0.0,0.0,0.0,0.0,0.0,0.0,0.0,0.0,0.0,0.0,0.0,-2.0718,0.0,0.0,0.0,0.0,0.0,0.0,0.0,0.0,0.0,0.0,0.0,0.0,0.0,0.0,-2.9864,-3.0763,-3.175,-3.2916,-3.3769,-3.4234,-3.4234,-3.4876,-3.522,-3.5235,-3.5415,-3.5504,-3.5504,-3.5504,-3.5504,-3.5504,-3.5504,-3.5504,-3.5504,-3.5504,-3.5504,-3.5504,-3.5504,-3.5804,-3.6222,-3.6222,-3.6507,-3.6881,-1.5735,-1.5753,-1.6022,-1.6798,-1.828,-2.0052,-2.2161,-2.2921,-2.3129,-2.2733,-2.3409,-2.4328,0.0,0.0,0.0,0.0,0.0,-2.7624,-2.8253,0.0,-2.3342,-2.3291,-2.1181,-1.9985,-1.9968,-1.8544,-1.7439,-1.6699,-1.5944,-1.5561,-1.5578,-1.6316,-1.7077,-1.7901,-2.0158,-2.16,-2.2465,-2.4611,-2.6319,-2.7722,-2.8536,-2.9721,-3.092,0.0,-3.1038,-3.2496,-3.3964,0.0,0.0,-3.4472,-3.4455,0.0,0.0,0.0,0.0,0.0,0.0,0.0,0.0,0.0,0.0,-2.5826,0.0,0.0,0.0,0.0,-2.2254,0.0,0.0,0.0,0.0,-2.168,-2.1455,-2.0812,-2.1261,0.0,0.0,0.0,0.0,0.0,0.0,0.0,0.0,0.0,0.0,0.0,0.0,0.0,-2.8487,-2.9849,-3.0866,-3.154,-3.2856,-3.3529,-3.3529,-3.4219,-3.4533,-3.4548,-3.519,-3.5504,-3.5504,-3.5504,-3.5504,-3.5504,-3.5504,-3.5504,-3.5504,-3.5504,-3.5504,-3.5504,-3.5504,-3.5519,-3.5534,-3.5534,-3.5549,-3.5564,-1.6493,-1.6493,-1.6578,-1.6853,-1.8225,-1.9833,-2.1465,-2.3379,-2.4649,0.0,-2.5522,0.0,0.0,-2.885,-2.9561,0.0,0.0,-2.9614,-2.8579,-2.6963,0.0,-2.4897,-2.3646,-2.253,0.0,-2.0568,-1.943,-1.8161,-1.6925,-1.6587,-1.7039,-1.6807,-1.7348,-1.8606,-2.0395,-2.1884,0.0,0.0,0.0,0.0,0.0,-2.989,-3.1173,0.0,0.0,-3.1765,-3.3237,-3.3778,0.0,-3.4912,-3.4912,-3.4539,-3.4771,-3.4201,-3.3457,-3.3677,-3.3592,0.0,0.0,0.0,-3.2811,-2.8743,0.0,0.0,0.0,0.0,0.0,0.0,0.0,0.0,0.0,-2.1695,-2.1485,-2.0808,-2.0882,-2.0722,0.0,0.0,0.0,0.0,0.0,0.0,0.0,0.0,0.0,0.0,0.0,0.0,0.0,-2.8532,-2.9744,-3.0793,-3.2153,-3.2841,-3.2841,-3.3499,-3.4038,-3.4503,-3.4711,-3.5055,-3.5504,-3.5504,-3.5504,-3.5504,-3.5504,-3.5504,-3.5504,-3.5504,-3.5504,-3.5504,-3.5504,-3.5504,-3.5504,-3.5504,-3.5504,-3.5504,-1.7385,-1.7557,-1.7667,-1.7385,-1.8828,-2.0433,-2.1715,-2.4049,0.0,0.0,-2.6915,0.0,-3.0107,0.0,-3.0927,0.0,-3.2043,-3.1211,-2.9269,-2.8553,0.0,-2.6065,-2.554,0.0,-2.3105,-2.2358,-2.1241,-1.9718,-1.8471,-1.798,-1.8172,-1.7704,-1.7991,-1.8961,-2.0513,-2.202,-2.3528,-2.5525,-2.6826,0.0,0.0,-3.0364,0.0,0.0,-3.119,-3.1376,0.0,-3.3406,-3.3643,-3.5092,-3.5278,-3.4979,-3.5447,-3.494,-3.4235,-3.4438,-3.4353,-3.4083,-3.3541,-3.3931,0.0,-3.0592,-2.9423,0.0,-2.4441,0.0,0.0,0.0,0.0,0.0,0.0,-2.3445,-2.2447,-2.2167,-2.1432,-2.0624,0.0,0.0,0.0,0.0,0.0,0.0,0.0,0.0,-2.0543,-2.1874,0.0,0.0,0.0,0.0,-2.8487,-2.9789,-3.1106,-3.1884,-3.2123,-3.2826,-3.3365,-3.3784,-3.4279,-3.4743,-3.5145,-3.5385,-3.5504,-3.5504,-3.5504,-3.5504,-3.5504,-3.5504,-3.5504,-3.5504,-3.5504,-3.5504,-3.5504,-3.5504,-3.5504,-3.5504,-1.8372,-1.8867,-1.9205,0.0,-2.0026,0.0,0.0,0.0,-2.6151,0.0,-2.7628,-2.9102,-3.0345,-3.0812,-3.1622,-3.3099,-3.3229,-3.2445,-3.0566,-2.997,0.0,0.0,-2.6843,-2.6132,-2.4643,-2.3898,-2.2798,-2.1309,-2.042,-1.9659,-1.9007,-1.8939,-1.8894,-1.8961,-2.0513,0.0,-2.3528,-2.6455,-2.823,-2.9179,-3.0615,-3.119,-3.119,-3.119,0.0,-3.1376,-3.2831,-3.3372,-3.3626,-3.5059,-3.5566,-3.56,-3.56,-3.56,-3.5447,-3.4759,-3.5064,-3.5295,-3.3897,-3.4015,-3.3929,-3.1333,0.0,0.0,0.0,0.0,-2.8163,0.0,0.0,0.0,0.0,0.0,-2.4344,-2.4551,-2.2683,-2.086,-1.9837,0.0,0.0,0.0,0.0,0.0,0.0,-1.9076,-1.9241,-2.0539,-2.0673,0.0,0.0,0.0,0.0,-2.8562,-2.9834,-3.0808,-3.1496,-3.2123,-3.2482,-3.2527,-3.3784,-3.4429,-3.4474,-3.513,-3.5459,-3.5459,-3.5489,-3.5504,-3.5504,-3.5504,-3.5504,-3.5504,-3.5504,-3.5504,-3.5504,-3.5504,-3.5504,-3.5504,-1.9924,-2.0574,-2.128,0.0,-2.22,-2.2657,0.0,0.0,0.0,0.0,-2.9661,-3.1239,-3.2753,-3.2985,-3.3223,-3.3616,-3.3652,0.0,0.0,0.0,0.0,-2.9696,-2.885,-2.7706,-2.6183,-2.5406,-2.4306,-2.2849,-2.0927,-2.02,-2.0581,-1.9447,-1.8894,-1.8961,-2.0513,-2.1701,-2.2736,-2.5136,-2.7588,-2.9905,-3.0818,-3.119,0.0,0.0,-3.119,-3.1309,-3.2259,-3.2933,-3.3541,-3.4472,-3.5165,-3.56,-3.56,-3.56,-3.5566,-3.5363,-3.5447,-3.5515,-3.5143,-3.516,-3.5003,-3.3789,-3.2656,-3.1375,0.0,0.0,0.0,0.0,0.0,0.0,0.0,0.0,0.0,-2.3373,-2.1378,-1.9999,-1.9741,0.0,0.0,0.0,0.0,0.0,0.0,0.0,-1.9046,-1.9884,0.0,0.0,0.0,0.0,0.0,-2.8547,-2.9834,-3.0808,-3.1496,-3.1675,-3.2004,-3.2512,-3.2856,-3.3275,-3.3769,-3.4442,-3.4773,-3.4771,-3.528,-3.5504,-3.5504,-3.5504,-3.5504,-3.5504,-3.5504,-3.5504,-3.5504,-3.5504,-3.5504,-3.5504,-2.1143,0.0,0.0,-2.3456,0.0,0.0,-2.462,0.0,0.0,-2.8785,-3.0393,0.0,-3.2651,-3.3385,-3.3807,-3.3807,-3.4119,0.0,-3.2792,0.0,0.0,-3.0768,-3.0577,-2.9644,-2.774,-2.6855,0.0,-2.3881,0.0,-2.0585,-2.0653,-1.9452,-1.8894,-1.8944,0.0,-2.1278,-2.2482,-2.5356,-2.7925,-3.0156,-3.0903,0.0,0.0,-3.119,-3.119,-3.1241,-3.1684,-3.2493,-3.3508,-3.4252,-3.4996,-3.56,-3.56,-3.56,-3.56,-3.56,-3.56,-3.56,-3.56,-3.56,-3.5498,-3.5081,-3.4353,-3.3415,-3.2073,-3.2009,-3.1948,0.0,0.0,0.0,0.0,0.0,0.0,-2.2857,-2.1272,-2.0294,0.0,0.0,0.0,0.0,0.0,0.0,0.0,0.0,0.0,0.0,0.0,0.0,0.0,0.0,0.0,0.0,-2.9116,-3.0417,-3.1047,-3.1346,-3.169,-3.2064,-3.2348,-3.2706,-3.3095,-3.4038,-3.4503,-3.4548,-3.5205,-3.5504,-3.5504,-3.5504,-3.5504,-3.5504,-3.5504,-3.5504,-3.5504,-3.5504,-3.5504,-3.5504,-2.2088,0.0,0.0,0.0,0.0,0.0,0.0,-2.7079,0.0,-2.9133,0.0,-3.1709,-3.1709,-3.2963,-3.3844,-3.3954,0.0,-3.4178,-3.2585,-3.3587,-3.3267,-3.1131,-3.198,-3.1496,-2.9362,-2.819,-2.6667,0.0,-2.2422,-2.0836,-1.9985,-1.9249,-1.8894,-1.8939,0.0,0.0,0.0,-2.6319,-2.8635,-3.004,-3.0852,-3.119,-3.119,-3.119,-3.119,-3.1207,-3.1309,-3.2222,-3.3508,-3.4134,-3.4912,-3.56,-3.56,-3.56,-3.56,-3.56,-3.56,-3.56,-3.56,-3.56,-3.56,-3.56,-3.56,-3.5261,-3.3981,-3.3694,-3.3694,-3.3694,-3.2679,0.0,0.0,0.0,0.0,-2.3189,0.0,0.0,0.0,0.0,0.0,0.0,0.0,0.0,0.0,0.0,0.0,0.0,0.0,0.0,0.0,0.0,0.0,0.0,-2.8113,0.0,-3.0492,0.0,-3.1511,-3.1511,-3.2079,-3.2363,-3.2392,-3.3664,-3.4294,-3.4414,-3.507,-3.5429,-3.5504,-3.5504,-3.5504,-3.5504,-3.5504,-3.5504,-3.5504,-3.5504,-3.5504,-3.5504,-2.2822,0.0,0.0,0.0,0.0,-2.7207,-2.84,-2.9714,-3.0662,-3.0944,-3.2375,-3.3385,-3.3385,-3.3623,-3.4082,-3.4729,-3.4307,0.0,0.0,0.0,0.0,-3.2786,-3.2593,-3.2027,-3.1012,-2.9556,-2.7871,0.0,-2.3055,-2.1064,-1.9985,-1.9249,-1.8894,-1.8973,0.0,0.0,-2.4288,-2.6742,0.0,-2.9314,-3.0649,-3.119,-3.119,-3.119,-3.119,-3.1275,-3.1904,-3.2645,-3.3423,-3.3558,-3.4484,-3.56,-3.56,-3.56,-3.56,-3.56,-3.56,-3.56,-3.56,-3.56,-3.56,-3.56,-3.56,-3.5532,-3.5261,-3.5211,-3.5211,-3.5211,-3.5008,-3.4404,-3.2953,0.0,0.0,0.0,0.0,0.0,0.0,0.0,0.0,0.0,0.0,0.0,0.0,0.0,0.0,0.0,0.0,0.0,0.0,0.0,0.0,0.0,0.0,0.0,0.0,0.0,0.0,-3.1511,-3.163,-3.1675,-3.1705,-3.2497,-3.3155,-3.3709,-3.4367,-3.4981,-3.5504,-3.5504,-3.5504,-3.5504,-3.5504,-3.5504,-3.5504,-3.5504,-3.5504,-3.5504,0.0,0.0,0.0,0.0,0.0,0.0,0.0,-3.1604,0.0,-3.1507,-3.2076,-3.2572,-3.2572,-3.3678,-3.4399,-3.438,-3.4816,-3.489,-3.4399,-3.4227,-3.384,-3.3232,-3.3181,0.0,-3.143,-3.0076,-2.8397,-2.6295,-2.3593,-2.15,-1.9985,-1.9249,-1.8894,-1.8978,0.0,-2.2798,0.0,0.0,0.0,-2.9128,-3.0618,-3.119,-3.119,-3.119,-3.1427,-3.1819,-3.2175,-3.3038,-3.3964,-3.3964,-3.4709,-3.56,-3.56,-3.56,-3.56,-3.56,-3.56,-3.56,-3.56,-3.56,-3.56,-3.56,-3.56,-3.56,-3.56,-3.56,-3.56,-3.56,-3.56,-3.4906,-3.2716,-3.0025,0.0,0.0,0.0,0.0,0.0,0.0,0.0,0.0,0.0,0.0,0.0,0.0,0.0,0.0,0.0,0.0,0.0,0.0,0.0,0.0,0.0,0.0,0.0,0.0,0.0,-3.1511,-3.1511,-3.1511,-3.1525,-3.2183,-3.2691,-3.3036,-3.4038,-3.4698,-3.4996,-3.5355,-3.5504,-3.5504,-3.5504,-3.5504,-3.5504,-3.5504,-3.5504,-3.5504,0.0,-2.7438,0.0,0.0,-2.9812,0.0,-3.1305,-3.2761,-3.3348,-3.2076,-3.1911,-3.1911,-3.1911,-3.3623,-3.4564,-3.41,-3.511,-3.5275,-3.4137,-3.4491,-3.431,-3.3368,-3.362,-3.3213,-3.1944,-3.0862,-2.9242,0.0,0.0,-2.2456,-2.0577,-1.959,-1.9316,0.0,0.0,0.0,0.0,0.0,-2.8518,-2.9365,-3.0666,-3.119,-3.1207,-3.136,-3.1802,-3.2344,-3.2666,-3.3512,-3.4523,-3.4675,-3.5131,-3.56,-3.56,-3.56,-3.56,-3.56,-3.56,-3.56,-3.56,-3.56,-3.56,-3.56,-3.56,-3.56,-3.56,-3.5481,-3.5363,-3.5363,-3.5131,-3.432,-3.2429,-3.0635,0.0,0.0,0.0,0.0,0.0,0.0,0.0,0.0,0.0,0.0,0.0,0.0,0.0,0.0,0.0,0.0,-1.8882,-1.9914,0.0,0.0,0.0,0.0,-2.9157,0.0,-3.0851,0.0,-3.1511,-3.1511,-3.1525,-3.2049,-3.2377,-3.2587,-3.3754,-3.4459,-3.4741,-3.528,-3.5504,-3.5504,-3.5504,-3.5504,-3.5504,-3.5504,-3.5504,-3.5504,0.0,0.0,0.0,0.0,0.0,0.0,0.0,-3.2761,-3.3752,-3.3587,-3.3587,-3.3587,-3.3587,-3.377,-3.4192,-3.4839,-3.4362,-3.4284,-3.4857,-3.427,-3.3867,-3.3748,-3.3793,-3.3725,-3.3584,-3.275,-3.1357,0.0,0.0,-2.4448,-2.2503,-2.073,0.0,0.0,0.0,0.0,0.0,-2.8214,-2.9313,-3.0074,-3.0869,-3.119,-3.1258,-3.1938,-3.2242,-3.2479,-3.3816,-3.437,-3.459,-3.5261,-3.5532,-3.56,-3.56,-3.56,-3.56,-3.56,-3.56,-3.56,-3.56,-3.56,-3.56,-3.56,-3.56,-3.56,-3.56,-3.5081,-3.459,-3.459,-3.3525,-3.2344,-3.1461,-3.1123,-3.0275,0.0,0.0,0.0,0.0,0.0,-2.5045,-2.3869,0.0,0.0,0.0,0.0,0.0,0.0,0.0,0.0,0.0,-1.9738,0.0,-2.2718,0.0,-2.6363,-2.7764,-2.9579,0.0,-3.1511,-3.1511,-3.1511,-3.1511,-3.157,-3.1929,-3.2557,-3.3275,-3.4277,-3.5415,-3.5474,-3.5504,-3.5504,-3.5504,-3.5504,-3.5504,-3.5504,-3.5504,-3.5504,0.0,0.0,0.0,0.0,0.0,0.0,0.0,-3.3385,-3.3972,-3.4454,-3.4509,-3.4711,-3.5238,-3.5293,-3.5422,-3.5752,-3.5004,-3.4876,-3.5734,-3.4541,-3.4247,-3.5257,-3.4339,-3.4027,-3.4509,-3.3261,-3.1884,0.0,0.0,-2.6105,-2.4199,-2.2989,0.0,0.0,0.0,-2.7075,-2.7503,-2.9482,-3.048,-3.0869,-3.2053,-3.2527,-3.256,-3.2848,-3.3237,-3.3715,-3.4307,-3.4776,-3.5216,-3.5498,-3.56,-3.56,-3.56,-3.56,-3.56,-3.56,-3.56,-3.56,-3.56,-3.56,-3.56,-3.56,-3.56,-3.5481,-3.5047,-3.4709,-3.437,-3.3931,-3.3038,-3.2209,-3.1921,-3.114,-3.0395,0.0,0.0,0.0,0.0,0.0,0.0,0.0,0.0,-2.2199,0.0,0.0,0.0,0.0,0.0,0.0,0.0,0.0,0.0,-2.2044,0.0,-2.616,-2.7585,-2.9172,-3.0477,-3.1511,-3.1511,-3.1511,-3.1511,-3.1511,-3.1869,-3.2557,-3.3215,-3.4023,-3.4921,-3.5325,-3.5504,-3.5504,-3.5504,-3.5504,-3.5504,-3.5504,-3.5504,-3.5504,-3.1715,0.0,-3.1623,0.0,-3.2687,-3.2834,-3.399,-3.4156,-3.4527,-3.5591,-3.5738,-3.5881,-3.6266,-3.6303,-3.6303,-3.6303,-3.5752,-3.5628,-3.6266,-3.5183,-3.5055,-3.6248,-3.5165,0.0,-3.5371,-3.4014,-3.2802,-3.1756,-2.9804,0.0,-2.6498,0.0,0.0,0.0,-2.8209,-2.9002,-2.9106,-3.0946,-3.1769,-3.1935,-3.2983,-3.3406,-3.3423,-3.3643,-3.4049,-3.4523,-3.4742,-3.5165,-3.56,-3.56,-3.56,-3.56,-3.56,-3.56,-3.56,-3.56,-3.56,-3.56,-3.56,-3.56,-3.56,-3.56,-3.56,-3.5397,-3.4675,-3.432,-3.3914,-3.2949,-3.2324,-3.1989,-3.1989,-3.1123,-3.0446,0.0,0.0,0.0,0.0,0.0,0.0,0.0,-2.3187,-2.2185,-2.1645,0.0,0.0,0.0,0.0,0.0,0.0,0.0,0.0,0.0,0.0,0.0,0.0,0.0,-3.0238,-3.1511,-3.1511,-3.1511,-3.1511,-3.1511,-3.1974,-3.2826,-3.329,-3.3978,-3.4816,-3.5295,-3.5504,-3.5504,-3.5504,-3.5504,-3.5504,-3.5504,-3.5504,-3.5504,-3.2417,-3.322,-3.3752,-3.377,-3.4435,-3.4954,-3.4986,-3.4986,-3.5573,-3.7254,-3.7474,-3.718,-3.6376,-3.6303,-3.6303,-3.6303,-3.6285,-3.6285,-3.6303,-3.6266,-3.6266,0.0,0.0,-3.6266,-3.6285,-3.5426,-3.4564,-3.377,0.0,0.0,-2.9631,0.0,-2.8439,-2.9176,-2.995,-3.0822,-3.1824,-3.2638,-3.3144,-3.3372,-3.3406,-3.3406,-3.3491,-3.4201,-3.4489,-3.459,-3.5329,-3.5583,-3.56,-3.56,-3.56,-3.56,-3.56,-3.56,-3.56,-3.56,-3.56,-3.56,-3.56,-3.56,-3.56,-3.56,-3.56,-3.5397,-3.4675,-3.3931,-3.3,-3.1529,-3.1207,-3.1207,-3.1207,-3.119,-3.0705,-2.9256,0.0,0.0,0.0,0.0,0.0,0.0,-2.1614,-2.0453,-2.1501,0.0,0.0,0.0,0.0,0.0,0.0,0.0,0.0,-2.4083,-2.4961,0.0,-2.8472,-2.9232,-3.0238,-3.1511,-3.1511,-3.1511,-3.1511,-3.1511,-3.2213,-3.3484,-3.3499,-3.4262,-3.5489,-3.5504,-3.5504,-3.5504,-3.5504,-3.5504,-3.5504,-3.5504,-3.5504,-3.5504,-3.4087,-3.4435,-3.4802,-3.5404,-3.5716,-3.5899,-3.5899,-3.5899,-3.6266,-3.7364,-3.7492,-3.7621,-3.79,-3.7441,-3.7345,0.0,-3.6927,-3.6762,0.0,-3.6909,-3.678,-3.79,-3.689,-3.656,-3.7107,-3.6303,-3.5752,-3.5495,0.0,0.0,0.0,-3.1809,-3.2043,-3.2775,-3.3548,-3.3752,-3.349,-3.4252,-3.4401,-3.4184,-3.4687,-3.489,-3.4923,-3.5143,-3.5245,-3.5278,-3.5515,-3.56,-3.56,-3.56,-3.56,-3.56,-3.56,-3.56,-3.56,-3.56,-3.56,-3.56,-3.56,-3.56,-3.56,-3.56,-3.56,-3.5278,-3.4032,-3.2797,-3.1765,-3.1292,-3.119,-3.119,-3.119,-3.119,-3.1058,-3.0571,0.0,0.0,0.0,0.0,0.0,0.0,-2.3573,-2.2807,0.0,-2.1708,0.0,0.0,0.0,0.0,0.0,0.0,0.0,0.0,-2.6029,0.0,-2.8487,-2.9623,-3.0657,-3.1511,-3.1511,-3.1511,-3.1511,-3.1511,-3.1735,-3.2183,-3.3095,-3.3739,-3.4203,-3.513,-3.5504,-3.5504,-3.5504,-3.5504,-3.5504,-3.5504,-3.5504,-3.5504,-3.494,-3.55,-3.6028,-3.6266,-3.6556,-3.6758,-3.6758,-3.6758,-3.7037,-3.786,-3.7936,-3.8138,-3.8652,-3.8248,0.0,-3.867,-3.779,-3.7624,-3.8634,-3.7771,-3.7661,-3.867,-3.7734,-3.7441,-3.7951,0.0,0.0,-3.6758,-3.5692,-3.4932,-3.4422,-3.4422,-3.4681,-3.5127,-3.5651,-3.558,-3.5168,-3.5625,-3.559,-3.5254,-3.571,-3.5783,-3.56,-3.56,-3.56,-3.56,-3.56,-3.56,-3.56,-3.56,-3.56,-3.56,-3.56,-3.56,-3.56,-3.56,-3.56,-3.56,-3.56,-3.56,-3.56,-3.56,-3.56,-3.5211,-3.3744,-3.2459,-3.1532,-3.1258,-3.119,-3.119,-3.119,-3.119,-3.1103,-3.0842,0.0,-2.9425,-2.8662,0.0,0.0,0.0,0.0,0.0,0.0,-2.3382,0.0,0.0,0.0,0.0,0.0,0.0,0.0,-2.4902,-2.7114,0.0,-2.9958,-3.0308,-3.099,-3.191,-3.164,-3.1511,-3.1511,-3.1511,-3.1645,-3.1929,-3.3036,-3.3634,-3.3948,-3.5055,-3.5504,-3.5504,-3.5504,-3.5504,-3.5504,-3.5504,-3.5504,-3.5504,-3.5243,-3.6427,0.0,0.0,-3.7088,0.0,-3.7584,-3.7584,-3.786,-3.8597,-3.8707,-3.8707,-3.8707,-3.8707,-3.8707,-3.8707,0.0,0.0,0.0,-3.8707,-3.8707,-3.8707,-3.8707,0.0,-3.8707,-3.797,-3.7584,-3.7584,-3.6795,-3.6413,-3.6468,-3.6413,-3.6413,-3.6468,-3.6468,-3.6577,-3.6777,-3.6777,-3.6665,-3.6457,-3.6416,-3.6097,-3.5667,-3.5622,-3.56,-3.56,-3.56,-3.56,-3.56,-3.56,-3.56,-3.56,-3.56,-3.56,-3.56,-3.56,-3.56,-3.56,-3.56,-3.56,-3.56,-3.56,-3.5566,-3.516,-3.3795,-3.2899,-3.2175,-3.1427,-3.1275,-3.1258,-3.1207,-3.119,-3.0962,-3.023,-2.9485,-2.8726,-2.7913,0.0,0.0,0.0,0.0,0.0,0.0,-2.4746,-2.5313,0.0,0.0,0.0,0.0,0.0,-2.4294,-2.7687,-2.827,-2.9782,-3.2383,-3.1225,-3.1285,-3.252,-3.1824,-3.1511,-3.1511,-3.1511,-3.1839,-3.2452,-3.3185,-3.3844,-3.4503,-3.5205,-3.5504,-3.5504,-3.5504,-3.5504,-3.5504,-3.5504,-3.5504,-3.5504,0.0,0.0,-3.7639,-3.8065,-3.8285,-3.8414,-3.8414,-3.8414,-3.8487,-3.8689,-3.8707,-3.8707,-3.8707,-3.8707,-3.8707,-3.8707,-3.8707,-3.8707,-3.8707,-3.8707,-3.8707,-3.8707,-3.8707,-3.8707,-3.8707,-3.8505,-3.8414,-3.8414,-3.7621,-3.7533,-3.812,-3.7496,-3.7547,-3.8138,-3.8138,-3.7942,-3.7606,-3.7606,-3.7381,-3.6962,-3.6563,-3.6312,-3.6161,-3.5761,-3.56,-3.56,-3.56,-3.56,-3.56,-3.56,-3.56,-3.56,-3.56,-3.56,-3.56,-3.56,-3.56,-3.56,-3.56,-3.56,-3.56,-3.56,-3.5182,-3.4675,-3.432,-3.366,-3.2933,-3.2192,-3.2039,-3.187,-3.1292,-3.119,-3.0962,-3.023,-2.9479,-2.872,-2.7913,0.0,0.0,0.0,-2.6302,-2.6421,-2.5311,-2.637,-2.6822,0.0,0.0,0.0,0.0,0.0,-2.6688,-2.7772,-2.9661,-3.1232,-3.2399,-3.2144,-3.1945,-3.1768,-3.1582,-3.1511,-3.1511,-3.1511,-3.1585,-3.1795,-3.2991,-3.3589,-3.3829,-3.5011,-3.5504,-3.5504,-3.5504,-3.5504,-3.5504,-3.5504,-3.5504,-3.5504,-3.7976,-3.8178,-3.8362,-3.881,-3.8773,-3.8707,-3.8707,-3.8707,-3.8707,-3.8707,-3.8707,-3.8707,-3.8707,-3.8707,-3.8707,-3.8707,-3.8707,-3.8707,-3.8707,-3.8707,-3.8707,-3.8707,-3.8707,-3.8707,-3.8707,-3.8707,-3.8707,-3.8707,-3.8267,-3.8267,-3.8689,-3.8248,-3.8285,-3.8707,-3.8707,-3.8546,-3.8267,-3.8267,-3.7981,-3.7488,-3.7193,-3.6962,-3.6704,-3.6182,-3.5963,-3.5993,-3.6101,-3.5904,-3.565,-3.6028,-3.591,-3.56,-3.56,-3.56,-3.56,-3.56,-3.56,-3.56,-3.56,-3.56,-3.56,-3.56,-3.5295,-3.4912,-3.4573,-3.4184,-3.3694,-3.2949,-3.253,-3.2175,-3.1785,-3.143,-3.0858,-2.9758,-2.9261,-2.8595,-2.747,-2.6945,0.0,-2.6605,-2.7315,-2.7621,-2.7199,-2.8197,-2.8461,-2.7488,0.0,0.0,-2.8024,-2.8724,-2.9201,-2.9362,-3.0396,-3.1724,-3.3345,-3.3417,-3.2958,-3.2007,-3.2007,-3.1824,-3.1511,-3.1511,-3.1511,-3.157,-3.2602,-3.3215,-3.3574,-3.4607,-3.522,-3.5504,-3.5504,-3.5504,-3.5504,-3.5504,-3.5504,-3.5504,-3.8674,-3.8932,-3.9165,-3.9112,-3.8909,-3.875,-3.8707,-3.8707,-3.8707,-3.8707,-3.8707,-3.8707,-3.8707,-3.8707,-3.8707,-3.8707,-3.8707,-3.8707,-3.8707,-3.8707,-3.8707,-3.8707,-3.8707,-3.8707,-3.8707,-3.8707,-3.8707,-3.8707,-3.8707,-3.8707,-3.8707,-3.8707,-3.8707,-3.8707,-3.8707,-3.8707,-3.8707,-3.8707,-3.8522,-3.8194,-3.8108,-3.7846,-3.7443,-3.7041,-3.6738,-3.6609,-3.6961,-3.6593,-3.6039,-3.6738,-3.6434,-3.5769,-3.5769,-3.5701,-3.56,-3.56,-3.56,-3.56,-3.56,-3.56,-3.56,-3.56,-3.56,-3.543,-3.481,-3.4675,-3.4455,-3.3728,-3.3068,-3.2564,-3.2341,-3.1799,-3.085,-2.9254,-2.9008,-2.8459,-2.6928,0.0,-2.7096,-2.7735,-2.8007,-2.8415,-2.9111,-2.9736,-2.9888,-2.9365,-3.0378,0.0,0.0,-3.0514,-3.1292,-3.1529,-3.1084,-3.2023,-3.4492,-3.4579,-3.3987,-3.2734,-3.2734,-3.2382,-3.1668,-3.1668,-3.1611,-3.154,-3.2198,-3.2886,-3.3544,-3.4234,-3.4891,-3.5504,-3.5504,-3.5504,-3.5504,-3.5504,-3.5504,-3.5504,-3.9709,-3.967,-3.9426,-3.9147,-3.9058,-3.8961,-3.8735,-3.8707,-3.8707,-3.8707,-3.8707,-3.8707,-3.8707,-3.8707,-3.8707,-3.8707,-3.8707,-3.8707,-3.8707,-3.8707,-3.8707,-3.8707,-3.8707,-3.8707,-3.8707,-3.8707,-3.8707,-3.8707,-3.8707,-3.8707,-3.8707,-3.8707,-3.8707,-3.8707,-3.8707,-3.8707,-3.8707,-3.8707,-3.9043,-3.9552,-3.9113,-3.8868,-3.8834,-3.9029,-3.8368,-3.7413,-3.8152,-3.8014,-3.7567,-3.7702,-3.7229,-3.6626,-3.6626,-3.6146,-3.56,-3.56,-3.56,-3.56,-3.56,-3.56,-3.56,-3.56,-3.56,-3.5566,-3.5447,-3.543,-3.5211,-3.4472,-3.4235,-3.3774,-3.2529,-3.2225,-3.1429,-2.9353,-2.8993,-2.8444,0.0,0.0,-2.766,-2.7794,-2.8949,-2.9803,-2.9922,-3.0021,-3.0311,-3.0818,-3.0497,-3.0446,-3.0835,-3.1072,-3.1765,-3.3017,-3.2984,-3.3462,-3.4577,-3.4598,-3.4211,-3.3427,-3.3427,-3.3093,-3.2437,-3.2437,-3.2092,-3.154,-3.2198,-3.2886,-3.3544,-3.4234,-3.4891,-3.5504,-3.5504,-3.5504,-3.5504,-3.5504,-3.5504,-3.5504,-4.0245,-4.0023,-3.9735,-3.9656,-3.9396,-3.9131,-3.8952,-3.8923,-3.8855,-3.8719,-3.8707,-3.8707,-3.8707,-3.8707,-3.8707,-3.8707,-3.8707,-3.8707,-3.8707,-3.8707,-3.8707,-3.8707,-3.8707,-3.8707,-3.8707,-3.8707,-3.8707,-3.8707,-3.8707,-3.8707,-3.8707,-3.8707,-3.8707,-3.8707,-3.8707,-3.8946,-3.935,-3.935,-3.9808,-4.0526,-4.0274,-4.0172,-4.0175,-4.0021,-3.9575,-3.9071,-3.9585,-3.9151,-3.8391,-3.8797,-3.824,-3.7313,-3.6931,-3.6823,-3.6664,-3.5836,-3.56,-3.56,-3.56,-3.56,-3.56,-3.56,-3.56,-3.56,-3.56,-3.56,-3.5498,-3.5165,-3.4781,-3.4172,-3.3094,-3.2557,-3.1715,-2.9895,-2.9267,0.0,0.0,-2.7857,-2.8109,-2.8932,-2.9673,-3.026,-3.0649,-3.0683,-3.0835,-3.1173,-3.0886,-3.0835,-3.1173,-3.119,-3.1884,-3.3355,-3.4163,-3.4589,-3.46,-3.4965,-3.48,-3.4137,-3.4137,-3.3582,-3.2586,-3.2586,-3.2203,-3.1525,-3.1824,-3.2557,-3.3514,-3.3829,-3.4562,-3.5504,-3.5504,-3.5504,-3.5504,-3.5504,-3.5504,-3.5504,-4.0496,-4.0248,-4.0053,-4.0101,-3.9761,-3.9427,-3.9238,-3.9212,-3.9117,-3.8829,-3.8788,-3.8777,-3.8707,-3.8707,-3.8707,-3.8707,-3.8707,-3.8707,-3.8707,-3.8707,-3.8707,-3.8707,-3.8707,-3.8707,-3.8707,-3.8707,-3.8707,-3.8707,-3.8707,-3.8707,-3.8707,-3.8707,-3.8799,-3.8982,-3.8982,-3.9423,-4.0175,-4.0175,-4.0634,-4.137,-4.137,-4.137,-4.1337,-4.1123,-4.0836,-4.0599,-4.1026,-4.0415,-3.9499,-3.9914,-3.9307,-3.8214,-3.7536,-3.7584,-3.7686,-3.6479,-3.6005,-3.5836,-3.565,-3.56,-3.56,-3.56,-3.56,-3.56,-3.56,-3.56,-3.56,-3.56,-3.5137,-3.4544,-3.3792,-3.3198,-3.2264,-3.0611,0.0,0.0,0.0,-2.8624,-2.8781,-2.9956,-3.0246,-3.0581,-3.114,-3.119,-3.119,-3.119,-3.119,-3.119,-3.119,-3.119,-3.1884,-3.3355,-3.4822,-3.5362,-3.4847,-3.5339,-3.5339,-3.483,-3.483,-3.4211,-3.3066,-3.3066,-3.2571,-3.1768,-3.1768,-3.233,-3.3275,-3.344,-3.4203,-3.528,-3.5444,-3.5504,-3.5504,-3.5504,-3.5504,-3.5504,-4.0496,-4.0481,-4.0381,-4.0139,-4.0071,-3.9922,-3.9611,-3.9564,-3.9438,-3.9112,-3.9072,-3.899,-3.8719,-3.8707,-3.8707,-3.8707,-3.8707,-3.8707,-3.8707,-3.8707,-3.8707,-3.8707,-3.8707,-3.8707,-3.8707,-3.8707,-3.8707,-3.8707,-3.8707,-3.8707,-3.8707,-3.8707,-3.9093,-3.9808,-3.9808,-4.0267,-4.1003,-4.1003,-4.1479,-4.2213,-4.2213,-4.2213,-4.2304,-4.3003,-4.2449,-4.1429,-4.2258,-4.2136,-4.1484,-4.0983,-4.0308,-3.9566,-3.9013,-3.8413,-3.7889,-3.777,-3.7246,-3.6558,-3.5785,-3.56,-3.56,-3.56,-3.56,-3.56,-3.56,-3.56,-3.56,-3.56,-3.5549,-3.5284,-3.4544,-3.4375,-3.3632,-3.1481,0.0,0.0,-2.9179,-2.954,-2.9973,-3.009,-3.0704,-3.114,-3.119,-3.119,-3.119,-3.119,-3.119,-3.119,-3.119,-3.119,-3.1884,-3.3355,-3.4822,-3.5577,-3.5515,-3.5577,-3.5577,-3.5515,-3.5515,-3.5161,-3.4455,-3.4455,-3.3735,-3.252,-3.252,-3.256,-3.2632,-3.3245,-3.3903,-3.4653,-3.525,-3.5504,-3.5504,-3.5504,-3.5504,-3.5504,-4.0496,-4.0496,-4.0473,-4.0364,-4.0347,-4.025,-3.9953,-3.9912,-3.9786,-3.945,-3.9225,-3.9058,-3.8961,-3.8803,-3.8707,-3.8707,-3.8707,-3.8707,-3.8707,-3.8707,-3.8707,-3.8707,-3.8707,-3.8707,-3.8707,-3.8707,-3.8707,-3.8707,-3.9203,-3.9441,-3.946,-3.9955,-4.0359,-4.0653,-4.0653,-4.1093,-4.1846,-4.1846,-4.2304,-4.3039,-4.3039,-4.3039,-4.3075,-4.3386,-4.3173,-4.274,-4.3087,-4.2846,-4.2282,-4.1664,-4.1031,-4.0302,-3.9309,-3.9106,-3.9157,-3.8717,-3.7743,-3.6745,-3.6417,-3.5994,-3.56,-3.56,-3.56,-3.56,-3.56,-3.56,-3.56,-3.56,-3.56,-3.5386,-3.4628,-3.4499,-3.3943,-3.2179,0.0,-3.0995,-3.045,-3.022,-3.0264,-3.0718,-3.1033,-3.119,-3.119,-3.119,-3.119,-3.119,-3.119,-3.119,-3.119,-3.207,-3.2831,-3.3389,-3.4822,-3.56,-3.56,-3.56,-3.56,-3.56,-3.56,-3.5253,-3.46,-3.46,-3.4087,-3.3182,-3.2761,-3.2807,-3.3127,-3.3382,-3.3888,-3.4578,-3.5235,-3.5504,-3.5504,-3.5504,-3.5504,-3.5504,-4.0496,-4.0496,-4.0496,-4.0496,-4.0496,-4.0449,-4.025,-4.0242,-4.011,-3.9797,-3.9564,-3.9327,-3.9107,-3.8952,-3.8788,-3.8707,-3.8707,-3.8707,-3.8707,-3.8946,-3.9074,-3.9074,-3.9074,-3.9203,-3.946,-3.946,-3.946,-3.946,-4.001,-4.0286,-4.0286,-4.0838,-4.1224,-4.148,-4.148,-4.1919,-4.2671,-4.2671,-4.3002,-4.3515,-4.3515,-4.3515,-4.3515,-4.3515,-4.3515,-4.3515,-4.3515,-4.3268,-4.2827,-4.2062,-4.1534,-4.0954,-3.9715,-3.9706,-3.996,-3.9208,-3.8108,-3.7077,-3.6863,-3.6214,-3.56,-3.56,-3.56,-3.56,-3.56,-3.56,-3.56,-3.56,-3.56,-3.5436,-3.4953,-3.4863,-3.4449,-3.3194,-3.2353,-3.1805,-3.1577,-3.0912,-3.0631,-3.1157,-3.119,-3.119,-3.119,-3.119,-3.119,-3.119,-3.119,-3.1292,-3.1532,-3.273,-3.3508,-3.3744,-3.494,-3.56,-3.56,-3.56,-3.56,-3.56,-3.56,-3.5362,-3.4918,-3.4918,-3.4544,-3.3887,-3.3443,-3.3211,-3.3231,-3.3649,-3.3954,-3.4262,-3.516,-3.5504,-3.5504,-3.5504,-3.5504,-3.5504,-4.0496,-4.0496,-4.0496,-4.0496,-4.0496,-4.0496,-4.0496,-4.0496,-4.0397,-4.0139,-4.0101,-3.9859,-3.9192,-3.9112,-3.8999,-3.8738,-3.8707,-3.8707,-3.8726,-3.946,-3.9916,-3.9918,-3.99,-4.0286,-4.1077,-4.1095,-4.1095,-4.1095,-4.1113,-4.1113,-4.1113,-4.1113,-4.1535,-4.2304,-4.2304,-4.2745,-4.3515,-4.3515,-4.3515,-4.3515,-4.3515,-4.3515,-4.3515,-4.3515,-4.3515,-4.3515,-4.3515,-4.3515,-4.3321,-4.2185,-4.181,-4.1617,-4.0466,-4.0096,-3.996,-3.9208,-3.8481,-3.7753,-3.7032,-3.6231,-3.56,-3.56,-3.56,-3.56,-3.56,-3.56,-3.56,-3.56,-3.56,-3.56,-3.56,-3.56,-3.5346,-3.4628,-3.3879,-3.3162,-3.2403,-3.1664,-3.1207,-3.119,-3.119,-3.119,-3.119,-3.119,-3.119,-3.119,-3.1207,-3.1532,-3.2259,-3.3,-3.3744,-3.4472,-3.5211,-3.56,-3.56,-3.56,-3.56,-3.56,-3.56,-3.56,-3.56,-3.56,-3.523,-3.46,-3.4616,-3.3836,-3.2722,-3.3983,-3.4102,-3.3619,-3.4981,-3.5504,-3.5504,-3.5504,-3.5504,-3.5504,-4.0496,-4.0496,-4.0496,-4.0496,-4.0496,-4.0496,-4.0496,-4.0496,-4.0473,-4.0389,-4.0213,-4.0232,-4.0588,-3.9727,-3.9537,-4.0647,-3.9995,-3.9772,-4.0343,-4.06,-4.1001,-4.1552,-4.1038,-4.0838,-4.1095,-4.1095,-4.1095,-4.1095,-4.168,-4.1937,-4.1956,-4.2525,-4.291,-4.313,-4.313,-4.3277,-4.3515,-4.3515,-4.3515,-4.3515,-4.3515,-4.3515,-4.3515,-4.3515,-4.3515,-4.3515,-4.3515,-4.3515,-4.3392,-4.2675,-4.244,-4.2203,-4.1036,-4.0417,-4.0062,-3.9842,-3.9242,-3.8616,-3.8396,-3.7398,-3.6299,-3.5735,-3.56,-3.56,-3.56,-3.56,-3.56,-3.56,-3.56,-3.56,-3.56,-3.56,-3.5346,-3.4628,-3.4319,-3.3719,-3.2476,-3.2114,-3.1773,-3.1258,-3.119,-3.119,-3.119,-3.119,-3.119,-3.119,-3.1684,-3.2073,-3.2293,-3.3495,-3.4269,-3.4489,-3.5211,-3.56,-3.56,-3.56,-3.56,-3.56,-3.56,-3.56,-3.5577,-3.5098,-3.5052,-3.5253,-3.4325,-3.3937,-3.4075,-3.4967,-3.4885,-3.4343,-3.5723,-3.5943,-3.5504,-3.5504,-3.5504,-3.5504,-4.0496,-4.0496,-4.0496,-4.0496,-4.0496,-4.0496,-4.0496,-4.0496,-4.0496,-4.0496,-4.0356,-4.0519,-4.1226,-4.0503,-4.0466,-4.1689,-4.1047,-4.0772,-4.1274,-4.1466,-4.1791,-4.2286,-4.2139,-4.2047,-4.2047,-4.2047,-4.2047,-4.2047,-4.2543,-4.2763,-4.2782,-4.3276,-4.3515,-4.3515,-4.3515,-4.3515,-4.3515,-4.3515,-4.3515,-4.3515,-4.3515,-4.3515,-4.3515,-4.3515,-4.3515,-4.3515,-4.3515,-4.3515,-4.3427,-4.2883,-4.2539,-4.2162,-4.1201,-4.0679,-4.0368,-4.0171,-3.9588,-3.8988,-3.8988,-3.8125,-3.711,-3.6637,-3.6039,-3.56,-3.56,-3.56,-3.56,-3.56,-3.56,-3.56,-3.56,-3.56,-3.5436,-3.5004,-3.4701,-3.4184,-3.3309,-3.2921,-3.2469,-3.1715,-3.165,-3.1532,-3.1224,-3.119,-3.1309,-3.1596,-3.2327,-3.2848,-3.3156,-3.402,-3.4624,-3.4928,-3.5363,-3.56,-3.56,-3.56,-3.56,-3.56,-3.56,-3.56,-3.56,-3.5184,-3.5207,-3.5554,-3.4471,-3.4235,-3.4634,-3.5062,-3.5165,-3.5036,-3.5838,-3.6076,-3.5894,-3.5619,-3.5504,-3.5504,-4.0496,-4.0496,-4.0496,-4.0496,-4.0496,-4.0496,-4.0496,-4.0496,-4.0496,-4.0496,-4.0496,-4.0743,-4.139,-4.137,-4.1601,-4.2312,-4.2066,-4.1852,-4.181,-4.221,-4.243,-4.2415,-4.3112,-4.3515,-4.3515,-4.3515,-4.3515,-4.3515,-4.3515,-4.3515,-4.3515,-4.3515,-4.3515,-4.3515,-4.3515,-4.3515,-4.3515,-4.3515,-4.3515,-4.3515,-4.3515,-4.3515,-4.3515,-4.3515,-4.3515,-4.3515,-4.3515,-4.3515,-4.3427,-4.2939,-4.2382,-4.1771,-4.1228,-4.1018,-4.0874,-4.0336,-3.9696,-3.9146,-3.9114,-3.8565,-3.8007,-3.8007,-3.6884,-3.5785,-3.5718,-3.565,-3.56,-3.56,-3.56,-3.56,-3.56,-3.56,-3.56,-3.56,-3.5047,-3.4573,-3.4506,-3.3914,-3.322,-3.2496,-3.2395,-3.2141,-3.1461,-3.1393,-3.1664,-3.2361,-3.3068,-3.3795,-3.4455,-3.4556,-3.4912,-3.5583,-3.56,-3.56,-3.56,-3.56,-3.56,-3.56,-3.56,-3.56,-3.56,-3.5554,-3.5538,-3.556,-3.4894,-3.4624,-3.469,-3.4764,-3.5155,-3.5678,-3.5616,-3.6023,-3.6522,-3.5772,-3.5542,-3.5587,-4.0496,-4.0496,-4.0496,-4.0496,-4.0496,-4.0496,-4.0496,-4.0496,-4.0496,-4.0496,-4.0496,-4.105,-4.2537,-4.1877,-4.215,-4.4276,-4.4134,-4.382,-4.3491,-4.3571,-4.3513,-4.3239,-4.3423,-4.3515,-4.3515,-4.3515,-4.3515,-4.3515,-4.3515,-4.3515,-4.3515,-4.3515,-4.3515,-4.3515,-4.3515,-4.3515,-4.3515,-4.3515,-4.3515,-4.3515,-4.3515,-4.3515,-4.3515,-4.3515,-4.3515,-4.3515,-4.3515,-4.3515,-4.3479,-4.3375,-4.2958,-4.248,-4.2342,-4.1979,-4.149,-4.0897,-4.0606,-4.0408,-3.9966,-3.9309,-3.8751,-3.8751,-3.8075,-3.7263,-3.6654,-3.6062,-3.56,-3.56,-3.56,-3.56,-3.56,-3.56,-3.56,-3.56,-3.5464,-3.5165,-3.4573,-3.4353,-3.3981,-3.3254,-3.3169,-3.3102,-3.2949,-3.2933,-3.2983,-3.3152,-3.3829,-3.432,-3.4489,-3.5064,-3.543,-3.5583,-3.56,-3.56,-3.56,-3.56,-3.56,-3.56,-3.56,-3.56,-3.5577,-3.5052,-3.5098,-3.556,-3.4894,-3.4894,-3.5412,-3.6051,-3.605,-3.5689,-3.6234,-3.6527,-3.6574,-3.578,-3.5861,-3.6275,-4.0496,-4.0496,-4.0496,-4.0496,-4.0496,-4.0496,-4.0496,-4.0496,-4.065,-4.1066,-4.1123,-4.1777,-4.3489,-4.3097,-4.3446,-4.5189,-4.5022,-4.4745,-4.4548,-4.4373,-4.4121,-4.374,-4.3742,-4.3662,-4.3496,-4.3515,-4.3515,-4.3515,-4.3515,-4.3515,-4.3515,-4.3515,-4.3515,-4.3515,-4.3515,-4.3515,-4.3515,-4.3515,-4.3515,-4.3515,-4.3515,-4.3515,-4.3515,-4.3515,-4.3515,-4.3515,-4.3515,-4.3515,-4.3515,-4.3515,-4.3303,-4.3032,-4.2788,-4.248,-4.2121,-4.1512,-4.1133,-4.085,-4.0552,-3.9997,-3.9512,-3.9512,-3.8954,-3.8142,-3.7049,-3.6468,-3.6062,-3.5667,-3.56,-3.56,-3.56,-3.56,-3.56,-3.56,-3.56,-3.5464,-3.5081,-3.503,-3.4759,-3.4015,-3.3931,-3.3795,-3.344,-3.3728,-3.3931,-3.3931,-3.4607,-3.503,-3.503,-3.538,-3.56,-3.56,-3.56,-3.56,-3.56,-3.56,-3.56,-3.56,-3.56,-3.56,-3.56,-3.523,-3.5276,-3.556,-3.4894,-3.4965,-3.5611,-3.5713,-3.5916,-3.6146,-3.5813,-3.591,-3.6175,-3.5705,-3.5996,-3.6492,-4.0496,-4.0496,-4.0496,-4.0496,-4.0496,-4.0496,-4.0496,-4.0631,-4.0969,-4.172,-4.1923,-4.2604,-4.4124,-4.4432,-4.4797,-4.5537,-4.5342,-4.5169,-4.5096,-4.4849,-4.4514,-4.4117,-4.4046,-4.3865,-4.3597,-4.3531,-4.3515,-4.3515,-4.3515,-4.3515,-4.3515,-4.3515,-4.3515,-4.3515,-4.3515,-4.3515,-4.3515,-4.3515,-4.3515,-4.3515,-4.3515,-4.3515,-4.3515,-4.3515,-4.3515,-4.3515,-4.3515,-4.3515,-4.3515,-4.3515,-4.3515,-4.3427,-4.2976,-4.2845,-4.2732,-4.2142,-4.1599,-4.1178,-4.0949,-4.0577,-4.0204,-4.0121,-3.9656,-3.8819,-3.7489,-3.6981,-3.6552,-3.5752,-3.56,-3.56,-3.56,-3.56,-3.56,-3.56,-3.56,-3.56,-3.56,-3.56,-3.5363,-3.4759,-3.4692,-3.4455,-3.3846,-3.4336,-3.4692,-3.4692,-3.5245,-3.56,-3.56,-3.56,-3.56,-3.56,-3.56,-3.56,-3.56,-3.56,-3.56,-3.56,-3.56,-3.56,-3.56,-3.56,-3.56,-3.5577,-3.5012,-3.5075,-3.5577,-3.4988,-3.5506,-3.6477,-3.5249,-3.5158,-3.5695,-3.5605,-3.5858,-3.6168,-4.0496,-4.0496,-4.0496,-4.0496,-4.0496,-4.0496,-4.0496,-4.1143,-4.1681,-4.1769,-4.247,-4.3278,-4.4201,-4.4979,-4.5479,-4.5594,-4.5559,-4.541,-4.5118,-4.5063,-4.4884,-4.454,-4.4175,-4.3986,-4.3924,-4.3646,-4.3515,-4.3515,-4.3515,-4.3515,-4.3515,-4.3515,-4.3515,-4.3515,-4.3515,-4.3515,-4.3515,-4.3515,-4.3515,-4.3515,-4.3515,-4.3515,-4.3515,-4.3515,-4.3515,-4.3515,-4.3515,-4.3515,-4.3515,-4.3515,-4.3515,-4.3497,-4.341,-4.3392,-4.3286,-4.2732,-4.2519,-4.2223,-4.1161,-4.085,-4.0679,-4.0229,-4.0028,-3.974,-3.8886,-3.7726,-3.6552,-3.5752,-3.56,-3.56,-3.56,-3.56,-3.56,-3.56,-3.56,-3.56,-3.56,-3.56,-3.5566,-3.5447,-3.5447,-3.5397,-3.5312,-3.538,-3.5447,-3.5447,-3.5532,-3.56,-3.56,-3.56,-3.56,-3.56,-3.56,-3.56,-3.56,-3.56,-3.56,-3.56,-3.56,-3.56,-3.56,-3.56,-3.56,-3.56,-3.5492,-3.5515,-3.56,-3.5492,-3.5583,-3.5752,-3.5536,-3.5557,-3.5698,-3.5618,-3.5263,-3.484,-4.0519,-4.0496,-4.0496,-4.0496,-4.0496,-4.0669,-4.1143,-4.1546,-4.2143,-4.3066,-4.3528,-4.4085,-4.494,-4.5364,-4.5594,-4.5594,-4.5594,-4.555,-4.54,-4.539,-4.5232,-4.4896,-4.472,-4.4535,-4.4332,-4.418,-4.4004,-4.3772,-4.3597,-4.3515,-4.3515,-4.3515,-4.3515,-4.3515,-4.3515,-4.3515,-4.3515,-4.3515,-4.3515,-4.3515,-4.3515,-4.3515,-4.3515,-4.3515,-4.3515,-4.3515,-4.3515,-4.3515,-4.3515,-4.3515,-4.3515,-4.3515,-4.3515,-4.3515,-4.3444,-4.3214,-4.2939,-4.2578,-4.2059,-4.1664,-4.1268,-4.0679,-4.0552,-4.0285,-3.9238,-3.8481,-3.7686,-3.6502,-3.6265,-3.6129,-3.5667,-3.56,-3.56,-3.56,-3.56,-3.56,-3.56,-3.56,-3.56,-3.56,-3.56,-3.56,-3.56,-3.56,-3.56,-3.56,-3.56,-3.56,-3.56,-3.56,-3.56,-3.56,-3.56,-3.56,-3.56,-3.56,-3.56,-3.56,-3.56,-3.56,-3.56,-3.56,-3.56,-3.56,-3.56,-3.56,-3.56,-3.56,-3.56,-3.556,-3.5184,-3.5319,-3.5595,-3.4734,-3.4971,-3.5654]},{"header":{"parameterUnit":"m.s-1","parameterCategory":1,"la1":30.6,"la2":28.766,"lo1":-90.7593,"lo2":-88.6598,"dy":0.0162,"dx":0.0183,"nx":116,"ny":114,"refTime":"2024-05-25T06:00:00:Z","depth":0,"parameterNumber":3,"parameterNumberName":"V-component_of_WINDS"},"data":[0.0,0.0,0.0,0.0,0.0,0.0,0.0,0.0,0.0,0.0,0.0,0.0,0.0,0.0,0.0,0.0,0.0,0.0,0.0,0.0,0.0,0.0,0.0,0.0,0.0,0.0,0.0,0.0,0.0,0.0,0.0,0.0,0.0,0.0,0.0,0.0,0.0,0.0,0.0,0.0,0.0,0.0,0.0,0.0,0.0,0.0,0.0,0.0,0.0,0.0,0.0,0.0,0.0,0.0,0.0,0.0,0.0,0.0,0.0,0.0,0.0,0.0,0.0,0.0,0.0,0.0,0.0,0.0,0.0,0.0,0.0,0.0,0.0,0.0,0.0,0.0,0.0,0.0,0.0,0.0,0.0,0.0,0.0,0.0,0.0,0.0,0.0,0.0,0.0,0.0,0.0,0.0,0.0,0.0,0.0,0.0,0.0,0.0,0.0,0.0,0.0,0.0,0.0,0.0,0.0,0.0,0.0,0.0,0.0,0.0,0.0,0.0,0.0,0.0,0.0,0.0,0.0,0.0,0.0,0.0,0.0,0.0,0.0,0.0,0.0,0.0,0.0,0.0,0.0,0.0,0.0,0.0,0.0,0.0,0.0,0.0,0.0,0.0,0.0,0.0,0.0,0.0,0.0,0.0,0.0,0.0,0.0,0.0,0.0,0.0,0.0,0.0,0.0,0.0,0.0,0.0,0.0,0.0,0.0,0.0,0.0,0.0,0.0,0.0,0.0,0.0,0.0,0.0,0.0,0.0,0.0,0.0,0.0,0.0,0.0,0.0,0.0,0.0,0.0,0.0,0.0,0.0,0.0,0.0,0.0,0.0,0.0,0.0,0.0,0.0,0.0,0.0,0.0,0.0,0.0,0.0,0.0,0.0,0.0,0.0,0.0,0.0,0.0,0.0,0.0,0.0,0.0,0.0,0.0,0.0,0.0,0.0,0.0,0.0,0.0,0.0,0.0,0.0,0.0,0.0,0.0,0.0,0.0,0.0,0.0,0.0,0.0,0.0,0.0,0.0,0.0,0.0,0.0,0.0,0.0,0.0,0.0,0.0,0.0,0.0,0.0,0.0,0.0,0.0,0.0,0.0,0.0,0.0,0.0,0.0,0.0,0.0,0.0,0.0,0.0,0.0,0.0,0.0,0.0,0.0,0.0,0.0,0.0,0.0,0.0,0.0,0.0,0.0,0.0,0.0,0.0,0.0,0.0,0.0,0.0,0.0,0.0,0.0,0.0,0.0,0.0,0.0,0.0,0.0,0.0,0.0,0.0,0.0,0.0,0.0,0.0,0.0,0.0,0.0,0.0,0.0,0.0,0.0,0.0,0.0,0.0,0.0,0.0,0.0,0.0,0.0,0.0,0.0,0.0,0.0,0.0,0.0,0.0,0.0,0.0,0.0,0.0,0.0,0.0,0.0,0.0,0.0,0.0,0.0,0.0,0.0,0.0,0.0,0.0,0.0,0.0,0.0,0.0,0.0,0.0,0.0,0.0,0.0,0.0,0.0,0.0,0.0,0.0,0.0,0.0,0.0,0.0,0.0,0.0,0.0,0.0,0.0,0.0,0.0,0.0,0.0,0.0,0.0,0.0,0.0,0.0,0.0,0.0,0.0,0.0,0.0,0.0,0.0,0.0,0.0,0.0,0.0,0.0,0.0,0.0,0.0,0.0,0.0,0.0,0.0,0.0,0.0,0.0,0.0,0.0,0.0,0.0,0.0,0.0,0.0,0.0,0.0,0.0,0.0,0.0,0.0,0.0,0.0,0.0,0.0,0.0,0.0,0.0,0.0,0.0,0.0,0.0,0.0,0.0,0.0,0.0,0.0,0.0,0.0,0.0,0.0,0.0,0.0,0.0,0.0,0.0,0.0,0.0,0.0,0.0,0.0,0.0,0.0,0.0,0.0,0.0,0.0,0.0,0.0,0.0,0.0,0.0,0.0,0.0,0.0,0.0,0.0,0.0,0.0,0.0,0.0,0.0,0.0,0.0,0.0,0.0,0.0,0.0,0.0,0.0,0.0,0.0,0.0,0.0,0.0,0.0,0.0,0.0,0.0,0.0,0.0,0.0,0.0,0.0,0.0,0.0,0.0,0.0,0.0,0.0,0.0,0.0,0.0,0.0,0.0,0.0,0.0,0.0,0.0,0.0,0.0,0.0,0.0,0.0,0.0,0.0,0.0,0.0,0.0,0.0,0.0,0.0,0.0,0.0,0.0,0.0,0.0,0.0,0.0,0.0,0.0,0.0,0.0,0.0,0.0,0.0,0.0,0.0,0.0,0.0,0.0,0.0,0.0,0.0,0.0,0.0,0.0,0.0,0.0,0.0,0.0,0.0,0.0,0.0,0.0,0.0,0.0,0.0,0.0,0.0,0.0,0.0,0.0,0.0,0.0,0.0,0.0,0.0,0.0,0.0,0.0,0.0,0.0,0.0,0.0,0.0,0.0,0.0,0.0,0.0,0.0,0.0,0.0,0.0,0.0,0.0,0.0,0.0,0.0,0.0,0.0,0.0,0.0,0.0,0.0,0.0,0.0,0.0,0.0,0.0,0.0,0.0,0.0,0.0,0.0,0.0,0.0,0.0,0.0,0.0,0.0,0.0,0.0,0.0,0.0,0.0,0.0,0.0,0.0,0.0,0.0,0.0,0.0,0.0,0.0,0.0,0.0,0.0,0.0,0.0,0.0,0.0,0.0,0.0,0.0,0.0,0.0,0.0,0.0,0.0,0.0,0.0,0.0,0.0,0.0,0.0,0.0,0.0,0.0,0.0,0.0,0.0,0.0,0.0,0.0,0.0,0.0,0.0,0.0,0.0,0.0,0.0,0.0,0.0,0.0,0.0,0.0,0.0,0.0,0.0,0.0,0.0,0.0,0.0,0.0,0.0,0.0,0.0,0.0,0.0,0.0,0.0,0.0,0.0,0.0,0.0,0.0,0.0,0.0,0.0,0.0,0.0,0.0,0.0,0.0,0.0,0.0,0.0,0.0,0.0,0.0,0.0,0.0,0.0,0.0,0.0,0.0,0.0,0.0,0.0,0.0,0.0,0.0,0.0,0.0,0.0,0.0,0.0,0.0,0.0,0.0,0.0,0.0,0.0,0.0,0.0,0.0,0.0,0.0,0.0,0.0,0.0,0.0,0.0,0.0,0.0,0.0,0.0,0.0,0.0,0.0,0.0,0.0,0.0,0.0,0.0,0.0,0.0,0.0,0.0,0.0,0.0,0.0,0.0,0.0,0.0,0.0,0.0,0.0,0.0,0.0,0.0,0.0,0.0,0.0,0.0,0.0,0.0,0.0,0.0,0.0,0.0,0.0,0.0,0.0,0.0,0.0,0.0,0.0,0.0,0.0,0.0,0.0,0.0,0.0,0.0,0.0,0.0,0.0,0.0,0.0,0.0,0.0,0.0,0.0,0.0,0.0,0.0,0.0,0.0,0.0,0.0,0.0,0.0,0.0,0.0,0.0,0.0,0.0,0.0,0.0,0.0,0.0,0.0,0.0,0.0,0.0,0.0,0.0,0.0,0.0,0.0,0.0,0.0,0.0,0.0,0.0,0.0,0.0,0.0,0.0,0.0,0.0,0.0,0.0,0.0,0.0,0.0,0.0,0.0,0.0,0.0,0.0,0.0,0.0,0.0,0.0,0.0,0.0,0.0,0.0,0.0,0.0,0.0,0.0,0.0,0.0,0.0,0.0,0.0,0.0,0.0,0.0,0.0,0.0,0.0,0.0,0.0,0.0,0.0,0.0,0.0,0.0,0.0,0.0,0.0,0.0,0.0,0.0,0.0,0.0,0.0,0.0,0.0,0.0,0.0,0.0,0.0,0.0,0.0,0.0,0.0,0.0,0.0,0.0,0.0,0.0,0.0,0.0,0.0,0.0,0.0,0.0,0.0,0.0,0.0,0.0,0.0,0.0,0.0,0.0,0.0,0.0,0.0,0.0,0.0,0.0,0.0,0.0,0.0,0.0,0.0,0.0,0.0,0.0,0.0,0.0,0.0,0.0,0.0,0.0,0.0,0.0,0.0,0.0,0.0,0.0,0.0,0.0,0.0,0.0,0.0,0.0,0.0,0.0,0.0,0.0,0.0,0.0,0.0,0.0,0.0,0.0,0.0,0.0,0.0,0.0,0.0,0.0,0.0,0.0,0.0,0.0,0.0,0.0,0.0,0.0,0.0,0.0,0.0,0.0,0.0,0.0,0.0,0.0,0.0,0.0,0.0,0.0,0.0,0.0,0.0,0.0,0.0,0.0,0.0,0.0,0.0,0.0,0.0,0.0,0.0,0.0,0.0,0.0,0.0,0.0,0.0,0.0,0.0,0.0,0.0,0.0,0.0,0.0,0.0,0.0,0.0,0.0,0.0,0.0,0.0,0.0,0.0,0.0,0.0,0.0,0.0,0.0,0.0,0.0,0.0,0.0,0.0,0.0,0.0,0.0,0.0,0.0,0.0,0.0,0.0,0.0,0.0,0.0,0.0,0.0,0.0,0.0,0.0,0.0,0.0,0.0,0.0,0.0,0.0,0.0,0.0,0.0,0.0,0.0,0.0,0.0,0.0,0.0,0.0,0.0,0.0,0.0,0.0,0.0,0.0,0.0,0.0,0.0,0.0,0.0,0.0,0.0,0.0,0.0,0.0,0.0,0.0,0.0,0.0,0.0,0.0,0.0,0.0,0.0,0.0,0.0,0.0,0.0,0.0,0.0,0.0,0.0,0.0,0.0,0.0,0.0,0.0,0.0,0.0,0.0,0.0,0.0,0.0,0.0,0.0,0.0,0.0,0.0,0.0,0.0,0.0,0.0,0.0,0.0,0.0,0.0,0.0,0.0,0.0,0.0,0.0,0.0,0.0,0.0,0.0,0.0,0.0,0.0,0.0,0.0,0.0,0.0,0.0,0.0,0.0,0.0,0.0,0.0,0.0,0.0,0.0,0.0,0.0,0.0,0.0,0.0,0.0,0.0,0.0,0.0,0.0,0.0,0.0,0.0,0.0,0.0,0.0,0.0,0.0,0.0,0.0,0.0,0.0,0.0,0.0,0.0,0.0,0.0,0.0,0.0,0.0,0.0,0.0,0.0,0.0,0.0,0.0,0.0,0.0,0.0,0.0,0.0,0.0,0.0,0.0,0.0,0.0,0.0,0.0,0.0,0.0,0.0,0.0,0.0,0.0,0.0,0.0,0.0,0.0,0.0,0.0,0.0,0.0,0.0,0.0,0.0,0.0,0.0,0.0,0.0,0.0,0.0,0.0,0.0,0.0,0.0,0.0,0.0,0.0,0.0,0.0,0.0,0.0,0.0,0.0,0.0,0.0,0.0,0.0,0.0,0.0,0.0,0.0,0.0,0.0,0.0,0.0,0.0,0.0,0.0,0.0,0.0,0.0,0.0,0.0,0.0,0.0,0.0,0.0,0.0,0.0,0.0,0.0,0.0,0.0,0.0,0.0,0.0,0.0,0.0,0.0,0.0,0.0,0.0,0.0,0.0,0.0,0.0,0.0,0.0,0.0,0.0,0.0,0.0,0.0,0.0,0.0,0.0,0.0,0.0,0.0,0.0,0.0,0.0,0.0,0.0,0.0,0.0,0.0,0.0,0.0,0.0,0.0,0.0,0.0,0.0,0.0,0.0,0.0,0.0,0.0,0.0,0.0,0.0,0.0,0.0,0.0,0.0,0.0,0.0,0.0,0.0,0.0,0.0,0.0,0.0,0.0,0.0,0.0,0.0,0.0,0.0,0.0,0.0,0.0,0.0,0.0,0.0,0.0,0.0,0.0,0.0,0.0,0.0,0.0,0.0,0.0,0.0,0.0,0.0,0.0,0.0,0.0,0.0,0.0,0.0,0.0,0.0,0.0,0.0,0.0,0.0,0.0,0.0,0.0,0.0,0.0,0.0,0.0,0.0,0.0,0.0,0.0,0.0,0.0,0.0,0.0,0.0,0.0,0.0,0.0,0.0,0.0,0.0,0.0,0.0,0.0,0.0,0.0,0.0,0.0,0.0,0.0,0.0,0.0,0.0,0.0,0.0,0.0,0.0,0.0,0.0,0.0,0.0,0.0,0.0,0.0,0.0,0.0,0.0,0.0,0.0,0.0,0.0,0.0,0.0,0.0,0.0,-1.6628,0.0,0.0,0.0,0.0,0.0,0.0,0.0,0.0,0.0,0.0,0.0,0.0,0.0,0.0,0.0,0.0,0.0,0.0,0.0,0.0,0.0,0.0,0.0,0.0,-0.5655,-0.5881,-0.6076,-0.6279,-0.6394,-0.6394,0.0,0.0,0.0,0.0,0.0,-0.6095,-0.6289,-0.6501,-0.6719,-0.7383,-0.8042,-0.8639,-0.8395,-0.7939,-0.7358,0.0,0.0,0.0,0.0,0.0,0.0,0.0,0.0,0.0,0.0,0.0,0.0,0.0,0.0,0.0,0.0,0.0,0.0,0.0,0.0,0.0,0.0,0.0,0.0,0.0,0.0,0.0,0.0,0.0,0.0,0.0,0.0,0.0,0.0,0.0,0.0,0.0,0.0,0.0,0.0,0.0,0.0,0.0,0.0,0.0,0.0,0.0,0.0,0.0,0.0,0.0,0.0,0.0,0.0,0.0,0.0,0.0,0.0,0.0,0.0,0.0,0.0,0.0,0.0,0.0,0.0,0.0,0.0,0.0,0.0,0.0,-1.7781,0.0,0.0,0.0,0.0,0.0,0.0,0.0,0.0,0.0,0.0,0.0,0.0,0.0,0.0,0.0,0.0,0.0,0.0,0.0,0.0,0.0,-0.54,-0.5851,-0.6037,-0.6301,-0.6719,-0.6816,-0.6826,-0.6758,-0.6748,0.0,0.0,0.0,-0.6589,-0.6533,-0.667,-0.7096,-0.7827,-0.859,-0.9569,-1.0753,-1.0831,-1.0303,-0.9283,-0.8894,0.0,0.0,0.0,0.0,0.0,0.0,0.0,0.0,0.0,0.0,0.0,0.0,0.0,0.0,0.0,0.0,0.0,0.0,0.0,0.0,0.0,0.0,0.0,0.0,0.0,0.0,0.0,0.0,0.0,0.0,0.0,0.0,0.0,0.0,0.0,0.0,0.0,0.0,0.0,0.0,0.0,0.0,0.0,0.0,0.0,0.0,0.0,0.0,0.0,0.0,0.0,0.0,0.0,0.0,0.0,0.0,0.0,0.0,0.0,0.0,0.0,0.0,0.0,0.0,-2.0516,-2.1202,-2.2603,-2.3584,-2.4136,-2.1504,-2.0612,-2.0998,0.0,0.0,0.0,0.0,0.0,0.0,0.0,0.0,0.0,0.0,0.0,0.0,0.0,0.0,0.0,0.0,0.0,0.0,0.0,0.0,-0.587,-0.6279,-0.6998,-0.7632,-0.8101,-0.8457,-0.8506,-0.816,-0.8131,0.0,0.0,-0.753,-0.7369,-0.7021,-0.7759,-0.8189,-0.8307,-1.0244,-1.1643,-1.2573,-1.291,-1.2998,-1.2744,-1.0891,-1.0205,-1.0392,0.0,0.0,0.0,0.0,0.0,0.0,0.0,0.0,0.0,0.0,0.0,0.0,0.0,0.0,0.0,0.0,0.0,0.0,0.0,0.0,0.0,0.0,0.0,0.0,0.0,0.0,0.0,0.0,0.0,0.0,0.0,0.0,0.0,0.0,0.0,0.0,0.0,0.0,0.0,0.0,0.0,-1.3262,-1.3714,0.0,0.0,0.0,0.0,0.0,0.0,0.0,0.0,0.0,0.0,0.0,0.0,0.0,0.0,-2.0175,-2.1328,-2.2129,-2.2516,-2.3359,-2.4566,-2.6186,-2.6372,-2.7366,-2.8857,-2.7929,0.0,-2.4589,-2.5279,0.0,0.0,0.0,0.0,0.0,0.0,0.0,0.0,0.0,0.0,0.0,0.0,0.0,0.0,0.0,0.0,0.0,0.0,0.0,0.0,0.0,-0.8066,-0.8721,-0.9402,-0.9637,-0.9541,-0.9111,-0.8867,-0.8545,-0.8115,-0.7846,-0.7739,-0.7827,-0.8418,-0.9326,-1.0547,-1.2197,-1.333,-1.3981,-1.4141,-1.4355,-1.4531,-1.3594,-1.2593,-1.1603,-1.1316,0.0,0.0,0.0,0.0,0.0,0.0,0.0,0.0,0.0,0.0,0.0,0.0,0.0,0.0,0.0,0.0,0.0,0.0,0.0,0.0,0.0,0.0,0.0,0.0,0.0,0.0,0.0,0.0,0.0,0.0,0.0,0.0,0.0,0.0,0.0,0.0,0.0,0.0,0.0,-1.2662,-1.3987,-1.4453,-1.4756,-1.4844,0.0,0.0,0.0,0.0,0.0,0.0,0.0,0.0,0.0,-2.0021,-2.1211,-2.2516,-2.3917,-2.4931,-2.5927,-2.6879,-2.7462,-2.8204,-2.8978,-2.9916,-3.0778,-3.1587,-3.2001,-3.1362,-2.9964,-2.8142,-2.661,-2.541,0.0,0.0,0.0,0.0,0.0,-2.4858,0.0,0.0,0.0,0.0,0.0,0.0,0.0,0.0,0.0,0.0,0.0,0.0,-0.8555,-0.9082,-0.9678,-1.0557,-1.0625,-1.042,-0.9971,-0.9561,-0.9141,-0.8721,-0.8275,-0.8246,-0.8691,-0.9443,-1.0761,-1.2691,-1.386,-1.4687,-1.5146,-1.5225,-1.5449,-1.5722,-1.5722,-1.4712,-1.3012,-1.2937,-1.2276,-1.1088,0.0,0.0,0.0,0.0,0.0,0.0,0.0,0.0,0.0,0.0,0.0,0.0,0.0,0.0,0.0,0.0,0.0,0.0,0.0,0.0,0.0,0.0,0.0,0.0,0.0,0.0,0.0,0.0,0.0,0.0,0.0,0.0,0.0,0.0,0.0,0.0,0.0,-1.3899,-1.4933,-1.54,-1.633,-1.6701,0.0,0.0,0.0,0.0,0.0,0.0,-1.9699,-2.0797,-2.18,-2.2659,-2.451,-2.6146,-2.7469,-2.8186,-2.9066,-3.01,-3.0416,-3.0795,-3.1272,-3.2535,-3.3371,-3.3831,-3.4553,-3.47,-3.4047,-3.0893,-2.9077,-2.8322,-2.792,-2.7055,-2.6214,-2.7168,-2.7555,-2.7819,0.0,0.0,0.0,0.0,0.0,0.0,0.0,0.0,0.0,0.0,0.0,-0.8114,-0.9398,-0.9961,-1.0586,-1.1469,-1.1538,-1.133,0.0,-1.0449,-1.0029,-0.9572,-0.9143,-0.9123,-0.9542,-1.119,-1.2691,-1.4007,-1.4894,-1.5566,-1.6036,-1.6436,-1.6619,-1.6629,-1.6629,-1.6118,-1.5145,-1.3568,-1.3304,-1.3651,-1.0554,0.0,0.0,0.0,0.0,0.0,0.0,0.0,0.0,0.0,0.0,0.0,0.0,0.0,0.0,0.0,0.0,0.0,0.0,0.0,0.0,0.0,0.0,0.0,0.0,0.0,0.0,0.0,0.0,0.0,0.0,0.0,0.0,0.0,0.0,0.0,0.0,0.0,0.0,-1.7197,-1.8394,0.0,0.0,0.0,0.0,-1.9687,-2.0156,-2.1192,-2.2885,-2.4566,-2.592,-2.676,-2.8923,-3.0118,-3.0187,-3.0622,-3.0892,-3.094,-3.0962,-3.1857,-3.3553,-3.3637,-3.4603,-3.6197,-3.5683,-3.5445,-3.532,-3.4084,-3.2649,-3.1185,-3.1148,-3.0482,-2.9616,-3.0193,-3.0407,-3.0495,0.0,0.0,0.0,0.0,0.0,-0.5098,-0.5098,-0.5498,-0.5939,-0.6348,-0.7642,-0.8919,-0.9941,-1.0937,-1.1768,-1.2377,-1.2436,-1.225,-1.1765,-1.1084,-1.0615,-1.0439,-0.9757,-0.9981,-1.1258,-1.2691,-1.3929,-1.4933,-1.58,-1.6484,-1.6946,-1.707,-1.7295,-1.7525,-1.7525,-1.7213,-1.6613,-1.5537,-1.4713,-1.3962,-1.2322,-1.0892,0.0,0.0,0.0,0.0,0.0,0.0,0.0,0.0,0.0,0.0,0.0,0.0,0.0,0.0,0.0,0.0,0.0,0.0,0.0,0.0,0.0,0.0,0.0,0.0,0.0,0.0,0.0,0.0,0.0,0.0,0.0,0.0,0.0,0.0,0.0,0.0,0.0,-1.9353,-2.037,0.0,-2.0537,-2.0889,-2.1679,-2.3093,-2.396,-2.4755,-2.5536,-2.761,-2.8506,-2.7947,-3.0429,-3.2159,-3.304,-3.3798,-3.4629,-3.5502,-3.5502,-3.5856,-3.6468,-3.6468,-3.6823,-3.7412,-3.7211,-3.6923,-3.6571,-3.6182,-3.4826,-3.3006,-3.3006,-3.2554,-3.1926,-3.2127,-3.2428,-3.2754,0.0,0.0,0.0,0.0,-0.5098,-0.5098,-0.5098,-0.5605,-0.6262,-0.6973,-0.832,-0.964,-1.0811,-1.1687,-1.2389,-1.2866,-1.2905,-1.2778,-1.2471,-1.1736,-1.1336,-1.1336,-1.0936,-1.1375,-1.2817,-1.3958,-1.503,-1.6074,-1.666,-1.7168,-1.7598,-1.7598,-1.7744,-1.8008,-1.8008,-1.7852,-1.7559,-1.7088,-1.6177,-1.4998,-1.3782,-1.2841,-1.1974,0.0,0.0,0.0,0.0,0.0,0.0,0.0,0.0,0.0,0.0,0.0,0.0,0.0,0.0,0.0,0.0,0.0,0.0,0.0,0.0,0.0,0.0,0.0,0.0,0.0,0.0,0.0,0.0,0.0,0.0,0.0,0.0,0.0,0.0,0.0,-1.9796,-2.0693,-2.1943,-2.2685,-2.2539,-2.3047,-2.3949,-2.5372,-2.6505,-2.7281,-2.7605,-3.0278,-3.139,-3.05,-3.2986,-3.48,-3.5673,-3.6328,-3.7107,-3.8002,-3.8002,-3.8002,-3.8002,-3.8002,-3.8002,-3.8002,-3.8002,-3.7801,-3.7462,-3.7462,-3.6496,-3.4977,-3.46,-3.4123,-3.3633,-3.3633,-3.3859,-3.4173,0.0,0.0,0.0,-0.5098,-0.5098,-0.5098,-0.5098,-0.5848,-0.6875,-0.8199,-0.9094,-1.0283,-1.1999,-1.2213,-1.2398,-1.2866,-1.2905,-1.2905,-1.2905,-1.2447,-1.2213,-1.2223,-1.2676,-1.3311,-1.4133,-1.4981,-1.6084,-1.7383,-1.7393,-1.7617,-1.8027,-1.8027,-1.8037,-1.8047,-1.8047,-1.8047,-1.8047,-1.8047,-1.7707,-1.6981,-1.5,-1.4356,-1.442,0.0,0.0,0.0,0.0,0.0,0.0,0.0,0.0,0.0,0.0,0.0,0.0,0.0,0.0,0.0,0.0,0.0,0.0,0.0,0.0,0.0,0.0,0.0,0.0,0.0,0.0,0.0,0.0,0.0,0.0,0.0,0.0,0.0,-1.8135,-1.9941,-2.1289,-2.1307,-2.3227,-2.4389,-2.3996,-2.4768,-2.5671,-2.6537,-2.7858,-2.8767,-2.9162,-3.2627,-3.4569,-3.4569,-3.6838,-3.804,-3.804,-3.8052,-3.8052,-3.8052,-3.8052,-3.8052,-3.8052,-3.8052,-3.8052,-3.8052,-3.8052,-3.8052,-3.804,-3.804,-3.7713,-3.7098,-3.5972,-3.5219,-3.4731,-3.4731,-3.4731,-3.4731,0.0,0.0,-0.5098,-0.5098,-0.5098,-0.5098,-0.5098,-0.5848,-0.6755,-0.7759,-0.9189,-1.0518,-1.1643,-1.2314,-1.2754,-1.2895,-1.2905,-1.2905,-1.2905,-1.2447,-1.235,-1.2686,-1.3398,-1.4163,-1.5011,-1.5888,-1.6699,-1.7383,-1.7686,-1.8047,-1.8432,-1.8432,-1.8633,-1.8936,-1.8936,-1.8936,-1.8936,-1.8936,-1.8866,-1.8537,-1.6711,-1.5644,-1.5055,0.0,0.0,0.0,0.0,0.0,0.0,0.0,0.0,0.0,0.0,0.0,0.0,0.0,0.0,0.0,0.0,0.0,0.0,0.0,0.0,0.0,0.0,0.0,0.0,0.0,0.0,0.0,0.0,0.0,0.0,0.0,0.0,-2.082,-2.082,-2.2362,-2.3584,-2.3992,-2.6466,-2.7914,-2.7212,-2.8497,-2.9859,-3.1043,-3.2158,-3.2825,-3.2889,-3.5525,-3.6603,-3.5618,-3.7566,-3.863,-3.863,-3.9032,-3.9233,-3.9233,-3.9233,-3.9233,-3.9233,-3.9233,-3.9233,-3.9233,-3.9233,-3.8994,-3.863,-3.863,-3.8291,-3.7713,-3.701,-3.6395,-3.5906,-3.5906,-3.5906,-3.5855,0.0,-0.5098,-0.5098,-0.5098,-0.5098,-0.5166,-0.5361,-0.5965,-0.6901,-0.8308,-0.9551,-1.0772,-1.2005,-1.2592,-1.2905,-1.2905,-1.2905,-1.2905,-1.2905,-1.2812,-1.2934,-1.3389,-1.4192,-1.505,-1.5917,-1.665,-1.7305,-1.791,-1.8154,-1.8461,-1.887,-1.887,-1.9043,-1.9287,-1.9287,-1.9287,-1.9287,-1.9287,-1.9287,-1.918,-1.7974,-1.7194,-1.6599,-1.541,-1.4912,-1.4718,-1.3851,-1.3305,-1.2964,-1.2725,0.0,0.0,0.0,0.0,0.0,0.0,0.0,0.0,0.0,0.0,0.0,0.0,0.0,0.0,0.0,0.0,0.0,0.0,0.0,0.0,0.0,0.0,0.0,0.0,-2.0928,-2.2402,-2.3115,-2.4058,-2.4999,-2.6054,-2.7898,-2.9259,-2.9742,-3.0918,-3.2021,-3.2934,-3.3776,-3.4481,-3.5016,-3.6571,-3.74,-3.7248,-3.8539,-3.922,-3.922,-3.9534,-3.9697,-3.9697,-3.9697,-3.9697,-3.9697,-3.9697,-3.9697,0.0,-3.9697,-3.9509,-3.922,-3.922,-3.8881,0.0,0.0,0.0,0.0,0.0,-3.6405,-3.6367,0.0,-0.5098,-0.5098,-0.5098,-0.5098,-0.5253,-0.5724,-0.6143,-0.7154,-0.9252,-0.998,-1.0948,-1.2651,-1.2876,-1.2905,-1.2905,-1.2905,-1.2925,0.0,-1.334,-1.3763,-1.4231,-1.5069,-1.5917,-1.6755,-1.7275,-1.7891,-1.8598,-1.8646,-1.8936,-1.9355,-1.9355,-1.9385,-1.9434,-1.9434,-1.9434,-1.9434,-1.9434,-1.9434,-1.9394,-1.8955,-1.8685,-1.8422,-1.6858,-1.6455,-1.6668,-1.5829,-1.504,-1.4397,-1.4397,0.0,0.0,0.0,0.0,0.0,0.0,0.0,0.0,0.0,0.0,0.0,0.0,0.0,0.0,0.0,0.0,0.0,0.0,0.0,0.0,0.0,0.0,0.0,0.0,-2.2261,-2.3516,-2.4969,-2.5318,-2.5989,-2.7389,-2.8514,-2.9844,-3.1535,-3.2506,-3.3128,-3.3379,-3.4014,-3.4895,-3.6042,0.0,0.0,0.0,0.0,-3.9697,-3.9697,-3.9697,-3.9697,-3.9697,-3.9697,-3.9697,-3.9697,-3.9697,-3.9697,-3.9697,-3.9697,-3.9697,-3.9697,-3.9697,-3.9408,-3.8894,-3.8253,-3.7713,-3.7211,-3.6707,-3.6505,0.0,0.0,-0.5098,-0.5098,-0.5098,-0.5098,-0.5253,-0.5724,-0.6143,-0.7061,-0.887,-0.9805,-1.0811,-1.2184,-1.2666,-1.2905,-1.2905,-1.2905,-1.3052,0.0,0.0,-1.4328,-1.5098,-1.5976,-1.6687,-1.7246,-1.8008,-1.8432,-1.8598,-1.8994,-1.9375,-1.9795,-1.9795,-1.998,-2.0351,-2.0351,-2.0351,-2.0351,-2.0351,-2.0351,-2.0321,-1.9844,-1.9212,-1.849,-1.751,-1.721,-1.7187,-1.6638,-1.6336,-1.62,-1.62,-1.5879,-1.5332,-1.4461,-1.3916,0.0,0.0,0.0,0.0,0.0,0.0,0.0,0.0,0.0,0.0,0.0,0.0,0.0,0.0,0.0,0.0,0.0,0.0,0.0,-2.208,-2.4385,-2.5946,-2.5652,-2.6734,-2.7365,-2.6714,-3.1072,-3.3505,-3.1848,-3.4482,-3.5843,-3.4722,-3.6662,-3.7514,-3.6589,-3.8182,0.0,-3.9534,-3.9634,-3.9697,-3.9697,-3.9697,-3.9697,-3.9697,0.0,0.0,-3.9697,-3.9697,-3.9697,-3.9697,-3.9697,-3.9697,-3.9697,-3.9697,-3.9634,-3.9433,-3.8404,-3.7939,-3.7789,-3.7224,-3.7023,-3.696,-0.5069,-0.5098,-0.5098,-0.5098,-0.5292,-0.5596,-0.6025,-0.6475,-0.7373,-0.9075,-0.9669,-1.0449,-1.1748,-1.2113,-1.224,-1.224,-1.2422,0.0,0.0,-1.4111,-1.4844,-1.5703,-1.6592,-1.7256,-1.7686,-1.8276,-1.8705,-1.8965,-1.9394,-1.9824,-2.0244,-2.0244,-2.04,-2.0605,-2.0605,-2.0605,-2.0605,-2.0605,-2.0605,-2.0566,-2.0088,-1.9658,-1.9143,-1.833,-1.8008,-1.7949,-1.7496,-1.7236,-1.7061,-1.7061,-1.6768,-1.6279,-1.5654,-1.5273,-1.4805,0.0,0.0,0.0,0.0,0.0,0.0,0.0,0.0,0.0,0.0,0.0,0.0,0.0,0.0,-1.873,0.0,0.0,-2.2495,-2.4395,-2.6159,-2.7473,-2.7899,-2.97,-3.05,-2.9201,-3.1749,-3.3827,-3.44,-3.6345,-3.7406,-3.6956,-3.7726,-3.8179,-3.8179,-3.8436,-3.8908,-3.9697,-3.9697,-3.9697,-3.9697,-3.9697,-3.9697,-3.9697,-3.9697,-3.9697,-3.9697,-3.9697,-3.9697,-3.9697,-3.9697,-3.9697,-3.9697,-3.9697,-3.9697,-3.9634,-3.9069,-3.868,-3.8366,-3.7801,-3.76,-3.7513,-0.4991,-0.5059,-0.5098,-0.5098,-0.5488,-0.5929,-0.6348,-0.6797,-0.7642,-0.9172,-0.9513,-1.004,-1.1234,-1.1508,-1.1636,0.0,0.0,0.0,0.0,-1.4424,-1.5322,-1.6183,-1.7041,-1.7705,-1.8125,-1.851,-1.8975,-1.9404,-1.9834,-2.0225,-2.0605,-2.0605,-2.0605,-2.0605,-2.0605,-2.0605,-2.0605,-2.0605,-2.0605,-2.0576,-2.0185,-2.0039,-1.9941,-1.9056,-1.8676,-1.8549,-1.812,-1.7744,-1.7393,-1.748,-1.7217,-1.6797,-1.6467,-1.6349,-1.6046,-1.4463,-1.418,0.0,0.0,0.0,0.0,0.0,0.0,0.0,0.0,-1.7506,-1.7681,-1.8968,-1.9678,-2.0459,-2.1875,-2.2607,-2.383,-2.6275,-2.753,-2.8516,-2.9587,-3.1785,-3.2831,-3.16,-3.2154,-3.3699,-3.6516,-3.7529,-3.8141,-3.8439,-3.8108,-3.8295,-3.9245,-3.8413,-3.8465,-3.9645,-3.9697,-3.9697,-3.9697,-3.9697,-3.9697,-3.9697,-3.9697,-3.9697,-3.9697,-3.9697,-3.9697,-3.9697,-3.9697,-3.9697,-3.9697,-3.9697,-3.9697,-3.9697,-3.9697,-3.9421,-3.8956,-3.8379,-3.8165,-3.8103,0.0,-0.4942,-0.5098,-0.5098,-0.5488,-0.5929,-0.6348,-0.6797,-0.7441,-0.8414,-0.9153,-0.9815,-1.0391,-1.1145,-1.1741,-1.2096,-1.2174,0.0,-1.3958,-1.4835,-1.5732,-1.659,-1.748,-1.8135,-1.852,-1.8994,-1.9424,-1.9844,-2.0283,-2.0556,-2.0605,-2.0605,-2.0605,-2.0605,-2.0605,-2.0605,-2.0605,-2.0605,-2.0605,-2.0595,-2.0546,-2.0537,-2.0439,-1.9541,-1.8975,-1.8549,-1.812,-1.7744,-1.7441,-1.7812,-1.7656,-1.7305,-1.7288,-1.7269,-1.7073,-1.6095,-1.5537,-1.5322,-1.5596,-1.5996,-1.6551,-1.7432,-1.7441,-1.7983,0.0,0.0,-1.9932,-2.125,-2.2158,-2.2773,-2.3022,-2.403,-2.5018,-2.5701,-2.8111,-2.9487,-2.8145,-3.0156,-3.1423,-3.0542,-3.3656,-3.5755,-3.5473,-3.6998,-3.7704,-3.702,-3.8497,-3.8961,-3.7796,-3.8856,-3.953,-3.9685,-3.9697,-3.9697,-3.9697,-3.9697,-3.9697,-3.9697,-3.9697,-3.9697,-3.9697,-3.9697,-3.9697,-3.9697,-3.9697,-3.9697,-3.9697,-3.9697,-3.9697,-3.9697,-3.9697,-3.9647,-3.9534,-3.8981,-3.8781,-3.8693,0.0,-0.5139,-0.5508,-0.5508,-0.5859,-0.6299,-0.6738,-0.7174,-0.7671,-0.8316,-0.8682,-0.9062,-0.9492,-1.0078,-1.0811,-1.178,-1.1836,-1.249,-1.4007,-1.4903,-1.5781,-1.6658,-1.7516,-1.8086,-1.8237,-1.8936,-1.9375,-1.9551,-2.0273,-2.0605,-2.0605,-2.0605,-2.0605,-2.0605,-2.0605,-2.0605,-2.0605,-2.0605,-2.0605,-2.0605,-2.0605,-2.0449,-2.0127,-1.9521,-1.8867,-1.8213,-1.7793,-1.7529,0.0,-1.7295,-1.7116,-1.7002,-1.7002,-1.6826,-1.6525,-1.5899,-1.5918,-1.6356,-1.7314,-1.7881,-1.8359,-1.8965,-1.9375,-2.0019,-2.1543,-2.1455,-2.1357,-2.2402,-2.3096,-2.3594,-2.3848,-2.4541,-2.5569,0.0,-2.9176,-3.0818,-3.102,-3.2688,-3.3696,-3.3367,-3.4843,-3.5798,-3.5669,-3.7084,-3.8104,-3.8398,-3.9225,-3.9413,-3.8792,-3.9362,-3.9697,-3.9697,-3.9697,-3.9697,-3.9697,-3.9697,-3.9697,-3.9697,-3.9697,-3.9697,-3.9697,-3.9697,-3.9697,-3.9697,-3.9697,-3.9697,-3.9697,-3.9697,-3.9697,-3.9697,-3.9697,-3.9697,-3.9672,-3.9433,-3.9346,-3.927,0.0,-0.5335,-0.5848,-0.5969,-0.6232,-0.6585,-0.7037,-0.7447,-0.7827,-0.8154,-0.8316,-0.86,-0.9104,-0.9542,-1.0234,-1.131,-1.1538,-1.222,-1.3665,-1.4697,-1.5635,-1.6514,-1.7373,-1.7949,-1.8174,-1.8789,-1.9228,-1.9463,-2.0116,-2.0488,-2.0605,-2.0605,-2.0605,-2.0605,-2.0605,-2.0605,-2.0605,-2.0605,-2.0605,-2.0595,-2.0478,-2.0195,-1.9844,-1.9189,-1.8477,-1.7783,-1.7353,-1.7041,-1.6797,-1.6443,-1.6258,-1.619,-1.6297,-1.623,-1.6075,-1.5977,-1.666,-1.7588,-1.8237,-1.9043,-1.9746,-2.0176,-2.0898,-2.1658,-2.2139,-2.2236,-2.2402,-2.2974,-2.3486,-2.3887,-2.4189,-2.4697,-2.5809,-2.7921,-2.9854,-3.1448,-3.2463,-3.366,-3.4373,-3.4114,-3.4303,-3.4787,-3.569,-3.7121,-3.8417,-3.9396,-3.9609,-3.9697,-3.9697,-3.9697,-3.9697,-3.9697,-3.9697,-3.9697,-3.9697,-3.9697,-3.9697,-3.9697,-3.9697,-3.9697,-3.9697,-3.9697,-3.9697,-3.9697,-3.9697,-3.9697,-3.9697,-3.9697,-3.9697,-3.9697,-3.9697,-3.9697,-3.9697,-3.9697,-3.9697,-3.9634,0.0,0.0,-0.5944,-0.6406,-0.6489,-0.6638,-0.7036,-0.7447,-0.7705,-0.7715,-0.8115,-0.8708,-0.9485,-1.0,-1.0439,-1.0868,-1.134,-1.1988,-1.2886,-1.4128,-1.5214,-1.6075,-1.6966,-1.7783,-1.8568,-1.8607,-1.9026,-1.9893,-1.9922,-2.0146,-2.0605,-2.0605,-2.0605,-2.0605,-2.0605,-2.0605,-2.0605,-2.0605,-2.0605,-2.0566,-2.0098,-1.9922,-1.9775,-1.8525,-1.7773,-1.7344,-1.6882,-1.6171,-1.5469,-1.543,-1.5176,-1.4922,-1.5322,-1.5732,-1.6261,-1.7103,-1.8223,-1.9043,-1.8242,-1.9248,-2.0674,-2.1044,-2.1836,-2.2588,-2.2964,-2.3052,-2.3062,-2.3091,-2.3486,-2.3799,-2.3809,-2.4502,-2.5809,-2.8028,-2.9843,-3.0869,-3.0469,-3.1217,-3.1495,-3.0543,-3.1256,-3.27,0.0,-3.6911,-3.8253,-3.8906,-3.9396,-3.9697,-3.9697,-3.9697,-3.9697,-3.9697,-3.9697,-3.9697,-3.9697,-3.9697,-3.9697,-3.9697,-3.9697,-3.9697,-3.9697,-3.9697,-3.9697,-3.9697,-3.9697,-3.9697,-3.9697,-3.9697,-3.9697,-3.9697,-3.9697,-3.9697,-3.9697,-3.9697,-3.9697,-3.9697,0.0,0.0,0.0,-0.6117,-0.6549,-0.6847,-0.6725,-0.7049,-0.7392,-0.7666,-0.8105,0.0,0.0,0.0,0.0,0.0,-1.133,-1.1979,-1.2846,-1.4099,-1.5039,-1.5605,-1.6484,-1.7217,-1.7793,-1.8076,-1.8461,-1.9026,-1.9355,-1.957,-1.9754,-1.9754,-1.9754,-1.9754,-1.9754,-1.9754,-1.9754,-1.9754,-1.9873,-2.0098,-1.9668,-1.9502,-1.9424,-1.8666,-1.7627,-1.6486,0.0,-1.5488,-1.4951,-1.463,-1.4445,-1.4348,-1.4494,-1.464,-1.5068,-1.6523,-1.7656,-1.8623,-1.9473,-2.0595,-2.1543,-2.1973,-2.2467,-2.2916,-2.3062,-2.3091,-2.3091,-2.3091,-2.3486,-2.3789,-2.3789,-2.5163,-2.6462,-2.6999,-2.9987,-3.2091,-3.1693,-3.3487,-3.457,-3.385,-3.4378,0.0,0.0,0.0,0.0,-3.8856,-3.9095,-3.9308,-3.9672,-3.9697,-3.9697,-3.9697,-3.9697,-3.9697,-3.9697,-3.9697,-3.9697,-3.9697,-3.9697,-3.9697,-3.9697,-3.9697,-3.9697,-3.9697,-3.9697,-3.9697,-3.9697,-3.9697,-3.9697,-3.9697,-3.9697,-3.9697,-3.9697,-3.9697,-3.9697,-3.9697,0.0,0.0,0.0,0.0,0.0,0.0,0.0,0.0,0.0,0.0,0.0,0.0,0.0,0.0,0.0,0.0,0.0,-1.1663,-1.2387,-1.3502,-1.4355,-1.4903,-1.5625,-1.624,-1.667,-1.6943,-1.733,-1.7925,-1.8208,-1.8535,-1.8828,-1.8828,-1.8906,-1.9053,-1.9053,-1.9141,-1.9277,-1.9121,-1.9209,-1.9358,-1.8672,-1.8379,-1.8291,-1.7549,-1.6475,0.0,-1.4883,-1.4463,-1.4062,-1.3779,-1.3763,-1.3909,-1.4055,-1.4738,-1.5742,-1.7009,-1.8091,-1.9238,-2.0693,-2.1455,-2.206,-2.2793,-2.3013,-2.314,-2.3286,-2.3208,-2.3052,-2.2906,-2.3135,-2.333,-2.333,-2.443,-2.5666,-2.6716,-2.92,-3.121,-3.1779,-3.3505,-3.4751,-3.4884,-3.5379,-3.5918,0.0,0.0,0.0,-3.8504,-3.8944,-3.932,-3.9672,-3.9697,-3.9697,-3.9697,-3.9697,-3.9697,-3.9697,-3.9697,-3.9697,-3.9697,-3.9697,-3.9697,-3.9697,-3.9697,-3.9697,-3.9697,-3.9697,-3.9697,-3.9697,-3.9697,-3.9697,-3.9697,-3.9697,-3.9697,-3.9697,-3.9697,-3.9697,-3.9697,0.0,0.0,0.0,0.0,0.0,0.0,0.0,0.0,0.0,0.0,0.0,0.0,0.0,0.0,0.0,0.0,0.0,0.0,-1.1547,-1.2396,0.0,-1.4007,-1.4502,-1.4951,-1.5371,-1.5381,-1.5771,-1.6629,-1.6629,-1.7048,-1.7881,-1.7881,-1.8052,-1.8432,-1.8432,-1.8666,-1.9062,-1.8617,-1.8451,-1.8364,-1.7126,-1.6648,-1.6531,-1.5293,-1.4531,-1.4055,-1.3656,-1.3271,-1.2935,-1.2964,-1.3271,-1.3724,-1.4143,-1.5985,-1.8091,-1.8539,-1.9609,-2.083,-2.168,-2.1953,-2.2275,-2.3486,-2.3477,-2.3227,-2.3662,-2.3418,-2.2945,-2.2568,-2.2461,-2.2441,0.0,0.0,-2.3731,-2.7003,-2.7751,-2.8656,-3.08,-3.16,-3.2453,0.0,0.0,0.0,0.0,0.0,0.0,-3.8052,0.0,-3.9659,-3.9697,-3.9697,-3.9697,-3.9697,-3.9697,-3.9697,-3.9697,-3.9697,-3.9697,-3.9697,-3.9697,-3.9697,-3.9697,-3.9697,-3.9697,-3.9697,-3.9697,-3.9697,-3.9697,-3.9697,-3.9697,-3.9697,-3.9697,-3.9697,-3.9697,-3.9697,-3.9697,-3.9697,0.0,0.0,0.0,0.0,0.0,0.0,0.0,0.0,0.0,0.0,0.0,0.0,0.0,0.0,0.0,0.0,0.0,0.0,-1.1064,0.0,0.0,0.0,-1.388,-1.4475,-1.4932,-1.4941,-1.5205,-1.5722,-1.5722,-1.5859,-1.6074,-1.6074,-1.6133,-1.621,-1.621,-1.6299,-1.6396,-1.6279,-1.6416,-1.6692,-1.6006,-1.5947,-1.6193,-1.5498,-1.4757,-1.4094,-1.3987,-1.3685,-1.3389,-1.3685,-1.4718,-1.5956,-1.6416,-1.7441,-1.8588,-1.9329,-2.0283,-2.125,-2.2119,-2.2822,-2.3379,-2.3711,-2.3711,-2.3564,-2.3305,-2.2935,-2.2549,-2.2129,-2.1787,-2.1455,-2.1123,0.0,0.0,-2.5244,-2.8392,0.0,-3.2494,-3.3953,0.0,-3.6745,-3.7443,-3.7854,-3.7978,-3.8391,0.0,0.0,-3.8919,-3.9258,-3.9672,-3.9697,-3.9697,-3.9697,-3.9697,-3.9697,-3.9697,-3.9697,-3.9697,-3.9697,-3.9697,-3.9697,-3.9697,-3.9697,-3.9697,-3.9697,-3.9697,-3.9697,-3.9697,-3.9697,-3.9697,-3.9697,-3.9697,-3.9697,-3.9697,-3.9697,-3.9697,-3.9697,0.0,0.0,0.0,0.0,0.0,0.0,0.0,0.0,0.0,0.0,0.0,0.0,0.0,0.0,0.0,0.0,0.0,0.0,0.0,0.0,0.0,-1.2588,-1.3232,-1.3701,-1.3972,-1.4131,-1.4346,-1.458,0.0,0.0,-1.4825,-1.4825,-1.4923,-1.5137,-1.5137,-1.5234,-1.54,-1.5215,0.0,0.0,0.0,-1.4727,-1.4921,-1.4463,-1.4004,-1.3584,-1.3584,-1.4033,-1.4727,0.0,0.0,-1.7399,-1.8242,-1.9082,-1.9874,-2.0576,0.0,-2.2175,-2.2891,-2.3564,-2.4062,-2.4062,-2.3926,-2.3623,-2.2964,-2.2539,-2.1953,-2.0947,-2.0693,-2.042,-1.9834,-2.1847,-2.3879,0.0,0.0,0.0,-3.2705,-3.4051,-3.5506,0.0,-3.8439,0.0,-3.8755,-3.9044,-3.9233,0.0,-3.9233,-3.9371,-3.9672,-3.9697,-3.9697,-3.9697,-3.9697,-3.9697,-3.9697,-3.9697,-3.9697,-3.9697,-3.9697,-3.9697,-3.9697,-3.9697,-3.9697,-3.9697,0.0,-3.9697,-3.9697,-3.9697,-3.9697,-3.9697,-3.9697,-3.9697,-3.9697,-3.9697,-3.9697,-3.9697,0.0,0.0,0.0,0.0,0.0,0.0,0.0,0.0,0.0,0.0,-0.8538,0.0,0.0,0.0,0.0,0.0,0.0,0.0,0.0,0.0,0.0,-1.2184,-1.2646,-1.2905,-1.2905,-1.3242,-1.3418,-1.3418,0.0,0.0,0.0,0.0,0.0,0.0,0.0,0.0,0.0,0.0,0.0,0.0,-1.3721,-1.3418,-1.3379,0.0,0.0,0.0,-1.3032,-1.4265,-1.6016,-1.7158,-1.7939,-1.8643,-1.9814,-2.0781,-2.1522,-2.1943,-2.2607,-2.3276,-2.376,-2.418,-2.4492,-2.4434,-2.4141,-2.3623,-2.2646,-2.206,-2.123,-1.9551,-1.9404,-1.9355,-1.8568,-1.9632,-2.1587,-2.4441,0.0,-2.7099,-3.2414,-3.3202,-3.4348,-3.735,-3.8452,-3.917,-3.9647,-3.9697,-3.9697,-3.9697,-3.9697,-3.9697,-3.9697,-3.9697,-3.9697,-3.9697,-3.9697,-3.9697,-3.9697,-3.9697,-3.9697,-3.9697,-3.9697,-3.9697,-3.9697,-3.9697,-3.9697,-3.9697,0.0,0.0,-3.9697,-3.9697,-3.9697,-3.9697,-3.9697,-3.9697,-3.9697,-3.9697,-3.9697,-3.9697,0.0,0.0,0.0,0.0,0.0,0.0,0.0,0.0,0.0,0.0,-0.8073,-0.8348,0.0,0.0,0.0,0.0,0.0,0.0,0.0,0.0,0.0,0.0,-1.2646,-1.2905,-1.2905,-1.2983,-1.2988,0.0,0.0,0.0,0.0,0.0,0.0,0.0,0.0,0.0,0.0,0.0,0.0,0.0,0.0,-1.2988,-1.3013,0.0,0.0,0.0,-1.3636,-1.4124,-1.4845,-1.7496,-1.9387,-2.0732,-2.1357,-2.2129,-2.2779,-2.2857,-2.3281,-2.3769,-2.4189,-2.4629,-2.4863,-2.4502,-2.4365,-2.3896,-2.2353,-2.1377,0.0,-1.8997,-1.8252,-1.7773,-1.7627,-1.9381,-2.1639,-2.4016,-2.5276,-2.7832,-3.3371,-3.3625,-3.4599,0.0,-3.9167,-3.9584,-3.9685,-3.9697,0.0,0.0,0.0,0.0,-3.9697,-3.9697,-3.9697,-3.9697,-3.9697,-3.9697,-3.9697,-3.9697,-3.9697,-3.9697,-3.9697,-3.9697,-3.9697,-3.9697,-3.9697,-3.9697,0.0,0.0,-3.9697,-3.9697,-3.9697,-3.9697,-3.9697,-3.9697,-3.9697,-3.9697,-3.9697,-3.9697,0.0,0.0,0.0,0.0,0.0,0.0,0.0,-0.6633,-0.722,-0.7818,-0.8172,-0.8614,-0.926,-0.955,-0.9866,0.0,0.0,0.0,0.0,0.0,0.0,0.0,0.0,-1.2905,-1.2905,0.0,0.0,0.0,0.0,0.0,0.0,0.0,0.0,0.0,0.0,0.0,0.0,0.0,0.0,0.0,0.0,0.0,0.0,0.0,0.0,0.0,0.0,-1.4211,-1.503,-1.6728,-1.8603,-2.0459,-2.1787,-2.2637,-2.3091,-2.3091,-2.3603,-2.416,-2.4365,-2.4902,-2.5254,-2.458,-2.4248,-2.3584,-2.1641,0.0,0.0,-1.7925,-1.7291,-1.6904,-1.6445,-1.8198,0.0,-2.3016,-2.4303,-2.714,-3.3288,-3.3718,-3.4748,-3.8454,-3.9358,-3.9697,-3.9697,-3.9697,0.0,0.0,0.0,0.0,-3.9697,-3.9697,-3.9697,-3.9697,-3.9697,-3.9697,-3.9697,-3.9697,-3.9697,-3.9697,-3.9697,-3.9697,-3.9697,-3.9697,-3.9697,-3.9697,0.0,0.0,-3.9697,-3.9697,-3.9697,-3.9697,-3.9697,-3.9697,-3.9697,-3.9697,-3.9697,-3.9697,0.0,0.0,0.0,0.0,0.0,0.0,0.0,-0.6947,-0.7386,-0.7932,-0.8424,-0.8995,-0.9675,-0.9843,-0.9929,0.0,0.0,0.0,0.0,0.0,0.0,0.0,0.0,0.0,0.0,0.0,0.0,0.0,0.0,0.0,0.0,0.0,0.0,0.0,0.0,0.0,0.0,0.0,0.0,0.0,0.0,0.0,0.0,0.0,0.0,0.0,0.0,0.0,-1.499,-1.5821,-1.722,-1.8955,-2.1025,-2.2227,-2.2828,-2.2828,-2.3559,-2.4414,-2.4414,-2.5021,-2.5479,-2.4639,-2.4102,-2.3203,-2.0937,-1.9766,-1.8662,-1.6943,-1.6482,-1.6239,-1.5664,-1.6989,-1.9184,0.0,-2.3123,-2.5755,-3.2568,-3.3349,-3.4522,0.0,-3.9207,0.0,-3.9697,-3.9697,0.0,0.0,0.0,0.0,-3.9697,-3.9697,-3.9697,-3.9697,-3.9697,-3.9697,-3.9697,-3.9697,-3.9697,-3.9697,-3.9697,-3.9697,-3.9697,-3.9697,-3.9697,-3.9697,0.0,0.0,0.0,-3.9697,-3.9697,-3.9697,-3.9697,-3.9697,-3.9697,-3.9697,-3.9697,-3.9697,0.0,0.0,0.0,0.0,0.0,0.0,0.0,-0.7286,-0.7939,-0.8315,-0.8608,-0.8913,-0.9234,-0.9645,-0.9708,0.0,0.0,0.0,0.0,0.0,0.0,0.0,0.0,0.0,0.0,0.0,0.0,0.0,0.0,0.0,0.0,0.0,0.0,0.0,0.0,0.0,0.0,0.0,0.0,0.0,0.0,0.0,0.0,0.0,0.0,0.0,0.0,0.0,0.0,0.0,0.0,-1.6692,-1.8437,-2.0371,-2.2002,-2.2002,0.0,0.0,-2.4414,-2.5021,-2.5479,-2.4639,-2.4102,-2.3125,-2.0557,0.0,-1.8178,-1.6506,-1.5811,-1.5625,-1.5977,-1.6504,-1.8243,-2.2466,-2.2185,-2.3995,-3.1334,-3.2259,-3.3496,-3.6931,0.0,0.0,-3.9697,0.0,0.0,0.0,0.0,0.0,0.0,-3.9697,-3.9697,-3.9697,-3.9697,-3.9697,-3.9697,-3.9697,-3.9697,-3.9697,-3.9697,-3.9697,-3.9697,-3.9697,-3.9697,-3.9697,0.0,0.0,0.0,-3.9697,-3.9697,-3.9697,-3.9697,-3.9697,-3.9697,-3.9697,-3.9697,-3.9697,0.0,0.0,0.0,0.0,0.0,0.0,-0.678,-0.7308,-0.7889,-0.8544,-0.8584,-0.8666,-0.8926,-0.9635,-1.0061,-1.0017,0.0,0.0,0.0,0.0,0.0,0.0,0.0,0.0,0.0,0.0,0.0,0.0,0.0,0.0,0.0,0.0,0.0,0.0,0.0,0.0,0.0,0.0,0.0,0.0,0.0,0.0,0.0,0.0,0.0,0.0,0.0,0.0,0.0,0.0,0.0,0.0,-1.5761,-1.7422,0.0,0.0,-2.2334,-2.3389,-2.3906,-2.4482,-2.4795,-2.4189,-2.3525,-2.2471,-2.0391,-1.9026,-1.7842,-1.6398,-1.5743,-1.5469,-1.5635,-1.6035,-1.7439,-2.0801,-2.1379,-2.3183,-2.8122,-3.0198,-3.2232,-3.501,-3.7008,0.0,0.0,0.0,0.0,0.0,0.0,0.0,0.0,-3.9697,-3.9697,-3.9697,-3.9697,-3.9697,-3.9697,-3.9697,-3.9697,-3.9697,-3.9697,-3.9697,-3.9697,-3.9697,-3.9697,-3.9697,0.0,0.0,0.0,-3.9697,-3.9697,-3.9697,-3.9697,-3.9697,-3.9697,-3.9697,-3.9697,-3.9697,0.0,0.0,0.0,0.0,0.0,-0.6357,-0.682,-0.7301,-0.7862,-0.8584,-0.8577,-0.8577,-0.8784,-0.9738,-1.0463,-1.0649,-1.1421,0.0,0.0,0.0,0.0,0.0,0.0,0.0,0.0,0.0,-1.2905,-1.2905,-1.3032,0.0,0.0,0.0,0.0,0.0,0.0,0.0,0.0,0.0,0.0,0.0,0.0,0.0,0.0,0.0,0.0,0.0,0.0,0.0,0.0,0.0,0.0,0.0,0.0,-1.5361,-1.7285,-1.9709,-2.1348,-2.2519,-2.3369,-2.4004,-2.4316,-2.3896,-2.3144,-2.2021,-2.0156,-1.8838,-1.7607,-1.6162,-1.5625,-1.541,-1.541,-1.5762,-1.6992,-1.9661,-2.0813,-2.2673,-2.6527,-2.8942,-3.1218,0.0,0.0,0.0,0.0,0.0,0.0,0.0,0.0,0.0,0.0,-3.9697,-3.9697,-3.9697,-3.9697,-3.9697,-3.9697,-3.9697,-3.9697,-3.9697,-3.9697,-3.9697,-3.9697,-3.9697,-3.9697,0.0,0.0,0.0,0.0,-3.9697,-3.9697,-3.9697,-3.9697,-3.9697,-3.9697,-3.9697,-3.9697,-3.9697,0.0,0.0,0.0,0.0,0.0,0.0,-0.6566,-0.7326,-0.8012,-0.8362,-0.8624,-0.8804,-0.8804,-0.9987,-1.078,-1.0805,-1.1044,0.0,0.0,0.0,0.0,0.0,0.0,0.0,0.0,0.0,-1.2905,-1.2905,-1.3301,-1.3291,-1.2915,0.0,0.0,0.0,0.0,0.0,0.0,0.0,0.0,0.0,0.0,0.0,0.0,0.0,0.0,0.0,0.0,0.0,0.0,0.0,0.0,0.0,0.0,-1.4708,-1.5859,-1.7993,-2.0195,-2.2122,-2.2983,-2.3779,-2.4316,-2.3896,-2.3144,-2.1943,-1.9785,-1.8623,-1.7519,-1.5781,-1.5391,-1.541,-1.541,-1.5762,-1.6992,-1.9661,-2.0488,-2.2493,-2.7408,-2.9062,0.0,0.0,0.0,0.0,0.0,0.0,0.0,0.0,0.0,0.0,0.0,0.0,-3.9697,-3.9697,-3.9697,-3.9697,-3.9697,-3.9697,-3.9697,-3.9697,-3.9697,-3.9697,-3.9697,-3.9697,0.0,0.0,0.0,0.0,0.0,-3.9697,-3.9697,-3.9697,-3.9697,-3.9697,-3.9697,-3.9697,-3.9697,-3.9697,0.0,0.0,0.0,0.0,0.0,0.0,0.0,-0.6834,-0.7268,-0.7976,-0.7963,-0.7969,-0.8159,-0.9588,-1.0327,-0.9875,-1.1376,0.0,0.0,0.0,0.0,0.0,0.0,0.0,0.0,-1.2905,-1.3018,-1.3311,-1.3447,-1.3584,-1.3714,-1.3584,-1.3437,0.0,0.0,0.0,0.0,0.0,0.0,0.0,0.0,0.0,0.0,0.0,0.0,0.0,0.0,0.0,0.0,0.0,0.0,0.0,0.0,0.0,0.0,-1.5946,-1.7935,-1.9785,-2.0361,-2.0918,-2.124,-2.081,-2.0508,-1.9902,-1.834,-1.7773,-1.7168,-1.5713,-1.541,-1.541,-1.541,-1.5527,-1.6727,-2.0104,-2.1114,-2.2651,0.0,0.0,0.0,0.0,0.0,0.0,0.0,0.0,0.0,0.0,0.0,0.0,0.0,0.0,-3.9697,-3.9697,-3.9697,-3.9697,-3.9697,-3.9697,-3.9697,-3.9697,-3.9697,-3.9697,-3.9697,-3.9697,0.0,0.0,0.0,0.0,0.0,-3.9697,-3.9697,-3.9697,-3.9697,-3.9697,-3.9697,-3.9697,-3.9697,-3.9697,0.0,0.0,0.0,0.0,0.0,0.0,0.0,-0.6633,-0.6994,-0.7669,-0.7689,-0.7715,-0.7885,-0.9182,-0.9858,-0.9426,-1.1052,0.0,0.0,0.0,0.0,0.0,0.0,0.0,-1.2905,-1.2905,-1.3111,-1.3506,-1.3828,-1.4043,-1.4104,-1.4172,-1.3965,-1.3496,-1.3232,0.0,0.0,0.0,0.0,0.0,0.0,0.0,0.0,0.0,0.0,0.0,0.0,0.0,0.0,0.0,0.0,0.0,0.0,0.0,0.0,0.0,-1.5869,-1.7451,-1.8701,-1.9355,-1.9609,-1.9346,-1.916,-1.875,-1.7637,-1.7256,-1.6816,-1.5644,-1.5613,-1.5719,-1.5439,-1.5771,-1.6995,-1.9845,-2.1101,-2.2747,0.0,0.0,0.0,0.0,0.0,0.0,0.0,0.0,0.0,0.0,0.0,0.0,0.0,0.0,-3.9697,-3.9697,-3.9697,-3.9697,-3.9697,-3.9697,-3.9697,-3.9697,-3.9697,-3.9697,-3.9697,0.0,0.0,0.0,0.0,0.0,0.0,-3.9697,-3.9697,-3.9697,-3.9697,-3.9697,-3.9697,-3.9697,-3.9697,-3.9697,0.0,0.0,0.0,0.0,0.0,0.0,0.0,-0.66,-0.7068,-0.7383,-0.7675,-0.7839,-0.7839,-0.8784,-0.942,-0.9371,0.0,0.0,0.0,0.0,0.0,0.0,0.0,0.0,-1.2905,-1.2905,-1.3105,-1.3555,-1.4375,-1.4609,-1.426,-1.5059,-1.4795,-1.3594,-1.3564,-1.3301,0.0,0.0,0.0,0.0,0.0,0.0,0.0,0.0,0.0,0.0,0.0,0.0,0.0,0.0,0.0,0.0,0.0,0.0,0.0,0.0,0.0,0.0,0.0,-1.8652,-1.9004,-1.8975,-1.8711,-1.8208,-1.7432,-1.6953,0.0,-1.5556,-1.595,-1.6239,-1.5645,-1.6414,-1.766,-1.9325,-2.0801,-2.2881,0.0,0.0,0.0,0.0,0.0,0.0,0.0,0.0,0.0,0.0,0.0,0.0,0.0,0.0,0.0,-3.9697,-3.9697,-3.9697,-3.9697,-3.9697,-3.9697,-3.9697,-3.9697,-3.9697,-3.9697,0.0,0.0,0.0,0.0,0.0,0.0,-3.9697,-3.9697,-3.9697,-3.9697,-3.9697,-3.9697,-3.9697,-3.9697,-3.9697,0.0,0.0,0.0,0.0,0.0,0.0,0.0,0.0,0.0,0.0,-0.7054,-0.7213,-0.7213,-0.8746,-0.9571,0.0,0.0,0.0,0.0,0.0,0.0,0.0,0.0,0.0,-1.2905,-1.2905,-1.3242,-1.3958,-1.4521,-1.5068,-1.5645,-1.585,-1.5429,-1.4473,-1.4104,-1.3549,0.0,0.0,0.0,0.0,0.0,0.0,0.0,0.0,0.0,0.0,0.0,-1.2905,0.0,0.0,0.0,0.0,0.0,0.0,0.0,0.0,-1.3652,-1.4014,-1.4913,0.0,-1.624,-1.5918,-1.629,-1.6523,0.0,-1.6055,-1.6064,-1.5527,-1.5555,-1.592,-1.676,-1.6631,-1.7739,-2.1978,-2.2729,-2.4108,0.0,0.0,0.0,0.0,0.0,0.0,0.0,0.0,0.0,0.0,0.0,0.0,0.0,0.0,0.0,-3.9697,-3.9697,-3.9697,-3.9697,-3.9697,-3.9697,-3.9697,-3.9697,-3.9697,-3.9697,0.0,0.0,0.0,0.0,0.0,0.0,-3.9697,-3.9697,-3.9697,-3.9697,-3.9697,-3.9697,-3.9697,-3.9697,-3.9697,0.0,0.0,0.0,0.0,0.0,0.0,0.0,0.0,0.0,0.0,0.0,-0.7,-0.7,-0.8468,0.0,0.0,0.0,0.0,0.0,0.0,0.0,0.0,0.0,-1.2905,-1.2905,-1.2905,-1.3291,-1.4104,-1.457,-1.5253,-1.6095,-1.6095,-1.5635,-1.4746,-1.3926,-1.3311,0.0,0.0,0.0,0.0,0.0,0.0,0.0,0.0,0.0,0.0,-1.2905,-1.2905,0.0,-1.3584,-1.3636,-1.3545,0.0,0.0,0.0,0.0,-1.3223,-1.3271,-1.3496,-1.4609,-1.5654,-1.5459,-1.5879,-1.6309,-1.6044,-1.5889,-1.5693,-1.5459,-1.5671,-1.6204,-1.7205,-1.7698,-1.9111,-2.2753,-2.3816,0.0,0.0,0.0,0.0,0.0,0.0,0.0,0.0,0.0,0.0,0.0,0.0,0.0,0.0,0.0,0.0,0.0,-3.9697,-3.9697,-3.9697,-3.9697,-3.9697,-3.9697,-3.9697,-3.9697,-3.9697,0.0,0.0,0.0,0.0,0.0,-3.9697,-3.9697,-3.9697,-3.9697,-3.9697,-3.9697,-3.9697,-3.9697,-3.9697,-3.9697,0.0,0.0,0.0,0.0,0.0,0.0,0.0,0.0,0.0,0.0,0.0,0.0,0.0,0.0,0.0,0.0,0.0,0.0,0.0,0.0,0.0,0.0,-1.2905,-1.2935,-1.3003,-1.2935,-1.3291,-1.4104,-1.4697,-1.5381,-1.6105,-1.6359,-1.5919,-1.4834,-1.3613,-1.2998,0.0,0.0,0.0,0.0,0.0,0.0,0.0,0.0,0.0,0.0,0.0,0.0,0.0,-1.3701,-1.3763,-1.3617,-1.3851,0.0,0.0,0.0,0.0,0.0,-1.314,-1.4666,-1.6134,-1.586,-1.6299,-1.6765,-1.6629,-1.6073,-1.5615,-1.5615,-1.621,-1.6958,-1.777,-1.9232,0.0,0.0,0.0,0.0,0.0,0.0,0.0,0.0,0.0,0.0,0.0,0.0,0.0,0.0,0.0,0.0,0.0,0.0,0.0,0.0,-3.9697,-3.9697,-3.9697,-3.9697,-3.9697,-3.9697,-3.9697,-3.9697,-3.9697,-3.9697,0.0,0.0,0.0,0.0,-3.9697,-3.9697,-3.9697,-3.9697,-3.9697,-3.9697,-3.9697,-3.9697,-3.9697,-3.9697,0.0,0.0,0.0,0.0,0.0,0.0,0.0,0.0,0.0,0.0,0.0,0.0,0.0,0.0,0.0,0.0,0.0,0.0,0.0,0.0,0.0,-1.2847,-1.2905,-1.3071,-1.3408,-1.3066,-1.3291,-1.4104,-1.5303,-1.5968,-1.6124,-1.7559,-1.7197,-1.5273,-1.4328,-1.3545,-1.2905,-1.2905,0.0,0.0,0.0,0.0,0.0,0.0,0.0,0.0,0.0,0.0,0.0,-1.3027,-1.3506,-1.3899,-1.3281,0.0,0.0,0.0,0.0,0.0,-1.4226,-1.5537,-1.6239,-1.4767,-1.5869,-1.709,-1.6369,-1.6357,-1.6502,-1.6502,-1.7185,-1.828,-1.9957,-2.0863,-2.2512,0.0,0.0,0.0,0.0,0.0,0.0,0.0,0.0,0.0,0.0,0.0,0.0,0.0,0.0,0.0,0.0,0.0,0.0,0.0,0.0,-3.9697,-3.9697,-3.9697,-3.9697,-3.9697,-3.9697,-3.9697,-3.9697,-3.9697,-3.9697,0.0,0.0,0.0,-3.9697,-3.9697,-3.9697,-3.9697,-3.9697,-3.9697,-3.9697,-3.9697,-3.9697,-3.9697,0.0,0.0,0.0,0.0,0.0,0.0,0.0,0.0,0.0,0.0,0.0,0.0,0.0,0.0,0.0,0.0,0.0,0.0,0.0,0.0,-1.2129,-1.2881,-1.2905,-1.3076,-1.3496,-1.3545,-1.3948,-1.4796,-1.5898,-1.6543,-1.6809,-1.6855,-1.6083,-1.466,-1.3812,-1.3242,-1.2905,-1.2905,-1.2905,0.0,0.0,0.0,0.0,0.0,0.0,0.0,0.0,0.0,0.0,0.0,-1.3597,-1.3997,-1.3408,0.0,0.0,0.0,0.0,0.0,-1.3619,-1.4863,-1.58,-1.5001,-1.6631,-1.8369,-1.8184,-1.7949,-1.773,-1.773,-1.8466,-1.9637,0.0,0.0,-2.485,-2.8482,0.0,0.0,0.0,0.0,0.0,0.0,0.0,0.0,0.0,0.0,0.0,0.0,0.0,0.0,0.0,0.0,0.0,0.0,0.0,0.0,-3.8781,-3.9094,-3.9396,-3.9697,-3.9697,-3.9697,-3.9697,-3.9697,-3.9697,0.0,0.0,-3.9697,-3.9697,-3.9697,-3.9697,-3.9697,-3.9697,-3.9697,-3.9697,-3.9697,-3.9697,-3.9697,0.0,0.0,0.0,0.0,0.0,0.0,0.0,0.0,0.0,0.0,0.0,0.0,0.0,0.0,0.0,0.0,0.0,0.0,0.0,-1.1613,-1.2192,-1.2871,-1.2905,-1.3125,-1.3617,-1.3938,-1.4523,-1.541,-1.6365,-1.7109,-1.75,-1.6289,-1.5176,-1.4221,-1.3506,-1.3091,-1.2905,-1.2905,-1.2905,0.0,0.0,0.0,0.0,0.0,0.0,0.0,0.0,0.0,0.0,0.0,0.0,0.0,0.0,0.0,0.0,-1.3096,-1.2905,-1.2998,-1.3442,-1.4454,-1.5508,-1.596,-1.7494,-1.9004,-1.9629,-1.9351,-1.9088,-1.9372,-2.0428,-2.167,0.0,-2.504,0.0,0.0,0.0,0.0,0.0,0.0,0.0,0.0,0.0,0.0,0.0,0.0,0.0,0.0,0.0,0.0,0.0,0.0,0.0,0.0,0.0,0.0,-3.8002,-3.8442,-3.8944,-3.9496,-3.9634,-3.9697,-3.9697,-3.9697,-3.9697,-3.9697,-3.9697,-3.9697,-3.9697,-3.9697,-3.9697,-3.9697,-3.9697,-3.9697,-3.9697,-3.9697,-3.9697,-3.9697,0.0,0.0,0.0,0.0,0.0,0.0,0.0,0.0,0.0,0.0,0.0,0.0,0.0,0.0,0.0,0.0,0.0,0.0,0.0,-1.1551,-1.2381,-1.2886,-1.2905,-1.3262,-1.4046,-1.4094,-1.4523,-1.541,-1.6709,-1.7549,-1.7949,-1.7019,-1.5927,-1.4717,-1.4221,-1.3613,-1.2905,-1.2905,-1.2905,-1.2905,-1.2905,0.0,0.0,0.0,0.0,0.0,0.0,0.0,0.0,0.0,0.0,0.0,0.0,0.0,-1.3467,-1.3042,-1.2905,-1.3283,-1.503,-1.5461,-1.5841,-1.7644,-1.781,-1.7842,-1.9053,-1.9788,-2.0501,-2.1702,-2.3492,-2.5004,0.0,-2.8183,0.0,0.0,0.0,0.0,0.0,0.0,0.0,0.0,0.0,0.0,0.0,0.0,0.0,0.0,0.0,0.0,0.0,0.0,0.0,0.0,0.0,0.0,-3.8002,-3.8052,-3.8366,-3.8931,-3.9446,-3.9697,-3.9697,-3.9697,-3.9697,-3.9697,-3.9697,-3.9697,-3.9697,-3.9697,-3.9697,-3.9697,-3.9697,-3.9697,-3.9697,-3.9697,-3.9697,-3.9697,0.0,0.0,0.0,0.0,0.0,0.0,0.0,0.0,0.0,0.0,0.0,0.0,0.0,0.0,0.0,0.0,0.0,0.0,0.0,-1.1269,-1.2281,-1.2471,-1.2734,-1.3154,-1.3704,-1.4494,-1.5332,-1.62,-1.7002,-1.7461,-1.7588,-1.6182,-1.5117,-1.4346,-1.3662,-1.332,-1.3252,-1.3013,-1.3027,-1.3242,-1.3013,0.0,0.0,0.0,0.0,0.0,0.0,0.0,0.0,0.0,-1.3164,-1.3437,-1.3042,-1.3174,-1.3494,-1.348,-1.319,-1.315,-1.4231,-1.565,-1.685,-1.69,-1.8082,-1.9356,-1.9962,-2.1726,-2.3366,-2.3849,-2.5289,-2.6765,-2.7631,0.0,0.0,0.0,0.0,0.0,0.0,0.0,0.0,0.0,0.0,0.0,0.0,0.0,0.0,0.0,0.0,0.0,0.0,0.0,0.0,0.0,0.0,0.0,0.0,-3.7324,-3.7613,-3.7826,-3.8379,-3.8642,-3.8642,-3.8642,-3.8642,-3.8642,-3.8642,-3.8642,-3.8642,-3.8642,-3.8642,-3.8642,-3.8642,-3.8868,-3.9182,-3.9182,-3.9182,-3.9182,0.0,0.0,0.0,0.0,0.0,0.0,0.0,0.0,0.0,0.0,0.0,0.0,0.0,0.0,0.0,0.0,0.0,0.0,-0.9281,-1.0853,-1.1911,-1.2194,-1.252,-1.2939,-1.3496,-1.4492,-1.541,-1.6287,-1.6894,-1.7031,-1.6738,-1.5537,-1.4678,-1.4075,-1.3389,-1.3242,-1.3477,-1.3057,-1.3071,-1.3281,-1.3023,-1.2905,0.0,0.0,0.0,0.0,0.0,0.0,0.0,0.0,-1.3076,-1.3262,-1.2993,-1.3076,-1.3342,-1.3487,-1.3415,-1.3422,-1.4035,-1.5557,-1.6898,-1.6638,-1.8432,-2.0303,-2.0521,-2.2685,-2.487,-2.5576,-2.7122,-2.8553,-2.9299,0.0,0.0,0.0,0.0,0.0,0.0,0.0,0.0,0.0,0.0,0.0,0.0,0.0,0.0,0.0,0.0,0.0,0.0,0.0,0.0,0.0,0.0,0.0,0.0,-3.6782,-3.6971,-3.6923,-3.7312,-3.7663,-3.8002,-3.8002,-3.8002,-3.8002,-3.8002,-3.8002,-3.8002,-3.8002,-3.8002,-3.8002,-3.8002,-3.8253,-3.8592,-3.8592,-3.8592,-3.8592,0.0,0.0,0.0,0.0,0.0,0.0,0.0,0.0,0.0,0.0,0.0,0.0,0.0,0.0,0.0,0.0,0.0,0.0,-0.9265,-1.0308,-1.1277,-1.2164,-1.2203,-1.2603,-1.3486,-1.389,-1.4523,-1.541,-1.6258,-1.6239,-1.5371,-1.54,-1.4913,-1.4085,-1.3665,-1.3506,-1.3477,-1.3057,-1.2905,-1.2915,-1.2905,-1.2905,-1.2905,0.0,0.0,0.0,0.0,0.0,0.0,0.0,-1.2905,-1.2905,-1.2905,-1.2905,-1.2915,-1.2905,-1.3477,-1.4254,-1.4914,-1.5255,-1.5802,-1.7236,-1.8876,-2.0205,-2.0541,-2.2349,-2.457,-2.6862,-2.908,-3.0633,-3.062,-3.1047,0.0,0.0,0.0,0.0,0.0,0.0,0.0,0.0,0.0,0.0,0.0,0.0,0.0,0.0,0.0,0.0,0.0,0.0,0.0,0.0,0.0,0.0,0.0,-3.6405,-3.6405,-3.6405,-3.6405,-3.6935,-3.799,-3.799,-3.799,-3.799,-3.799,-3.799,-3.799,-3.799,-3.799,-3.799,-3.799,-3.799,-3.8002,-3.8002,-3.8002,-3.8002,0.0,0.0,0.0,0.0,0.0,0.0,0.0,0.0,0.0,0.0,0.0,0.0,0.0,0.0,0.0,0.0,0.0,0.0,-0.9398,-1.0365,-1.1162,-1.1751,-1.2038,-1.2467,-1.3057,-1.3477,-1.4231,-1.541,-1.5644,-1.5518,-1.4961,-1.463,-1.4192,-1.3665,-1.3539,-1.3506,-1.3477,-1.3057,-1.3047,-1.3301,-1.2998,-1.2905,-1.2905,0.0,0.0,0.0,0.0,0.0,0.0,0.0,0.0,0.0,-1.2905,-1.3086,-1.3427,-1.4002,-1.4223,-1.4459,-1.5084,-1.6656,-1.8042,-1.7565,-1.9774,-2.2149,-2.2542,-2.4531,-2.6934,-2.9145,-3.0737,-3.1625,-3.1235,0.0,0.0,0.0,0.0,0.0,0.0,0.0,0.0,0.0,0.0,0.0,0.0,0.0,0.0,0.0,0.0,0.0,0.0,0.0,0.0,0.0,0.0,0.0,0.0,0.0,-3.5981,-3.6405,-3.6405,-3.6581,-3.6895,-3.6895,-3.6895,-3.6895,-3.6895,-3.6895,-3.6895,-3.6895,-3.6895,-3.6895,-3.6895,-3.7086,-3.7425,-3.7425,-3.7425,-3.7425,0.0,0.0,0.0,0.0,0.0,0.0,0.0,0.0,0.0,0.0,-0.7,-0.7,0.0,0.0,0.0,0.0,0.0,0.0,0.0,-1.0238,-1.0948,-1.1577,-1.1839,-1.2256,-1.2895,-1.3291,-1.3799,-1.4404,-1.4746,-1.4687,-1.4277,-1.4355,-1.4133,-1.3743,-1.3936,-1.3916,-1.3704,-1.3311,-1.3184,-1.3232,-1.3013,-1.2905,-1.2905,0.0,0.0,0.0,0.0,0.0,0.0,0.0,0.0,0.0,-1.2905,-1.3244,-1.3709,-1.4107,-1.4552,-1.5148,-1.6174,-1.7482,-1.8649,-1.9097,-2.0628,-2.2468,-2.4304,-2.6388,0.0,0.0,-3.1286,-3.1788,-3.1449,0.0,0.0,0.0,0.0,0.0,0.0,0.0,0.0,0.0,0.0,0.0,0.0,0.0,0.0,0.0,0.0,0.0,0.0,0.0,0.0,0.0,0.0,0.0,0.0,0.0,0.0,-3.5717,-3.5931,-3.6031,-3.6044,-3.6304,-3.6405,-3.6405,-3.6405,-3.6405,-3.6405,-3.6405,-3.6405,-3.6405,-3.6405,-3.6619,-3.6908,-3.6908,-3.6908,-3.6908,0.0,0.0,0.0,0.0,0.0,0.0,0.0,0.0,0.0,0.0,-0.7,-0.7,0.0,0.0,0.0,0.0,0.0,0.0,0.0,-1.002,-1.0684,-1.1567,-1.1685,-1.2083,-1.2886,-1.3262,-1.3262,-1.2905,-1.3656,-1.3831,-1.3467,-1.4326,-1.4492,-1.4065,-1.4531,-1.4482,-1.4026,-1.3633,-1.3232,-1.2905,-1.2905,-1.2905,-1.2905,-1.2905,0.0,0.0,0.0,0.0,0.0,0.0,0.0,0.0,-1.3017,-1.3426,-1.3844,-1.3721,-1.4665,-1.6115,-1.7795,-1.7853,-1.8241,-2.135,-2.1717,0.0,-2.5702,-2.7772,-2.9294,-3.0396,0.0,-3.1386,0.0,0.0,0.0,0.0,0.0,0.0,0.0,0.0,0.0,0.0,0.0,0.0,0.0,0.0,0.0,0.0,0.0,0.0,0.0,0.0,0.0,0.0,0.0,0.0,0.0,0.0,0.0,0.0,-3.5182,-3.542,-3.5445,-3.6094,-3.6405,-3.6405,-3.6405,-3.6405,-3.6405,-3.6405,-3.6405,-3.6405,-3.6405,-3.6405,-3.6405,-3.6405,-3.6405,-3.6405,0.0,0.0,0.0,0.0,0.0,0.0,0.0,0.0,0.0,0.0,0.0,0.0,0.0,0.0,0.0,0.0,0.0,0.0,0.0,-1.0244,-1.0684,-1.1567,-1.225,-1.2709,-1.2905,-1.2969,-1.2993,-1.2905,-1.3389,-1.3428,-1.3062,-1.3877,-1.4016,-1.3662,-1.4055,-1.4016,-1.3588,-1.3193,-1.2993,-1.2905,-1.2905,-1.2905,-1.2905,-1.2905,-1.2905,0.0,0.0,0.0,0.0,0.0,0.0,0.0,-1.4001,-1.4296,-1.4397,-1.4992,-1.5514,-1.6325,-1.8108,-1.8344,0.0,-2.2443,-2.491,-2.6485,-2.6494,-2.8134,-2.9793,-3.048,-3.1035,0.0,0.0,0.0,0.0,0.0,0.0,0.0,0.0,0.0,0.0,0.0,0.0,0.0,0.0,0.0,0.0,0.0,0.0,0.0,0.0,0.0,0.0,0.0,0.0,0.0,-3.4073,-3.4073,-3.4299,0.0,-3.4806,-3.4856,-3.4926,-3.5906,-3.6405,-3.6405,-3.6405,-3.6405,-3.6405,-3.6405,-3.6405,-3.6405,-3.6405,-3.6405,-3.6405,-3.6405,-3.6405,-3.6405,0.0,0.0,0.0,0.0,0.0,0.0,0.0,0.0,0.0,0.0,0.0,0.0,0.0,0.0,0.0,0.0,0.0,0.0,0.0,-1.0157,-1.0684,-1.1567,-1.2207,-1.2568,-1.2568,-1.2568,-1.2568,-1.2568,-1.2759,-1.2891,-1.2925,-1.3714,-1.3987,-1.3802,-1.4231,-1.4182,-1.3753,-1.3359,-1.3091,-1.2905,-1.2905,-1.2905,-1.2886,-1.2646,-1.2695,-1.2876,-1.2646,0.0,0.0,0.0,0.0,0.0,0.0,0.0,-1.4666,-1.5267,-1.5785,-1.665,-1.8907,0.0,0.0,-2.2754,0.0,-2.7197,-2.6637,-2.7787,-2.9231,-3.0038,0.0,0.0,0.0,0.0,0.0,0.0,0.0,0.0,0.0,0.0,0.0,0.0,0.0,0.0,0.0,0.0,0.0,0.0,0.0,0.0,0.0,0.0,0.0,0.0,0.0,0.0,-3.3508,-3.3508,-3.3658,-3.3935,-3.4198,-3.4462,-3.4751,-3.5592,-3.5968,-3.5994,-3.6292,-3.6405,-3.6405,-3.6405,-3.6405,-3.6405,-3.6405,-3.6405,-3.6405,-3.6405,-3.6405,-3.6405,0.0,0.0,0.0,0.0,0.0,0.0,0.0,0.0,0.0,0.0,0.0,0.0,0.0,0.0,0.0,0.0,0.0,0.0,0.0,-1.0067,-1.0723,-1.1438,-1.1875,-1.2086,-1.2086,-1.2086,-1.2125,-1.2203,-1.2125,-1.2451,-1.3115,-1.3782,-1.4104,-1.4124,-1.4512,-1.4434,-1.3968,-1.3471,-1.3086,-1.2764,-1.2709,-1.268,-1.2641,-1.2233,-1.2334,-1.2631,-1.2246,-1.2712,-1.3452,-1.3056,0.0,0.0,0.0,0.0,-1.4937,-1.5392,-1.588,-1.6835,-1.9328,0.0,-2.0709,-2.2994,-2.4981,0.0,-2.6707,-2.7441,-2.8426,0.0,0.0,0.0,0.0,0.0,0.0,0.0,0.0,0.0,0.0,0.0,0.0,0.0,0.0,0.0,0.0,0.0,0.0,0.0,0.0,0.0,0.0,0.0,0.0,0.0,0.0,-3.3124,-3.3124,-3.3124,-3.3124,-3.3124,-3.3533,-3.3997,-3.4462,-3.4969,-3.527,-3.5382,-3.5881,-3.6128,-3.6128,-3.6229,-3.6267,-3.6267,-3.6367,-3.6405,-3.6405,-3.6405,-3.6405,-3.6405,0.0,0.0,0.0,0.0,0.0,0.0,0.0,0.0,0.0,0.0,-0.7447,-0.7808,-0.7891,-0.8316,0.0,0.0,0.0,0.0,-0.9498,0.0,0.0,-1.0996,-1.1438,-1.1672,-1.1672,-1.1672,-1.1836,-1.2203,-1.1836,-1.2475,-1.3938,-1.4055,-1.4104,-1.4104,-1.4172,-1.3958,-1.3545,-1.272,-1.235,-1.2262,-1.1917,-1.176,-1.1773,-1.1692,-1.1734,-1.1773,-1.1692,-1.2001,-1.249,-1.2909,-1.3397,0.0,0.0,0.0,0.0,-1.6159,-1.6324,-1.6598,-1.8018,0.0,-2.2467,0.0,-2.5249,-2.6216,0.0,0.0,0.0,0.0,0.0,0.0,0.0,0.0,0.0,0.0,0.0,0.0,0.0,0.0,0.0,0.0,0.0,0.0,0.0,0.0,0.0,0.0,0.0,0.0,0.0,0.0,-3.3124,-3.3124,-3.3124,0.0,-3.3124,-3.3124,-3.3124,-3.3124,-3.3156,-3.3219,-3.3319,-3.3872,-3.4374,-3.4793,-3.4914,-3.4939,-3.4977,-3.5408,-3.5608,-3.5658,-3.6182,-3.6405,-3.6405,-3.6405,-3.6405,-3.6405,0.0,0.0,0.0,0.0,0.0,0.0,0.0,0.0,0.0,0.0,0.0,-0.7899,-0.7899,-0.8378,0.0,0.0,0.0,0.0,-0.9922,-1.0331,0.0,-1.0898,-1.1094,-1.1213,-1.1213,-1.1213,-1.1289,-1.1463,-1.1289,-1.2207,-1.4104,-1.4104,-1.4494,-1.5195,-1.4717,-1.4394,-1.4131,-1.2779,-1.2203,-1.2164,-1.176,-1.2025,-1.2573,-1.1594,-1.1797,-1.2543,-1.1565,-1.1712,-1.2387,-1.2541,-1.321,-1.4093,-1.4858,0.0,0.0,0.0,-1.5798,-1.6027,-1.84,-2.0888,-2.3108,0.0,-2.5485,-2.629,-2.6616,0.0,0.0,0.0,0.0,0.0,0.0,0.0,0.0,0.0,0.0,0.0,0.0,0.0,0.0,0.0,0.0,0.0,0.0,0.0,0.0,0.0,0.0,0.0,0.0,-3.2127,-3.2127,-3.2127,-3.2127,0.0,-3.2591,-3.2591,-3.2754,-3.3124,-3.3124,-3.3124,-3.3124,-3.3332,-3.3746,-3.4274,-3.4587,-3.468,-3.4738,-3.4944,-3.5044,-3.5094,-3.5692,-3.5906,-3.5943,-3.6304,-3.6405,-3.6405,0.0,0.0,0.0,0.0,0.0,0.0,0.0,0.0,0.0,0.0,0.0,0.0,-0.8098,0.0,0.0,0.0,0.0,0.0,-1.0264,0.0,0.0,0.0,-1.0752,-1.0752,-1.0752,-1.0752,-1.0801,-1.0908,-1.0908,-1.1989,-1.4104,-1.4104,-1.4941,-1.6388,-1.5527,-1.4932,-1.4531,-1.3145,-1.2535,-1.2496,-1.2093,-1.2504,-1.3232,-1.2116,-1.2515,-1.3467,-1.1953,-1.1987,-1.2727,-1.2488,-1.3248,-1.4305,0.0,0.0,0.0,0.0,0.0,0.0,0.0,0.0,-2.1727,-2.3668,-2.4696,-2.541,0.0,0.0,0.0,0.0,0.0,0.0,0.0,0.0,0.0,0.0,0.0,0.0,0.0,0.0,0.0,0.0,0.0,0.0,0.0,0.0,0.0,0.0,0.0,0.0,-3.1386,-3.1386,-3.1386,-3.1386,-3.1386,-3.1587,-3.2001,-3.2139,-3.2428,-3.2855,-3.3048,-3.3124,-3.3124,-3.3124,-3.3307,-3.3709,-3.4123,-3.4299,-3.4311,-3.4462,-3.4512,-3.4562,-3.5069,-3.5295,-3.5345,-3.5793,-3.6031,-3.6157,0.0,0.0,0.0,0.0,0.0,0.0,0.0,0.0,0.0,0.0,0.0,0.0,-0.8655,-0.9139,-0.9259,-0.8736,-0.9199,0.0,0.0,0.0,0.0,0.0,0.0,0.0,-1.0332,-1.0332,-1.0508,-1.0908,-1.0908,-1.1989,-1.4104,-1.4104,-1.5273,-1.7275,-1.6418,-1.5312,-1.4114,-1.3627,-1.3437,-1.3408,-1.2978,-1.2876,-1.2988,-1.3675,-1.3997,-1.3958,-1.3096,-1.3071,-1.3406,-1.314,-1.3779,-1.4677,-1.4771,-1.5189,-1.5458,0.0,0.0,0.0,0.0,-1.6385,0.0,-2.1284,-2.2161,0.0,0.0,0.0,0.0,0.0,0.0,0.0,0.0,0.0,0.0,0.0,0.0,0.0,0.0,0.0,0.0,0.0,0.0,0.0,0.0,0.0,0.0,0.0,0.0,0.0,-3.1361,-3.1386,-3.1386,-3.1386,-3.1386,-3.1399,-3.1436,-3.1951,-3.2227,-3.2265,-3.2817,-3.3124,-3.3124,-3.3124,-3.3136,-3.3162,-3.3156,-3.3156,-3.3206,-3.3721,-3.3935,-3.3997,-3.455,-3.4718,-3.4731,-3.4801,-3.5094,-3.5545,0.0,0.0,0.0,0.0,0.0,0.0,0.0,0.0,0.0,0.0,0.0,0.0,0.0,-0.8663,-0.9039,-0.9199,-0.9705,0.0,0.0,0.0,0.0,0.0,0.0,0.0,-1.0303,-1.0303,-1.0371,-1.0508,-1.0508,-1.1475,-1.333,-1.333,-1.4033,-1.5264,-1.5254,-1.5322,-1.5254,-1.3432,-1.2852,-1.3096,-1.2964,-1.3394,-1.4128,-1.4094,-1.4621,-1.5225,-1.4092,-1.3437,-1.3185,-1.3738,-1.4093,-1.4371,-1.4697,-1.4975,-1.497,-1.3859,-1.3893,-1.4526,0.0,0.0,0.0,-2.0087,-2.1647,-2.2843,0.0,0.0,0.0,0.0,0.0,0.0,0.0,0.0,0.0,0.0,0.0,0.0,0.0,0.0,0.0,0.0,0.0,0.0,0.0,0.0,0.0,0.0,0.0,0.0,-3.0357,-3.0369,-3.0369,-3.0369,-3.0369,-3.0532,-3.0884,-3.1424,-3.1687,-3.1687,-3.1901,-3.2177,-3.2516,-3.2516,-3.2717,-3.3124,-3.3124,-3.3124,-3.3093,-3.3294,-3.337,-3.342,-3.3985,-3.4198,-3.4236,-3.4587,-3.4806,-3.5019,0.0,0.0,0.0,0.0,0.0,0.0,0.0,0.0,-0.6724,-0.6677,0.0,0.0,0.0,0.0,-0.9379,-0.9736,-1.0098,-1.0303,-1.0303,-1.0303,0.0,0.0,0.0,0.0,-1.0303,-1.0303,-1.0215,-1.0068,-1.0352,-1.1084,-1.225,-1.2529,-1.3193,-1.4104,-1.3994,-1.4482,-1.5322,-1.3896,-1.3389,-1.357,-1.3864,-1.449,-1.5244,-1.5508,-1.6094,-1.6582,-1.5586,-1.4775,-1.4277,-1.4888,-1.4793,-1.4491,-1.4823,-1.4427,-1.373,-1.332,-1.3637,-1.4264,-1.4954,0.0,0.0,0.0,0.0,0.0,0.0,0.0,0.0,0.0,0.0,0.0,0.0,0.0,0.0,0.0,0.0,0.0,0.0,0.0,0.0,0.0,0.0,0.0,0.0,0.0,0.0,0.0,0.0,0.0,-2.9792,-2.9792,-2.9792,-2.9792,-2.9792,-2.9967,-3.0331,-3.0871,-3.1135,-3.1135,-3.1298,-3.1587,-3.1938,-3.1938,-3.2252,-3.278,-3.278,-3.2893,-3.3124,-3.3124,-3.3124,-3.3162,-3.3483,-3.3621,-3.3671,-3.4035,-3.4286,-3.45,0.0,0.0,0.0,0.0,0.0,0.0,0.0,0.0,-0.6563,-0.7468,0.0,0.0,0.0,0.0,0.0,-1.0322,-1.0322,-1.0312,-1.0303,-1.0303,-1.0303,0.0,0.0,0.0,-1.0303,-1.0303,-1.0078,-0.9612,-1.0468,-1.0898,-1.0928,-1.1765,-1.2837,-1.3977,-1.2759,-1.2886,-1.4085,-1.4933,-1.5107,-1.4882,-1.5713,-1.6075,-1.632,-1.7959,-1.8334,-1.7998,-1.7588,-1.7148,0.0,-1.653,0.0,-1.5158,-1.5192,-1.3617,-1.1955,-1.2962,-1.2979,-1.2895,0.0,0.0,0.0,0.0,0.0,0.0,0.0,0.0,0.0,0.0,0.0,0.0,0.0,0.0,0.0,0.0,0.0,0.0,0.0,0.0,0.0,0.0,0.0,0.0,0.0,0.0,0.0,0.0,0.0,-2.9792,-2.9792,-2.9792,-2.9792,-2.9792,-2.9792,-2.9792,-2.9792,-3.0331,-3.0595,-3.0595,-3.1097,-3.1348,-3.1361,-3.1361,-3.1675,-3.219,-3.219,-3.2516,-3.3056,-3.3111,-3.3124,-3.3124,-3.3124,-3.3124,-3.3124,-3.3124,-3.342,-3.3872,0.0,0.0,0.0,0.0,0.0,-0.6457,-0.6382,-0.6772,-0.7156,0.0,0.0,0.0,-0.9266,-1.0136,-1.0732,-1.0732,-1.0732,-1.0605,-1.0322,-1.0303,-1.0303,-1.0303,-1.0303,-1.0303,-1.0303,-1.0303,-1.0244,-1.0107,-1.0361,-1.0615,-1.0918,-1.1141,-1.1631,-1.2289,-1.2223,-1.2223,-1.2338,-1.2871,-1.376,-1.4775,-1.4697,-1.5615,-1.7103,-1.7549,-1.8232,-1.8916,0.0,-1.8281,-1.7635,0.0,-1.7004,-1.5974,-1.5499,-1.4439,-1.35,-1.4223,-1.4628,-1.4808,-1.4686,0.0,0.0,0.0,0.0,0.0,0.0,0.0,0.0,0.0,0.0,0.0,0.0,0.0,0.0,0.0,0.0,0.0,0.0,0.0,0.0,0.0,0.0,0.0,0.0,0.0,0.0,0.0,0.0,-2.9792,-2.9792,-2.9792,-2.9792,-2.9792,-2.9792,-2.9792,-2.9792,-2.9942,-3.0018,-3.0018,-3.0168,-3.0444,-3.0834,-3.0834,-3.1122,-3.1625,-3.1625,-3.1938,-3.2478,-3.2905,-3.3124,-3.3124,-3.3124,-3.3124,-3.3124,-3.3124,-3.3169,-3.337,0.0,0.0,0.0,-0.6955,-0.6854,-0.6814,-0.6974,-0.7342,-0.7663,0.0,0.0,0.0,-1.0036,-1.0753,-1.1182,-1.1182,-1.1016,-1.0732,-1.0332,-1.0107,-1.001,-1.001,-1.001,-1.0098,-1.0293,-1.0303,-1.0195,-1.001,-1.0195,-1.0312,-1.0361,-1.0566,-1.0899,-1.131,-1.1377,-1.1465,-1.1606,-1.1641,-1.2578,-1.4069,-1.4678,-1.5811,-1.7197,-1.791,-1.8643,0.0,0.0,0.0,-1.8566,-1.8678,-1.7748,0.0,-1.5227,-1.4391,-1.3839,-1.4049,-1.468,-1.5223,-1.4931,-1.5496,-1.6271,0.0,0.0,0.0,0.0,0.0,0.0,0.0,0.0,0.0,0.0,0.0,0.0,0.0,0.0,0.0,0.0,0.0,0.0,0.0,0.0,0.0,0.0,0.0,0.0,0.0,-2.9792,-2.9792,-2.9792,-2.9792,-2.9792,-2.9792,-2.9792,-2.9792,-2.9792,-2.9792,-2.9792,-2.9792,-2.9792,-2.9955,-3.0269,-3.0269,-3.057,-3.1072,-3.1072,-3.1373,-3.1888,-3.2227,-3.2654,-3.3124,-3.3124,-3.3124,-3.3124,-3.3124,-3.3124,-3.3119,0.0,0.0,-0.7081,-0.743,-0.7248,-0.7318,-0.8077,-0.8019,-0.8108,0.0,-0.9322,-1.0082,-1.1011,-1.1457,-1.1675,-1.1675,-1.123,-1.0801,-1.04,-0.9884,-0.9622,-0.9679,-0.9622,-0.9815,-1.0293,-1.0303,-1.0098,-0.9689,-1.0049,-1.0039,-0.9689,-1.0049,-1.041,-1.0732,-1.043,-1.0694,-1.1349,-1.1084,-1.1689,-1.3013,-1.5009,-1.6221,0.0,0.0,-1.9268,-1.9482,-1.9853,-1.9746,-1.9414,-1.9316,-1.8213,0.0,0.0,0.0,-1.3831,-1.3443,-1.4138,-1.5051,-1.5047,-1.5545,-1.6396,-1.7777,0.0,0.0,-1.7654,-1.8019,0.0,0.0,0.0,0.0,0.0,0.0,0.0,0.0,0.0,0.0,0.0,0.0,0.0,0.0,0.0,0.0,0.0,0.0,0.0,-2.9691,-2.9754,-2.9792,-2.9792,-2.9792,-2.9792,-2.9792,-2.9792,-2.9792,-2.9792,-2.9792,-2.9792,-2.9792,-2.9792,-2.9792,-2.9792,-2.9792,-3.0068,-3.052,-3.052,-3.0821,-3.1298,-3.1298,-3.1964,-3.298,-3.298,-3.3061,-3.3124,-3.3124,-3.3124,-3.3124,0.0,-0.6593,-0.6861,-0.7397,-0.7437,-0.7699,-0.8601,-0.827,-0.8495,-1.014,-1.0848,-1.1523,-1.2412,-1.2256,-1.2077,-1.2077,-1.1689,-1.1271,-1.0811,-1.004,-0.9767,-1.0137,-0.9806,-0.9815,-1.0293,-1.0303,-1.0263,-1.0156,-0.9864,-0.9874,-1.0156,-0.9864,-0.9786,-0.9874,-1.0166,-1.0176,-1.0049,-1.1046,-1.1797,-1.2428,-1.3564,-1.5508,-1.7793,-1.8135,-1.9111,-2.037,-2.0449,-2.0419,-2.0253,-1.9558,-1.8613,-1.7599,0.0,0.0,0.0,-1.5593,-1.6207,-1.706,-1.6728,-1.7483,-1.8218,0.0,0.0,0.0,-1.7142,-1.7163,0.0,0.0,0.0,0.0,0.0,0.0,0.0,0.0,0.0,0.0,0.0,0.0,0.0,0.0,0.0,0.0,0.0,0.0,-2.9063,-2.9063,-2.9528,-2.9792,-2.9792,-2.9792,-2.9792,-2.9792,-2.9792,-2.9792,-2.9792,-2.9792,-2.9792,-2.9792,-2.9792,-2.9792,-2.9792,-2.9792,-2.9854,-2.9955,-2.9955,-3.0269,-3.0771,-3.0771,-3.1399,-3.239,-3.239,-3.2667,-3.3124,-3.3124,-3.3124,-3.3124,-0.6553,-0.6707,-0.6994,-0.7595,-0.7695,-0.796,-0.8729,-0.8951,-0.9391,-1.0362,-1.1332,-1.2061,-1.251,-1.2559,-1.2559,-1.2559,-1.2148,-1.1611,-1.0947,-1.0312,-0.9961,-0.9961,-0.9728,-0.9815,-1.0293,-1.0303,-1.0303,-1.0303,-0.9825,-0.9728,-0.9951,-0.9718,-0.9728,-0.9961,-1.0205,-1.042,-1.0625,-1.1055,-1.1621,-1.234,-1.3831,0.0,-1.7408,-1.8052,-1.9121,-2.0244,-2.0244,-2.0381,-2.0439,-1.9326,-1.8682,0.0,-1.7176,-1.6999,-1.7001,0.0,-1.6727,-1.7717,-1.6867,-1.7605,-1.8531,-1.8279,0.0,0.0,0.0,0.0,0.0,0.0,0.0,0.0,0.0,0.0,0.0,0.0,0.0,0.0,0.0,0.0,0.0,0.0,0.0,0.0,0.0,0.0,-2.8511,-2.8511,-2.8787,-2.9076,-2.9352,-2.9365,-2.949,-2.9779,-2.9792,-2.9792,-2.9792,-2.9792,-2.9792,-2.9792,-2.9792,-2.9792,-2.9792,-2.9792,-2.9792,-2.9792,-2.9792,-2.9942,-3.0206,-3.0206,-3.0683,-3.1436,-3.17,-3.2152,-3.2641,-3.2641,-3.283,-3.3124,-0.6466,-0.674,-0.7086,-0.7639,-0.7832,-0.8134,-0.8818,-0.9602,-1.0222,-1.0481,-1.1627,-1.2447,-1.2447,-1.2793,-1.3066,-1.3257,-1.2603,-1.1969,-1.1445,-1.0703,-1.0215,-0.9991,-0.9747,-0.9854,-1.041,-1.0263,-1.0175,-1.0175,-0.962,-0.9416,-0.9476,-0.9476,-0.9728,-1.0166,-1.0332,-1.0811,-1.1447,-1.124,-1.1697,-1.274,0.0,-1.5791,-1.6473,-1.7837,-1.889,-1.966,-1.9951,-2.0264,-2.0429,-1.9258,-1.8841,-1.8627,-1.735,-1.7275,0.0,0.0,0.0,0.0,0.0,0.0,0.0,0.0,0.0,-1.8123,0.0,0.0,0.0,-1.7666,0.0,0.0,0.0,0.0,0.0,0.0,0.0,0.0,0.0,0.0,0.0,0.0,0.0,0.0,0.0,0.0,-2.7494,-2.7908,-2.7745,-2.7959,-2.87,-2.8838,-2.9101,-2.9616,-2.9729,-2.9792,-2.9792,-2.9792,-2.9792,-2.9792,-2.9792,-2.9792,-2.9792,-2.9792,-2.9792,-2.9792,-2.9792,-2.9792,-2.9792,-2.9792,-3.0055,-3.0507,-3.1035,-3.1574,-3.2051,-3.2051,-3.2353,-3.2797,-0.6182,-0.6459,-0.674,-0.7046,-0.7546,-0.8228,-0.9188,-0.9622,-1.0283,-1.1446,-1.2638,-1.3359,-1.3359,-1.3408,-1.374,-1.4529,-1.311,-1.2486,-1.3164,-1.1367,-1.0625,-1.133,-1.0225,-0.9991,-1.082,-1.0069,-0.9689,-0.9689,-0.8906,-0.8727,-0.9072,-0.9072,-0.9289,-0.9718,-1.0498,-1.0889,-1.1035,-1.1745,-1.2769,0.0,-1.4981,-1.5244,0.0,-1.6885,-1.8047,-1.89,-2.0078,-2.0556,-2.0517,0.0,-1.9766,-1.9541,0.0,-1.812,-1.8208,-1.6931,0.0,0.0,0.0,0.0,0.0,0.0,-2.0374,0.0,0.0,0.0,-1.7754,-1.6851,0.0,0.0,0.0,0.0,0.0,0.0,0.0,0.0,0.0,0.0,0.0,0.0,0.0,0.0,0.0,0.0,0.0,-2.7231,-2.644,-2.6553,-2.8109,-2.8624,-2.8913,-2.8988,-2.9528,-2.9792,-2.9792,-2.9792,-2.9792,-2.9792,-2.9792,-2.9792,-2.9792,-2.9792,-2.9792,-2.9792,-2.9792,-2.9792,-2.9792,-2.9792,-2.9829,-2.9942,-3.0482,-3.1022,-3.1486,-3.1486,-3.1524,-3.1587,-0.6102,-0.6412,-0.6627,-0.6747,-0.7268,-0.7855,-0.8441,-0.942,-1.0653,-1.2224,-1.2644,-1.3067,-1.3769,-1.3851,-1.4121,-1.4727,-1.4131,-1.3555,0.0,-1.2318,-1.1741,-1.1606,-1.1056,-1.0801,-1.0908,-1.0312,-0.9864,-0.9592,-0.8789,-0.8483,-0.8659,-0.8887,-0.9365,-1.0049,-1.0929,-1.1731,-1.2432,0.0,-1.3057,0.0,0.0,0.0,0.0,-1.6894,-1.8081,-1.8734,-1.9814,-2.0185,-2.0127,0.0,-1.9551,0.0,0.0,0.0,0.0,0.0,0.0,0.0,0.0,0.0,0.0,0.0,0.0,0.0,-1.7886,0.0,-1.7275,0.0,0.0,0.0,0.0,0.0,0.0,0.0,0.0,0.0,0.0,0.0,0.0,0.0,0.0,0.0,0.0,0.0,0.0,0.0,0.0,-2.4895,-2.6553,-2.718,-2.7795,-2.8436,-2.9001,-2.9289,-2.9289,-2.9628,-2.9792,-2.9792,-2.9792,-2.9792,-2.9792,-2.9792,-2.9792,-2.9792,-2.9792,-2.9792,-2.9792,-2.9792,-2.9792,-2.9817,-3.0043,-3.047,-3.0947,-3.0947,-3.1135,-3.1386,-0.597,-0.6224,-0.6373,-0.6472,-0.6975,-0.7569,-0.8208,-0.9537,-1.0952,-1.2425,-1.2466,-1.2855,-1.414,-1.4063,-1.4221,-1.5021,-1.4773,-1.424,0.0,0.0,-1.2788,-1.2142,-1.1792,-1.1438,-1.1094,-1.0577,-1.0068,-0.9592,-0.8906,-0.8561,-0.8581,-0.8984,-0.957,-1.0342,-1.133,-1.2357,-1.334,0.0,-1.3747,-1.4248,-1.465,-1.4962,-1.5362,-1.7158,-1.813,-1.8715,-1.9609,-1.9912,-1.9873,-1.9561,-1.9453,0.0,-1.9316,0.0,0.0,0.0,0.0,0.0,-1.8384,0.0,0.0,0.0,0.0,0.0,0.0,0.0,0.0,0.0,0.0,0.0,0.0,0.0,0.0,-1.7423,0.0,0.0,0.0,0.0,0.0,0.0,0.0,0.0,0.0,0.0,0.0,0.0,0.0,0.0,-2.5059,-2.5871,-2.67,-2.762,-2.8335,-2.8662,-2.8662,-2.9264,-2.9553,-2.9566,-2.9716,-2.9792,-2.9792,-2.9792,-2.9792,-2.9792,-2.9792,-2.9792,-2.9792,-2.9792,-2.9792,-2.9792,-2.9792,-3.0043,-3.0394,-3.0394,-3.0633,-3.0947,-0.5708,-0.5714,-0.5832,-0.6156,-0.6653,-0.7547,-0.9123,-1.0175,-1.1032,-1.174,-1.2219,-1.3072,0.0,0.0,0.0,0.0,0.0,-1.4189,-1.463,0.0,-1.3477,-1.3447,-1.2259,-1.1596,-1.1587,-1.0733,-1.0068,-0.9592,-0.9182,-0.8984,-0.8994,-0.9396,-0.9835,-1.0361,-1.1609,-1.2471,-1.3003,-1.4209,-1.5234,-1.6046,-1.6434,-1.7116,-1.7852,0.0,-1.792,-1.8715,-1.9609,0.0,0.0,-1.9902,-1.9893,0.0,0.0,0.0,0.0,0.0,0.0,0.0,0.0,0.0,0.0,-1.898,0.0,0.0,0.0,0.0,-1.8632,0.0,0.0,0.0,0.0,-1.8191,-1.8003,-1.7463,-1.784,0.0,0.0,0.0,0.0,0.0,0.0,0.0,0.0,0.0,0.0,0.0,0.0,0.0,-2.3904,-2.5046,-2.59,-2.6524,-2.757,-2.8134,-2.8134,-2.865,-2.8913,-2.8925,-2.9528,-2.9792,-2.9792,-2.9792,-2.9792,-2.9792,-2.9792,-2.9792,-2.9792,-2.9792,-2.9792,-2.9792,-2.9792,-2.9804,-2.9817,-2.9817,-2.9829,-2.9842,-0.6023,-0.6023,-0.6075,-0.6176,-0.6633,-0.7465,-0.8863,-0.9446,-1.021,0.0,-1.1631,0.0,0.0,-1.3916,-1.406,0.0,0.0,-1.4444,-1.468,-1.4148,0.0,-1.4338,-1.3652,-1.3008,0.0,-1.1875,-1.119,-1.0459,-0.9747,-0.9552,-0.9862,-0.9679,-0.9991,-1.0742,-1.1745,-1.2603,0.0,0.0,0.0,0.0,0.0,-1.7213,-1.7998,0.0,0.0,-1.834,-1.9189,-1.9502,0.0,-2.0156,-2.0156,-1.9941,-2.0126,-1.9746,-1.9316,-1.9443,-1.9394,0.0,0.0,0.0,-1.991,-1.8711,0.0,0.0,0.0,0.0,0.0,0.0,0.0,0.0,0.0,-1.8204,-1.8028,-1.7498,-1.7561,-1.7388,0.0,0.0,0.0,0.0,0.0,0.0,0.0,0.0,0.0,0.0,0.0,0.0,0.0,-2.3941,-2.4958,-2.5896,-2.6979,-2.7557,-2.7557,-2.8109,-2.8561,-2.8888,-2.9126,-2.9415,-2.9792,-2.9792,-2.9792,-2.9792,-2.9792,-2.9792,-2.9792,-2.9792,-2.9792,-2.9792,-2.9792,-2.9792,-2.9792,-2.9792,-2.9792,-2.9792,-0.6371,-0.6412,-0.6452,-0.6371,-0.7086,-0.792,-0.8609,-0.9292,0.0,0.0,-1.1321,0.0,-1.372,0.0,-1.3608,0.0,-1.4225,-1.4265,-1.4394,-1.4431,0.0,-1.5011,-1.4708,0.0,-1.334,-1.2876,-1.2233,-1.1355,-1.0664,-1.0381,-1.0518,-1.0196,-1.0361,-1.0947,-1.1814,-1.2681,-1.3584,-1.4774,-1.5488,0.0,0.0,-1.7486,0.0,0.0,-1.8008,-1.8115,0.0,-1.9287,-1.9424,-2.0312,-2.0419,-2.0195,-2.0517,-2.0224,-1.9766,-1.9883,-1.9834,-1.9678,-1.9365,-1.959,0.0,-1.8747,-1.8297,0.0,-1.7193,0.0,0.0,0.0,0.0,0.0,0.0,-1.8276,-1.7775,-1.7751,-1.7355,-1.6925,0.0,0.0,0.0,0.0,0.0,0.0,0.0,0.0,-1.7237,-1.8355,0.0,0.0,0.0,0.0,-2.3904,-2.4996,-2.6101,-2.6813,-2.7014,-2.7544,-2.7996,-2.8348,-2.87,-2.9088,-2.949,-2.9691,-2.9792,-2.9792,-2.9792,-2.9792,-2.9792,-2.9792,-2.9792,-2.9792,-2.9792,-2.9792,-2.9792,-2.9792,-2.9792,-2.9792,-0.6687,-0.6867,-0.6966,0.0,-0.7888,0.0,0.0,0.0,-1.0665,0.0,-1.1233,-1.2166,-1.3669,-1.3039,-1.2816,-1.3541,-1.3637,-1.3689,-1.389,-1.4739,0.0,0.0,-1.5459,-1.505,-1.4192,-1.3763,-1.3129,-1.2272,-1.1819,-1.1379,-1.0946,-1.0907,-1.0908,-1.0947,-1.1814,0.0,-1.3584,-1.5312,-1.6299,-1.6804,-1.7676,-1.8008,-1.8008,-1.8008,0.0,-1.8115,-1.8955,-1.9268,-1.9414,-2.0292,-2.0586,-2.0605,-2.0605,-2.0605,-2.0517,-2.0068,-2.0244,-2.0429,-1.957,-1.9639,-1.9787,-1.9107,0.0,0.0,0.0,0.0,-1.9401,0.0,0.0,0.0,0.0,0.0,-1.7364,-1.8208,-1.7248,-1.6445,-1.6498,0.0,0.0,0.0,0.0,0.0,0.0,-1.6007,-1.6145,-1.7272,-1.7385,0.0,0.0,0.0,0.0,-2.3966,-2.5034,-2.5908,-2.6487,-2.7014,-2.7256,-2.7293,-2.8348,-2.8825,-2.8863,-2.9478,-2.9754,-2.9754,-2.9779,-2.9792,-2.9792,-2.9792,-2.9792,-2.9792,-2.9792,-2.9792,-2.9792,-2.9792,-2.9792,-2.9792,-0.7276,-0.7488,-0.7719,0.0,-0.8273,-0.8499,0.0,0.0,0.0,0.0,-1.1127,-1.1758,-1.2614,-1.2497,-1.2421,-1.2652,-1.2666,0.0,0.0,0.0,0.0,-1.5748,-1.6157,-1.5956,-1.5079,-1.4668,-1.4033,-1.3159,-1.2113,-1.1692,-1.1853,-1.1199,-1.0908,-1.0947,-1.1814,-1.2529,-1.316,-1.4549,-1.5928,-1.7266,-1.7793,-1.8008,0.0,0.0,-1.8008,-1.8076,-1.8578,-1.9014,-1.9365,-1.9902,-2.0303,-2.0605,-2.0605,-2.0605,-2.0586,-2.0468,-2.0517,-2.0556,-2.0341,-2.0351,-2.0311,-1.9755,-1.914,-1.862,0.0,0.0,0.0,0.0,0.0,0.0,0.0,0.0,0.0,-1.7533,-1.6891,-1.6486,-1.6491,0.0,0.0,0.0,0.0,0.0,0.0,0.0,-1.5982,-1.6685,0.0,0.0,0.0,0.0,0.0,-2.3954,-2.5034,-2.5908,-2.6487,-2.6637,-2.6914,-2.7281,-2.757,-2.7921,-2.8335,-2.89,-2.9113,-2.9176,-2.9603,-2.9792,-2.9792,-2.9792,-2.9792,-2.9792,-2.9792,-2.9792,-2.9792,-2.9792,-2.9792,-2.9792,-0.7695,0.0,0.0,-0.8537,0.0,0.0,-0.8992,0.0,0.0,-1.0512,-1.1062,0.0,-1.1884,-1.2151,-1.2305,-1.2305,-1.2418,0.0,-1.3415,0.0,0.0,-1.5847,-1.6002,-1.6011,-1.5976,-1.4963,0.0,-1.3753,0.0,-1.1885,-1.1924,-1.123,-1.0908,-1.0937,0.0,-1.2285,-1.3013,-1.4676,-1.6163,-1.7455,-1.7842,0.0,0.0,-1.8008,-1.8008,-1.8037,-1.8247,-1.876,-1.9346,-1.9775,-2.0205,-2.0605,-2.0605,-2.0605,-2.0605,-2.0605,-2.0605,-2.0605,-2.0605,-2.0605,-2.0546,-2.0254,-1.9834,-1.9389,-1.9129,-1.9424,-1.9674,0.0,0.0,0.0,0.0,0.0,0.0,-1.6455,-1.636,-1.6434,0.0,0.0,0.0,0.0,0.0,0.0,0.0,0.0,0.0,0.0,0.0,0.0,0.0,0.0,0.0,0.0,-2.4431,-2.5523,-2.6109,-2.6361,-2.665,-2.6964,-2.7203,-2.7444,-2.777,-2.8561,-2.8888,-2.8925,-2.9541,-2.9792,-2.9792,-2.9792,-2.9792,-2.9792,-2.9792,-2.9792,-2.9792,-2.9792,-2.9792,-2.9792,-0.8012,0.0,0.0,0.0,0.0,0.0,0.0,-0.9889,0.0,-1.064,0.0,-1.1502,-1.1502,-1.1997,-1.2318,-1.2358,0.0,-1.2821,-1.3041,-1.3741,-1.4595,-1.5564,-1.5339,-1.5575,-1.6402,-1.4792,-1.3956,0.0,-1.2686,-1.1879,-1.1596,-1.1113,-1.0908,-1.0907,0.0,0.0,0.0,-1.5234,-1.6574,-1.7344,-1.7812,-1.8008,-1.8008,-1.8008,-1.8008,-1.8018,-1.8076,-1.8603,-1.9346,-1.9707,-2.0156,-2.0605,-2.0605,-2.0605,-2.0605,-2.0605,-2.0605,-2.0605,-2.0605,-2.0605,-2.0605,-2.0605,-2.0605,-2.041,-1.9619,-1.9453,-1.9453,-1.9453,-1.8867,0.0,0.0,0.0,0.0,-1.5531,0.0,0.0,0.0,0.0,0.0,0.0,0.0,0.0,0.0,0.0,0.0,0.0,0.0,0.0,0.0,0.0,0.0,0.0,-2.359,0.0,-2.5586,0.0,-2.6499,-2.6499,-2.6977,-2.7216,-2.7241,-2.8247,-2.8712,-2.8813,-2.9428,-2.9729,-2.9792,-2.9792,-2.9792,-2.9792,-2.9792,-2.9792,-2.9792,-2.9792,-2.9792,-2.9792,-0.8335,0.0,0.0,0.0,0.0,-0.9936,-1.0372,-1.0815,-1.1122,-1.1263,-1.1784,-1.2151,-1.2151,-1.2238,-1.2405,-1.2683,-1.2529,0.0,0.0,0.0,0.0,-1.4086,-1.4811,-1.5105,-1.4875,-1.3979,-1.3518,0.0,-1.1969,-1.1348,-1.1596,-1.1113,-1.0908,-1.0927,0.0,0.0,-1.3987,-1.5478,0.0,-1.6882,-1.7695,-1.8008,-1.8008,-1.8008,-1.8008,-1.8057,-1.8373,-1.8848,-1.9297,-1.9375,-1.9959,-2.0605,-2.0605,-2.0605,-2.0605,-2.0605,-2.0605,-2.0605,-2.0605,-2.0605,-2.0605,-2.0605,-2.0605,-2.0566,-2.041,-2.038,-2.038,-2.038,-2.0263,-1.9863,-1.8978,0.0,0.0,0.0,0.0,0.0,0.0,0.0,0.0,0.0,0.0,0.0,0.0,0.0,0.0,0.0,0.0,0.0,0.0,0.0,0.0,0.0,0.0,0.0,0.0,0.0,0.0,-2.6499,-2.66,-2.6637,-2.6663,-2.7268,-2.7821,-2.8285,-2.8837,-2.9352,-2.9792,-2.9792,-2.9792,-2.9792,-2.9792,-2.9792,-2.9792,-2.9792,-2.9792,-2.9792,0.0,0.0,0.0,0.0,0.0,0.0,0.0,-1.1503,0.0,-1.1429,-1.1635,-1.1815,-1.1815,-1.2258,-1.2563,-1.2556,-1.2672,-1.2699,-1.2563,-1.2968,-1.3373,-1.368,-1.3702,0.0,-1.449,-1.3312,-1.2904,-1.3398,-1.1989,-1.1402,-1.1596,-1.1113,-1.0908,-1.0957,0.0,-1.3129,0.0,0.0,0.0,-1.6775,-1.7633,-1.8008,-1.8008,-1.8008,-1.8144,-1.8325,-1.8529,-1.9026,-1.9609,-1.9609,-2.0039,-2.0605,-2.0605,-2.0605,-2.0605,-2.0605,-2.0605,-2.0605,-2.0605,-2.0605,-2.0605,-2.0605,-2.0605,-2.0605,-2.0605,-2.0605,-2.0605,-2.0605,-2.0605,-2.0204,-1.8841,-1.7642,0.0,0.0,0.0,0.0,0.0,0.0,0.0,0.0,0.0,0.0,0.0,0.0,0.0,0.0,0.0,0.0,0.0,0.0,0.0,0.0,0.0,0.0,0.0,0.0,0.0,-2.6499,-2.6499,-2.6499,-2.6512,-2.7065,-2.7431,-2.772,-2.8561,-2.9051,-2.9365,-2.9666,-2.9792,-2.9792,-2.9792,-2.9792,-2.9792,-2.9792,-2.9792,-2.9792,0.0,-0.9987,0.0,0.0,-1.0888,0.0,-1.1355,-1.1924,-1.2138,-1.1635,-1.1575,-1.1575,-1.1575,-1.2238,-1.2623,-1.2412,-1.2779,-1.2839,-1.2425,-1.2596,-1.2914,-1.3397,-1.2696,-1.2832,-1.4014,-1.2665,-1.2337,0.0,0.0,-1.1597,-1.1583,-1.1225,-1.1152,0.0,0.0,0.0,0.0,0.0,-1.6465,-1.6911,-1.7705,-1.8008,-1.8018,-1.8105,-1.8315,-1.8627,-1.8812,-1.9299,-1.9932,-2.0019,-2.0283,-2.0605,-2.0605,-2.0605,-2.0605,-2.0605,-2.0605,-2.0605,-2.0605,-2.0605,-2.0605,-2.0605,-2.0605,-2.0605,-2.0605,-2.0537,-2.0468,-2.0468,-2.0283,-1.9814,-1.8676,-1.7642,0.0,0.0,0.0,0.0,0.0,0.0,0.0,0.0,0.0,0.0,0.0,0.0,0.0,0.0,0.0,0.0,-1.5844,-1.671,0.0,0.0,0.0,0.0,-2.4412,0.0,-2.5887,0.0,-2.6499,-2.6499,-2.6512,-2.6952,-2.7168,-2.7344,-2.8323,-2.885,-2.9151,-2.9603,-2.9792,-2.9792,-2.9792,-2.9792,-2.9792,-2.9792,-2.9792,-2.9792,0.0,0.0,0.0,0.0,0.0,0.0,0.0,-1.1924,-1.2285,-1.2225,-1.2225,-1.2225,-1.2225,-1.2291,-1.2445,-1.2723,-1.2549,-1.2478,-1.273,-1.2516,-1.2368,-1.2409,-1.2342,-1.2358,-1.2515,-1.2123,-1.1998,0.0,0.0,-1.1531,-1.159,-1.155,0.0,0.0,0.0,0.0,0.0,-1.6248,-1.6924,-1.7363,-1.7822,-1.8008,-1.8047,-1.8393,-1.8568,-1.8705,-1.9475,-1.9844,-1.9971,-2.041,-2.0566,-2.0605,-2.0605,-2.0605,-2.0605,-2.0605,-2.0605,-2.0605,-2.0605,-2.0605,-2.0605,-2.0605,-2.0605,-2.0605,-2.0605,-2.0254,-1.9971,-1.9971,-1.9355,-1.8627,-1.8164,-1.7969,-1.7523,0.0,0.0,0.0,0.0,0.0,-1.5011,-1.5096,0.0,0.0,0.0,0.0,0.0,0.0,0.0,0.0,0.0,-1.6525,0.0,-1.902,0.0,-2.2121,-2.3246,-2.482,0.0,-2.6499,-2.6499,-2.6499,-2.6499,-2.6549,-2.6851,-2.7318,-2.7921,-2.8762,-2.9716,-2.9767,-2.9792,-2.9792,-2.9792,-2.9792,-2.9792,-2.9792,-2.9792,-2.9792,0.0,0.0,0.0,0.0,0.0,0.0,0.0,-1.2151,-1.2365,-1.2583,-1.2603,-1.2677,-1.2826,-1.2846,-1.2893,-1.3013,-1.2784,-1.2737,-1.3006,-1.2572,-1.2465,-1.2832,-1.2498,-1.2385,-1.2603,-1.2147,-1.204,0.0,0.0,-1.2277,-1.2263,-1.2095,0.0,0.0,0.0,-1.4969,-1.5879,-1.7021,-1.7598,-1.7822,-1.8506,-1.8779,-1.8799,-1.8965,-1.9189,-1.9416,-1.9757,-2.0078,-2.0332,-2.0546,-2.0605,-2.0605,-2.0605,-2.0605,-2.0605,-2.0605,-2.0605,-2.0605,-2.0605,-2.0605,-2.0605,-2.0605,-2.0605,-2.0537,-2.0234,-2.0039,-1.9844,-1.959,-1.9026,-1.8549,-1.8383,-1.7978,-1.7549,0.0,0.0,0.0,0.0,0.0,0.0,0.0,0.0,-1.3973,0.0,0.0,0.0,0.0,0.0,0.0,0.0,0.0,0.0,-1.8456,0.0,-2.1231,-2.3095,-2.4424,-2.5573,-2.6499,-2.6499,-2.6499,-2.6499,-2.6499,-2.6801,-2.7318,-2.7871,-2.8549,-2.9302,-2.9641,-2.9792,-2.9792,-2.9792,-2.9792,-2.9792,-2.9792,-2.9792,-2.9792,-1.1543,0.0,-1.151,0.0,-1.1897,-1.1951,-1.2371,-1.2432,-1.261,-1.2998,-1.3052,-1.306,-1.32,-1.3213,-1.3213,-1.3213,-1.3013,-1.3012,-1.32,-1.2806,-1.2759,-1.3193,-1.2799,0.0,-1.2918,-1.2422,-1.2264,-1.2429,-1.2613,0.0,-1.2497,0.0,0.0,0.0,-1.4026,-1.5138,-1.63,-1.7331,-1.802,-1.8437,-1.9043,-1.9287,-1.9297,-1.9424,-1.9658,-1.9932,-2.0059,-2.0303,-2.0605,-2.0605,-2.0605,-2.0605,-2.0605,-2.0605,-2.0605,-2.0605,-2.0605,-2.0605,-2.0605,-2.0605,-2.0605,-2.0605,-2.0605,-2.0488,-2.0019,-1.9814,-1.958,-1.9023,-1.8662,-1.8422,-1.8422,-1.7969,-1.7578,0.0,0.0,0.0,0.0,0.0,0.0,0.0,-1.3932,-1.3662,-1.3789,0.0,0.0,0.0,0.0,0.0,0.0,0.0,0.0,0.0,0.0,0.0,0.0,0.0,-2.5372,-2.6499,-2.6499,-2.6499,-2.6499,-2.6499,-2.6889,-2.7544,-2.7934,-2.8511,-2.9214,-2.9616,-2.9792,-2.9792,-2.9792,-2.9792,-2.9792,-2.9792,-2.9792,-2.9792,-1.1839,-1.2091,-1.2285,-1.2291,-1.2576,-1.2808,-1.2777,-1.2777,-1.2991,-1.3513,-1.3593,-1.3487,-1.324,-1.3213,-1.3213,-1.3213,-1.3206,-1.3206,-1.3213,-1.32,-1.32,0.0,0.0,-1.32,-1.3206,-1.2938,-1.2623,-1.2291,0.0,0.0,-1.2009,0.0,-1.2811,-1.3219,-1.3688,-1.4908,-1.6611,-1.7035,-1.7996,-1.9268,-1.9287,-1.9287,-1.9336,-1.9746,-1.9912,-1.9971,-2.0449,-2.0595,-2.0605,-2.0605,-2.0605,-2.0605,-2.0605,-2.0605,-2.0605,-2.0605,-2.0605,-2.0605,-2.0605,-2.0605,-2.0605,-2.0605,-2.0605,-2.0488,-2.0019,-1.959,-1.9053,-1.8203,-1.8018,-1.8018,-1.8018,-1.8008,-1.7638,-1.651,0.0,0.0,0.0,0.0,0.0,0.0,-1.4374,-1.3861,-1.3797,0.0,0.0,0.0,0.0,0.0,0.0,0.0,0.0,-1.6785,-1.8639,0.0,-2.1896,-2.383,-2.5372,-2.6499,-2.6499,-2.6499,-2.6499,-2.6499,-2.709,-2.8097,-2.8109,-2.875,-2.9779,-2.9792,-2.9792,-2.9792,-2.9792,-2.9792,-2.9792,-2.9792,-2.9792,-2.9792,-1.2449,-1.2576,-1.271,-1.2886,-1.2999,-1.3066,-1.3066,-1.3066,-1.32,-1.3553,-1.36,-1.3646,-1.3794,-1.3627,-1.3547,0.0,-1.344,-1.338,0.0,-1.3434,-1.3387,-1.3794,-1.3427,-1.3307,-1.346,-1.3213,-1.3013,-1.2919,0.0,0.0,0.0,-1.3135,-1.3437,-1.3912,-1.424,-1.5471,-1.7387,-1.7783,-1.8629,-1.9736,-2.0077,-2.0194,-2.0214,-2.0341,-2.04,-2.0419,-2.0556,-2.0605,-2.0605,-2.0605,-2.0605,-2.0605,-2.0605,-2.0605,-2.0605,-2.0605,-2.0605,-2.0605,-2.0605,-2.0605,-2.0605,-2.0605,-2.0605,-2.0419,-1.9648,-1.8936,-1.834,-1.8066,-1.8008,-1.8008,-1.8008,-1.8008,-1.7886,-1.7517,0.0,0.0,0.0,0.0,0.0,0.0,-1.4199,-1.3806,0.0,-1.3763,0.0,0.0,0.0,0.0,0.0,0.0,0.0,0.0,-1.8567,0.0,-2.1908,-2.3248,-2.4771,-2.6499,-2.6499,-2.6499,-2.6499,-2.6499,-2.6688,-2.7065,-2.777,-2.831,-2.8699,-2.9478,-2.9792,-2.9792,-2.9792,-2.9792,-2.9792,-2.9792,-2.9792,-2.9792,-1.2674,-1.2965,-1.3113,-1.32,-1.326,-1.3333,-1.3333,-1.3333,-1.348,-1.3733,-1.3808,-1.3881,-1.4068,-1.3921,0.0,-1.4075,-1.3754,-1.3694,-1.4062,-1.3748,-1.3707,-1.4075,-1.3734,-1.3627,-1.3766,0.0,0.0,-1.3333,-1.3567,-1.3584,-1.3386,-1.3386,-1.353,-1.3837,-1.3998,-1.5103,-1.6822,-1.7088,-1.8085,-1.9592,-1.9896,-2.0245,-2.0605,-2.0605,-2.0605,-2.0605,-2.0605,-2.0605,-2.0605,-2.0605,-2.0605,-2.0605,-2.0605,-2.0605,-2.0605,-2.0605,-2.0605,-2.0605,-2.0605,-2.0605,-2.0605,-2.0605,-2.0605,-2.038,-1.9482,-1.874,-1.8159,-1.8047,-1.8008,-1.8008,-1.8008,-1.8008,-1.8003,-1.7986,0.0,-1.7506,-1.6134,0.0,0.0,0.0,0.0,0.0,0.0,-1.4364,0.0,0.0,0.0,0.0,0.0,0.0,0.0,-1.6056,-1.8548,0.0,-2.1467,-2.2838,-2.4321,-2.5955,-2.6314,-2.6499,-2.6499,-2.6499,-2.6612,-2.6851,-2.772,-2.8222,-2.8486,-2.9415,-2.9792,-2.9792,-2.9792,-2.9792,-2.9792,-2.9792,-2.9792,-2.9792,-1.2524,-1.3214,0.0,0.0,-1.3453,0.0,-1.3633,-1.3633,-1.3733,-1.4048,-1.4088,-1.4088,-1.4088,-1.4088,-1.4088,-1.4088,0.0,0.0,0.0,-1.4088,-1.4088,-1.4088,-1.4088,0.0,-1.4088,-1.3773,-1.3633,-1.3633,-1.3347,-1.3253,-1.3273,-1.3253,-1.3253,-1.3273,-1.3273,-1.4041,-1.5328,-1.5328,-1.6709,-1.8877,-1.8957,-1.9599,-2.0489,-2.0566,-2.0605,-2.0605,-2.0605,-2.0605,-2.0605,-2.0605,-2.0605,-2.0605,-2.0605,-2.0605,-2.0605,-2.0605,-2.0605,-2.0605,-2.0605,-2.0605,-2.0605,-2.0605,-2.0586,-2.0351,-1.9512,-1.8994,-1.8529,-1.8144,-1.8057,-1.8047,-1.8018,-1.8008,-1.8012,-1.7985,-1.7936,-1.7303,-1.5632,0.0,0.0,0.0,0.0,0.0,0.0,-1.5463,-1.5512,0.0,0.0,0.0,0.0,0.0,-1.6893,-1.6106,-1.8579,-2.0183,-2.0779,-2.2582,-2.4006,-2.5123,-2.606,-2.6499,-2.6499,-2.6499,-2.6776,-2.7291,-2.7846,-2.8398,-2.8888,-2.9541,-2.9792,-2.9792,-2.9792,-2.9792,-2.9792,-2.9792,-2.9792,-2.9792,0.0,0.0,-1.3653,-1.3854,-1.3935,-1.3981,-1.3981,-1.3981,-1.4008,-1.4082,-1.4088,-1.4088,-1.4088,-1.4088,-1.4088,-1.4088,-1.4088,-1.4088,-1.4088,-1.4088,-1.4088,-1.4088,-1.4088,-1.4088,-1.4088,-1.4015,-1.3981,-1.3981,-1.3646,-1.3661,-1.3874,-1.3647,-1.362,-1.3881,-1.3881,-1.4517,-1.5625,-1.5625,-1.6399,-1.7779,-1.863,-1.9155,-1.9481,-2.0284,-2.0605,-2.0605,-2.0605,-2.0605,-2.0605,-2.0605,-2.0605,-2.0605,-2.0605,-2.0605,-2.0605,-2.0605,-2.0605,-2.0605,-2.0605,-2.0605,-2.0605,-2.0605,-2.0312,-2.0019,-1.9814,-1.9434,-1.9014,-1.8539,-1.8451,-1.8354,-1.8066,-1.8008,-1.8012,-1.7985,-1.7451,-1.6623,-1.5552,0.0,0.0,0.0,-1.5687,-1.5602,-1.4946,-1.5572,-1.5997,0.0,0.0,0.0,0.0,0.0,-1.7748,-1.6155,-1.8579,-2.0186,-2.079,-2.2299,-2.4073,-2.6129,-2.6383,-2.6499,-2.6499,-2.6499,-2.6562,-2.6738,-2.7682,-2.8185,-2.8386,-2.9377,-2.9792,-2.9792,-2.9792,-2.9792,-2.9792,-2.9792,-2.9792,-2.9792,-1.0979,-1.2129,-1.3069,-1.3269,-1.373,-1.4088,-1.4088,-1.4088,-1.4088,-1.4088,-1.4088,-1.4088,-1.4088,-1.4088,-1.4088,-1.4088,-1.4088,-1.4088,-1.4088,-1.4088,-1.4088,-1.4088,-1.4088,-1.4088,-1.4088,-1.4088,-1.4088,-1.4088,-1.3928,-1.3928,-1.4082,-1.3921,-1.3935,-1.4088,-1.4088,-1.4412,-1.4977,-1.4977,-1.5587,-1.6642,-1.7245,-1.7779,-1.835,-1.9441,-1.9883,-1.9951,-2.0634,-2.0781,-2.0635,-2.0801,-2.0732,-2.0605,-2.0605,-2.0605,-2.0605,-2.0605,-2.0605,-2.0605,-2.0605,-2.0605,-2.0605,-2.0605,-2.0429,-2.0156,-1.9961,-1.9736,-1.9453,-1.9023,-1.8734,-1.8529,-1.8305,-1.81,-1.7996,-1.8013,-1.6936,-1.5932,-1.5463,-1.54,0.0,-1.5789,-1.5969,-1.5987,-1.5703,-1.6279,-1.664,-1.6557,0.0,0.0,-1.688,-1.7905,-1.8026,-1.6995,-1.9318,-2.0504,-2.0384,-2.1805,-2.3618,-2.5804,-2.5804,-2.606,-2.6499,-2.6499,-2.6499,-2.6549,-2.7356,-2.7871,-2.8172,-2.9038,-2.9553,-2.9792,-2.9792,-2.9792,-2.9792,-2.9792,-2.9792,-2.9792,-0.9822,-1.1118,-1.2114,-1.2285,-1.316,-1.3913,-1.4088,-1.4088,-1.4088,-1.4088,-1.4088,-1.4088,-1.4088,-1.4088,-1.4088,-1.4088,-1.4088,-1.4088,-1.4088,-1.4088,-1.4088,-1.4088,-1.4088,-1.4088,-1.4088,-1.4088,-1.4088,-1.4088,-1.4088,-1.4088,-1.4088,-1.4088,-1.4088,-1.4088,-1.4088,-1.4088,-1.4088,-1.4088,-1.4643,-1.5529,-1.5688,-1.6309,-1.7261,-1.8418,-1.8972,-1.9261,-2.0541,-2.0915,-2.086,-2.1211,-2.1035,-2.0703,-2.0703,-2.0664,-2.0605,-2.0605,-2.0605,-2.0605,-2.0605,-2.0605,-2.0605,-2.0605,-2.0605,-2.0507,-2.0098,-2.0019,-1.9893,-1.9473,-1.9092,-1.8754,-1.8672,-1.8359,-1.8127,-1.8015,-1.6748,-1.5694,-1.543,0.0,-1.5802,-1.6296,-1.6333,-1.6447,-1.6765,-1.7168,-1.7256,-1.6911,-1.7539,0.0,0.0,-1.7617,-1.8066,-1.8203,-2.009,-2.0796,-2.0216,-2.1398,-2.2925,-2.4779,-2.4779,-2.53,-2.628,-2.628,-2.6349,-2.6524,-2.7077,-2.7595,-2.8147,-2.8662,-2.9277,-2.9792,-2.9792,-2.9792,-2.9792,-2.9792,-2.9792,-2.9792,-0.9031,-1.0029,-1.1166,-1.2109,-1.2456,-1.2942,-1.3955,-1.4088,-1.4088,-1.4088,-1.4088,-1.4088,-1.4088,-1.4088,-1.4088,-1.4088,-1.4088,-1.4088,-1.4088,-1.4088,-1.4088,-1.4088,-1.4088,-1.4088,-1.4088,-1.4088,-1.4088,-1.4088,-1.4088,-1.4088,-1.4088,-1.4088,-1.4088,-1.4088,-1.4088,-1.4088,-1.4088,-1.4088,-1.4307,-1.4788,-1.5654,-1.6149,-1.6434,-1.7786,-1.8817,-1.958,-2.002,-2.0855,-2.1689,-2.1768,-2.1494,-2.1093,-2.1093,-2.0869,-2.0605,-2.0605,-2.0605,-2.0605,-2.0605,-2.0605,-2.0605,-2.0605,-2.0605,-2.0586,-2.0517,-2.0507,-2.038,-1.9902,-1.9766,-1.9549,-1.897,-1.8793,-1.8606,-1.8076,-1.7767,-1.7091,0.0,0.0,-1.6538,-1.6618,-1.6967,-1.7207,-1.7275,-1.7376,-1.75,-1.7793,-1.7607,-1.7578,-1.7803,-1.7939,-1.834,-1.9062,-1.9429,-2.0305,-2.1659,-2.1883,-2.259,-2.3734,-2.3734,-2.4264,-2.5229,-2.5229,-2.5699,-2.6524,-2.7077,-2.7595,-2.8147,-2.8662,-2.9277,-2.9792,-2.9792,-2.9792,-2.9792,-2.9792,-2.9792,-2.9792,-0.7914,-0.9056,-1.0091,-1.0394,-1.1343,-1.2291,-1.3033,-1.3118,-1.3379,-1.3997,-1.4088,-1.4088,-1.4088,-1.4088,-1.4088,-1.4088,-1.4088,-1.4088,-1.4088,-1.4088,-1.4088,-1.4088,-1.4088,-1.4088,-1.4088,-1.4088,-1.4088,-1.4088,-1.4088,-1.4088,-1.4088,-1.4088,-1.4088,-1.4088,-1.4088,-1.4175,-1.4322,-1.4322,-1.4489,-1.48,-1.5309,-1.5521,-1.5623,-1.6885,-1.762,-1.8115,-1.904,-2.0002,-2.0899,-2.1175,-2.1415,-2.1543,-2.1268,-2.126,-2.1222,-2.0742,-2.0605,-2.0605,-2.0605,-2.0605,-2.0605,-2.0605,-2.0605,-2.0605,-2.0605,-2.0605,-2.0546,-2.0303,-2.003,-1.9679,-1.9397,-1.8844,-1.8311,-1.8051,-1.7197,0.0,0.0,-1.6164,-1.689,-1.7341,-1.7392,-1.7471,-1.7695,-1.7715,-1.7803,-1.7998,-1.7832,-1.7803,-1.7998,-1.8008,-1.8408,-1.9258,-1.9774,-2.0629,-2.1989,-2.1479,-2.1745,-2.2702,-2.2702,-2.3514,-2.5004,-2.5004,-2.5558,-2.6512,-2.6763,-2.7318,-2.8122,-2.8386,-2.9001,-2.9792,-2.9792,-2.9792,-2.9792,-2.9792,-2.9792,-2.9792,-0.7095,-0.8097,-0.8925,-0.889,-1.0144,-1.1305,-1.1809,-1.1895,-1.2334,-1.3512,-1.3688,-1.3779,-1.4088,-1.4088,-1.4088,-1.4088,-1.4088,-1.4088,-1.4088,-1.4088,-1.4088,-1.4088,-1.4088,-1.4088,-1.4088,-1.4088,-1.4088,-1.4088,-1.4088,-1.4088,-1.4088,-1.4088,-1.4122,-1.4188,-1.4188,-1.4349,-1.4623,-1.4623,-1.479,-1.5109,-1.5109,-1.5109,-1.5199,-1.6095,-1.6551,-1.6921,-1.8105,-1.9115,-1.9963,-2.0612,-2.1176,-2.162,-2.1508,-2.1699,-2.1758,-2.1114,-2.084,-2.0742,-2.0635,-2.0605,-2.0605,-2.0605,-2.0605,-2.0605,-2.0605,-2.0605,-2.0605,-2.0605,-2.0235,-1.9894,-1.9905,-1.9022,-1.8254,-1.8031,0.0,0.0,0.0,-1.6319,-1.7251,-1.7911,-1.7728,-1.7656,-1.7978,-1.8008,-1.8008,-1.8008,-1.8008,-1.8008,-1.8008,-1.8008,-1.8408,-1.9258,-2.0155,-2.0934,-2.1669,-2.0972,-2.0972,-2.1659,-2.1659,-2.259,-2.4301,-2.4301,-2.4992,-2.6129,-2.6129,-2.6829,-2.7921,-2.8059,-2.8699,-2.9603,-2.9741,-2.9792,-2.9792,-2.9792,-2.9792,-2.9792,-0.7095,-0.7183,-0.7621,-0.8715,-0.9021,-0.9492,-1.0567,-1.074,-1.1123,-1.2285,-1.2413,-1.2857,-1.3997,-1.4088,-1.4088,-1.4088,-1.4088,-1.4088,-1.4088,-1.4088,-1.4088,-1.4088,-1.4088,-1.4088,-1.4088,-1.4088,-1.4088,-1.4088,-1.4088,-1.4088,-1.4088,-1.4088,-1.4229,-1.4489,-1.4489,-1.4656,-1.4975,-1.4975,-1.5097,-1.5364,-1.5364,-1.5364,-1.5398,-1.5705,-1.6401,-1.7214,-1.7612,-1.854,-1.9731,-2.0882,-2.1039,-2.0982,-2.2072,-2.2178,-2.1875,-2.1807,-2.1504,-2.1054,-2.0713,-2.0605,-2.0605,-2.0605,-2.0605,-2.0605,-2.0605,-2.0605,-2.0605,-2.0605,-2.0576,-2.0526,-2.0552,-1.9796,-1.8931,-1.813,0.0,0.0,-1.5638,-1.6841,-1.7921,-1.7991,-1.7951,-1.7978,-1.8008,-1.8008,-1.8008,-1.8008,-1.8008,-1.8008,-1.8008,-1.8008,-1.8408,-1.9258,-2.0155,-2.0644,-2.0712,-2.0644,-2.0644,-2.0712,-2.0712,-2.1231,-2.2215,-2.2215,-2.3294,-2.5123,-2.5123,-2.5957,-2.7381,-2.7896,-2.8448,-2.9013,-2.9578,-2.9792,-2.9792,-2.9792,-2.9792,-2.9792,-0.7095,-0.7095,-0.7228,-0.7709,-0.7797,-0.8189,-0.9362,-0.9536,-0.9966,-1.108,-1.1852,-1.2456,-1.2942,-1.3646,-1.4088,-1.4088,-1.4088,-1.4088,-1.4088,-1.4088,-1.4088,-1.4088,-1.4088,-1.4088,-1.4088,-1.4088,-1.4088,-1.4088,-1.4269,-1.4355,-1.4362,-1.4543,-1.4689,-1.4796,-1.4796,-1.4957,-1.5231,-1.5231,-1.5398,-1.5665,-1.5665,-1.5665,-1.5678,-1.5738,-1.6035,-1.6353,-1.6485,-1.7311,-1.8549,-1.9761,-2.0569,-2.126,-2.2183,-2.2578,-2.2607,-2.2353,-2.1736,-2.1161,-2.1025,-2.0781,-2.0605,-2.0605,-2.0605,-2.0605,-2.0605,-2.0605,-2.0605,-2.0605,-2.0605,-2.0585,-2.0601,-2.0321,-1.9994,-1.9671,0.0,-1.776,-1.7097,-1.7579,-1.8005,-1.8004,-1.8007,-1.8008,-1.8008,-1.8008,-1.8008,-1.8008,-1.8008,-1.8008,-1.8008,-1.8516,-1.8955,-1.9277,-2.0155,-2.0605,-2.0605,-2.0605,-2.0605,-2.0605,-2.0605,-2.1078,-2.1989,-2.1989,-2.2776,-2.4108,-2.4743,-2.5517,-2.6468,-2.764,-2.8436,-2.895,-2.9566,-2.9792,-2.9792,-2.9792,-2.9792,-2.9792,-0.7095,-0.7095,-0.7095,-0.7095,-0.7095,-0.736,-0.8189,-0.8324,-0.8755,-0.9923,-1.074,-1.1509,-1.2237,-1.3033,-1.3688,-1.4088,-1.4088,-1.4088,-1.4088,-1.4175,-1.4222,-1.4222,-1.4222,-1.4269,-1.4362,-1.4362,-1.4362,-1.4362,-1.4563,-1.4663,-1.4663,-1.4914,-1.5055,-1.5149,-1.5149,-1.5257,-1.5531,-1.5531,-1.5651,-1.5784,-1.5784,-1.5784,-1.5784,-1.5784,-1.5784,-1.5784,-1.5784,-1.6339,-1.7358,-1.8948,-2.0034,-2.098,-2.2298,-2.2867,-2.3013,-2.2637,-2.2002,-2.1406,-2.1229,-2.0908,-2.0605,-2.0605,-2.0605,-2.0605,-2.0605,-2.0605,-2.0605,-2.0605,-2.0605,-2.0614,-2.0589,-2.0587,-2.0597,-2.0591,-1.9153,-1.7995,-1.8002,-1.7982,-1.7998,-1.7988,-1.8008,-1.8008,-1.8008,-1.8008,-1.8008,-1.8008,-1.8008,-1.8066,-1.8159,-1.8896,-1.9346,-1.9482,-2.0224,-2.0605,-2.0605,-2.0605,-2.0605,-2.0605,-2.0605,-2.0934,-2.1555,-2.1555,-2.2113,-2.3073,-2.3745,-2.4631,-2.5672,-2.7066,-2.8052,-2.875,-2.9503,-2.9792,-2.9792,-2.9792,-2.9792,-2.9792,-0.7095,-0.7095,-0.7095,-0.7095,-0.7095,-0.7095,-0.7095,-0.7095,-0.7533,-0.8715,-0.889,-0.9753,-1.2029,-1.2285,-1.2766,-1.4004,-1.4088,-1.4088,-1.4095,-1.4362,-1.4479,-1.4529,-1.4522,-1.4663,-1.5001,-1.5008,-1.5008,-1.5008,-1.5015,-1.5015,-1.5015,-1.5015,-1.5169,-1.5398,-1.5398,-1.5558,-1.5784,-1.5784,-1.5784,-1.5784,-1.5784,-1.5784,-1.5784,-1.5784,-1.5784,-1.5784,-1.5784,-1.5784,-1.6197,-1.8672,-1.9497,-1.9906,-2.2315,-2.3091,-2.3013,-2.2637,-2.2217,-2.1797,-2.1327,-2.0918,-2.0605,-2.0605,-2.0605,-2.0605,-2.0605,-2.0605,-2.0605,-2.0605,-2.0605,-2.0605,-2.0605,-2.0605,-2.0613,-2.0601,-1.9168,-1.8005,-1.8007,-1.8006,-1.8018,-1.8008,-1.8008,-1.8008,-1.8008,-1.8008,-1.8008,-1.8008,-1.8018,-1.8159,-1.8578,-1.9053,-1.9482,-1.9902,-2.038,-2.0605,-2.0605,-2.0605,-2.0605,-2.0605,-2.0605,-2.0605,-2.0605,-2.0605,-2.1116,-2.1989,-2.2,-2.3147,-2.5052,-2.6135,-2.7187,-2.821,-2.9352,-2.9792,-2.9792,-2.9792,-2.9792,-2.9792,-0.7095,-0.7095,-0.7095,-0.7095,-0.7095,-0.7095,-0.7095,-0.7095,-0.7228,-0.7577,-0.8364,-0.9196,-0.9979,-1.1392,-1.2561,-1.3256,-1.3967,-1.4476,-1.4733,-1.4827,-1.4923,-1.5124,-1.4937,-1.4914,-1.5008,-1.5008,-1.5008,-1.5008,-1.517,-1.5264,-1.5271,-1.5478,-1.5618,-1.5698,-1.5698,-1.5752,-1.5784,-1.5784,-1.5784,-1.5784,-1.5784,-1.5784,-1.5784,-1.5784,-1.5784,-1.5784,-1.5784,-1.5784,-1.6062,-1.7677,-1.8234,-1.868,-2.1078,-2.2403,-2.3071,-2.2945,-2.2656,-2.2295,-2.2168,-2.1592,-2.0957,-2.0683,-2.0605,-2.0605,-2.0605,-2.0605,-2.0605,-2.0605,-2.0605,-2.0605,-2.0605,-2.0605,-2.0613,-2.0601,-2.0165,-1.9566,-1.875,-1.8635,-1.8483,-1.8047,-1.8008,-1.8008,-1.8008,-1.8008,-1.8008,-1.8008,-1.8247,-1.8471,-1.8598,-1.929,-1.9785,-1.9912,-2.038,-2.0605,-2.0605,-2.0605,-2.0605,-2.0605,-2.0605,-2.0605,-2.0644,-2.1298,-2.1375,-2.1078,-2.2451,-2.2999,-2.3038,-2.477,-2.611,-2.7135,-2.8225,-2.9106,-2.9792,-2.9792,-2.9792,-2.9792,-0.7095,-0.7095,-0.7095,-0.7095,-0.7095,-0.7095,-0.7095,-0.7095,-0.7095,-0.7095,-0.7753,-0.8428,-0.9045,-1.0239,-1.1365,-1.2201,-1.3288,-1.3989,-1.4212,-1.4786,-1.5211,-1.5391,-1.5337,-1.5304,-1.5304,-1.5304,-1.5304,-1.5304,-1.5484,-1.5565,-1.5571,-1.5698,-1.5784,-1.5784,-1.5784,-1.5784,-1.5784,-1.5784,-1.5784,-1.5784,-1.5784,-1.5784,-1.5784,-1.5784,-1.5784,-1.5784,-1.5784,-1.5784,-1.5967,-1.7271,-1.8002,-1.8772,-2.0711,-2.18,-2.2492,-2.296,-2.2799,-2.251,-2.251,-2.2012,-2.1426,-2.1152,-2.086,-2.0605,-2.0605,-2.0605,-2.0605,-2.0605,-2.0605,-2.0605,-2.0605,-2.0605,-2.0614,-2.0619,-2.044,-2.0086,-1.9377,-1.9151,-1.884,-1.8311,-1.8227,-1.8159,-1.8027,-1.8008,-1.8076,-1.8242,-1.8617,-1.8965,-1.9095,-1.9592,-1.999,-2.0166,-2.0468,-2.0605,-2.0605,-2.0605,-2.0605,-2.0605,-2.0605,-2.0605,-2.0605,-2.1193,-2.1155,-2.0683,-2.2226,-2.2553,-2.2117,-2.3985,-2.5199,-2.6103,-2.7376,-2.8376,-2.9197,-2.9624,-2.9792,-2.9792,-0.7095,-0.7095,-0.7095,-0.7095,-0.7095,-0.7095,-0.7095,-0.7095,-0.7095,-0.7095,-0.7095,-0.7597,-0.8845,-0.903,-0.9604,-1.0893,-1.2162,-1.2945,-1.3082,-1.4431,-1.5338,-1.5438,-1.5691,-1.5784,-1.5784,-1.5784,-1.5784,-1.5784,-1.5784,-1.5784,-1.5784,-1.5784,-1.5784,-1.5784,-1.5784,-1.5784,-1.5784,-1.5784,-1.5784,-1.5784,-1.5784,-1.5784,-1.5784,-1.5784,-1.5784,-1.5784,-1.5784,-1.5784,-1.5967,-1.7131,-1.8319,-1.9534,-2.0612,-2.1069,-2.1391,-2.2589,-2.2688,-2.2431,-2.2526,-2.2266,-2.1943,-2.1943,-2.1349,-2.0713,-2.0674,-2.0635,-2.0605,-2.0605,-2.0605,-2.0605,-2.0605,-2.0605,-2.0605,-2.0605,-2.0234,-1.9961,-1.9922,-1.958,-1.918,-1.8715,-1.8656,-1.851,-1.8164,-1.8125,-1.8281,-1.8637,-1.9092,-1.9512,-1.9893,-1.9951,-2.0156,-2.0595,-2.0605,-2.0605,-2.0605,-2.0605,-2.0605,-2.0605,-2.0605,-2.0605,-2.0605,-2.0683,-2.0673,-2.0634,-2.1593,-2.1952,-2.1993,-2.3449,-2.4331,-2.4982,-2.6535,-2.7455,-2.8024,-2.9162,-2.9625,-2.9663,-0.7095,-0.7095,-0.7095,-0.7095,-0.7095,-0.7095,-0.7095,-0.7095,-0.7095,-0.7095,-0.7095,-0.7331,-0.7884,-0.8615,-0.9393,-1.0171,-1.1414,-1.2565,-1.366,-1.4052,-1.4665,-1.5684,-1.5751,-1.5784,-1.5784,-1.5784,-1.5784,-1.5784,-1.5784,-1.5784,-1.5784,-1.5784,-1.5784,-1.5784,-1.5784,-1.5784,-1.5784,-1.5784,-1.5784,-1.5784,-1.5784,-1.5784,-1.5784,-1.5784,-1.5784,-1.5784,-1.5784,-1.5784,-1.5825,-1.6109,-1.703,-1.8141,-1.8411,-1.9131,-2.0124,-2.1346,-2.1647,-2.1769,-2.2727,-2.2695,-2.2373,-2.2373,-2.1982,-2.1514,-2.1162,-2.082,-2.0605,-2.0605,-2.0605,-2.0605,-2.0605,-2.0605,-2.0605,-2.0605,-2.0527,-2.0303,-1.9961,-1.9834,-1.9619,-1.9199,-1.915,-1.9111,-1.9023,-1.9014,-1.9043,-1.9141,-1.9531,-1.9814,-1.9912,-2.0244,-2.0507,-2.0595,-2.0605,-2.0605,-2.0605,-2.0605,-2.0605,-2.0605,-2.0605,-2.0605,-2.0644,-2.1375,-2.1298,-2.0634,-2.1593,-2.1593,-2.0964,-2.1608,-2.2472,-2.3399,-2.4097,-2.5163,-2.6451,-2.7579,-2.8207,-2.8597,-0.7095,-0.7095,-0.7095,-0.7095,-0.7095,-0.7095,-0.7095,-0.7095,-0.7122,-0.7241,-0.7251,-0.7366,-0.7668,-0.8182,-0.8642,-0.8989,-1.0239,-1.1312,-1.1989,-1.2619,-1.3542,-1.4848,-1.4902,-1.5194,-1.5778,-1.5784,-1.5784,-1.5784,-1.5784,-1.5784,-1.5784,-1.5784,-1.5784,-1.5784,-1.5784,-1.5784,-1.5784,-1.5784,-1.5784,-1.5784,-1.5784,-1.5784,-1.5784,-1.5784,-1.5784,-1.5784,-1.5784,-1.5784,-1.5784,-1.5784,-1.6244,-1.6897,-1.7505,-1.8141,-1.8864,-2.0079,-2.0845,-2.1436,-2.2076,-2.2514,-2.2812,-2.2812,-2.249,-2.2021,-2.1337,-2.1055,-2.082,-2.0644,-2.0605,-2.0605,-2.0605,-2.0605,-2.0605,-2.0605,-2.0605,-2.0527,-2.0254,-2.0225,-2.0068,-1.9639,-1.959,-1.9512,-1.9307,-1.9473,-1.959,-1.959,-1.998,-2.0225,-2.0225,-2.0478,-2.0605,-2.0605,-2.0605,-2.0605,-2.0605,-2.0605,-2.0605,-2.0605,-2.0605,-2.0605,-2.0605,-2.1116,-2.1039,-2.0634,-2.1593,-2.1479,-2.0664,-2.13,-2.1795,-2.2205,-2.3424,-2.4508,-2.5566,-2.6905,-2.7683,-2.8255,-0.7095,-0.7095,-0.7095,-0.7095,-0.7095,-0.7095,-0.7095,-0.7119,-0.7224,-0.7356,-0.7439,-0.7512,-0.778,-0.7834,-0.7899,-0.7978,-0.9019,-0.9756,-0.9998,-1.0974,-1.2188,-1.3488,-1.3782,-1.4411,-1.5439,-1.5683,-1.5784,-1.5784,-1.5784,-1.5784,-1.5784,-1.5784,-1.5784,-1.5784,-1.5784,-1.5784,-1.5784,-1.5784,-1.5784,-1.5784,-1.5784,-1.5784,-1.5784,-1.5784,-1.5784,-1.5784,-1.5784,-1.5784,-1.5784,-1.5784,-1.5784,-1.5967,-1.7037,-1.7365,-1.7591,-1.8818,-1.9898,-2.0755,-2.1203,-2.2031,-2.2862,-2.3047,-2.2838,-2.2412,-2.159,-2.1298,-2.1103,-2.0693,-2.0605,-2.0605,-2.0605,-2.0605,-2.0605,-2.0605,-2.0605,-2.0605,-2.0605,-2.0605,-2.0468,-2.0068,-2.0029,-1.9893,-1.9541,-1.9824,-2.0029,-2.0029,-2.04,-2.0605,-2.0605,-2.0605,-2.0605,-2.0605,-2.0605,-2.0605,-2.0605,-2.0605,-2.0605,-2.0605,-2.0605,-2.0605,-2.0605,-2.0605,-2.0605,-2.0644,-2.1403,-2.1336,-2.0644,-2.1441,-2.1492,-2.1273,-2.3001,-2.4051,-2.482,-2.6648,-2.7702,-2.8385,-0.7095,-0.7095,-0.7095,-0.7095,-0.7095,-0.7095,-0.7095,-0.7255,-0.735,-0.7412,-0.7489,-0.7631,-0.7794,-0.788,-0.7968,-0.7988,-0.8187,-0.8775,-0.9899,-1.0145,-1.0828,-1.2091,-1.3295,-1.3974,-1.4166,-1.5242,-1.5784,-1.5784,-1.5784,-1.5784,-1.5784,-1.5784,-1.5784,-1.5784,-1.5784,-1.5784,-1.5784,-1.5784,-1.5784,-1.5784,-1.5784,-1.5784,-1.5784,-1.5784,-1.5784,-1.5784,-1.5784,-1.5784,-1.5784,-1.5784,-1.5784,-1.5832,-1.6015,-1.6062,-1.6292,-1.7591,-1.8048,-1.8634,-2.0747,-2.1436,-2.18,-2.2818,-2.3052,-2.2886,-2.2451,-2.1726,-2.1103,-2.0693,-2.0605,-2.0605,-2.0605,-2.0605,-2.0605,-2.0605,-2.0605,-2.0605,-2.0605,-2.0605,-2.0586,-2.0517,-2.0517,-2.0488,-2.0439,-2.0478,-2.0517,-2.0517,-2.0566,-2.0605,-2.0605,-2.0605,-2.0605,-2.0605,-2.0605,-2.0605,-2.0605,-2.0605,-2.0605,-2.0605,-2.0605,-2.0605,-2.0605,-2.0605,-2.0605,-2.0605,-2.075,-2.0712,-2.0605,-2.075,-2.0751,-2.0693,-2.0985,-2.1896,-2.3349,-2.6236,-2.7924,-2.8912,-0.6962,-0.7095,-0.7095,-0.7095,-0.7095,-0.7125,-0.7255,-0.7326,-0.7431,-0.7594,-0.7675,-0.7773,-0.7874,-0.7948,-0.7988,-0.7988,-0.7988,-0.8237,-0.8825,-0.8874,-0.946,-1.0779,-1.1409,-1.2037,-1.2764,-1.3349,-1.398,-1.4752,-1.5439,-1.5784,-1.5784,-1.5784,-1.5784,-1.5784,-1.5784,-1.5784,-1.5784,-1.5784,-1.5784,-1.5784,-1.5784,-1.5784,-1.5784,-1.5784,-1.5784,-1.5784,-1.5784,-1.5784,-1.5784,-1.5784,-1.5784,-1.5784,-1.5784,-1.5784,-1.592,-1.648,-1.7131,-1.7909,-1.9001,-1.9761,-2.0576,-2.18,-2.2076,-2.2158,-2.2427,-2.2217,-2.1758,-2.1074,-2.0937,-2.0859,-2.0644,-2.0605,-2.0605,-2.0605,-2.0605,-2.0605,-2.0605,-2.0605,-2.0605,-2.0605,-2.0605,-2.0605,-2.0605,-2.0605,-2.0605,-2.0605,-2.0605,-2.0605,-2.0605,-2.0605,-2.0605,-2.0605,-2.0605,-2.0605,-2.0605,-2.0605,-2.0605,-2.0605,-2.0605,-2.0605,-2.0605,-2.0605,-2.0605,-2.0605,-2.0605,-2.0605,-2.0605,-2.0605,-2.0605,-2.0634,-2.1193,-2.1909,-2.3006,-2.5527,-2.6773,-2.7359]}]]